Date StartTime U_cm/s V_cm/s W_cm/s Ustd_cm/s Vstd_cm/s Wstd_cm/s Uvar_(cm/s)^2 Vvar_(cm/s)^2 Wvar_(cm/s)^2 KE_(m/s)^2 TurbulentKE_(m/s)^2 HorizWindSpeed_cm/s FrictionSpeec_cm/s DragCoef SpeedOfSound_m/s SonicTemperature_C Pressure_mb 
08/15/2014  00:00:00     -238.210     -108.677       -2.117      160.924      125.086       67.605    25896.528    15646.541     4570.417        5.733        2.306      261.829       69.436        0.070      344.374       21.145      862.083
08/15/2014  00:01:00     -265.124      -15.551      -16.392      123.016       71.485       57.012    15132.859     5110.063     3250.340        4.714        1.175      265.580       55.376        0.043      344.361       21.123      862.096
08/15/2014  00:02:00     -194.925      -34.731       -3.072      109.876       80.839       43.070    12072.844     6534.968     1855.006        2.983        1.023      197.994       48.330        0.060      344.356       21.113      862.086
08/15/2014  00:03:00      -55.245      -69.482       10.101       62.222       69.117       33.776     3871.522     4777.176     1140.808        0.888        0.489       88.768       36.069        0.165      344.319       21.052      862.090
08/15/2014  00:04:00      -85.390      -31.132        9.780       65.485       58.160       33.438     4288.327     3382.599     1118.120        0.857        0.439       90.888       31.987        0.124      344.363       21.129      862.083
08/15/2014  00:05:00      -58.819      -31.413        1.476       66.038       64.657       39.844     4361.073     4180.471     1587.570        0.729        0.506       66.682       32.409        0.236      344.331       21.075      862.098
08/15/2014  00:06:00     -156.934      -10.757       -6.194      115.469       84.040       55.606    13332.976     7062.719     3091.981        2.413        1.174      157.303       49.061        0.097      344.337       21.082      862.112
08/15/2014  00:07:00     -226.055       -5.549       -1.789      156.090      114.271       66.635    24364.100    13057.964     4440.241        4.649        2.093      226.123       57.809        0.065      344.314       21.043      862.128
08/15/2014  00:08:00     -124.011      -93.804       17.558      134.670      112.484       49.288    18135.950    12652.632     2429.259        2.885        1.661      155.492       57.001        0.134      344.327       21.063      862.162
08/15/2014  00:09:00     -260.488     -161.082      -15.641       94.887       69.718       61.973     9003.553     4860.540     3840.684        5.587        0.885      306.270       56.394        0.034      344.394       21.177      862.153
08/15/2014  00:10:00     -350.634     -248.600      -24.886      167.723       97.763       62.571    28130.914     9557.670     3915.181       11.348        2.080      429.821       79.318        0.034      344.411       21.207      862.159
08/15/2014  00:11:00     -114.153      -87.409       35.379      127.083      109.005       70.683    16150.050    11882.104     4996.134        2.747        1.651      143.775       72.262        0.253      344.317       21.049      862.178
08/15/2014  00:12:00     -133.579      -97.541        1.419      117.291       75.244       40.385    13757.170     5661.638     1630.960        2.420        1.052      165.401       55.204        0.111      344.330       21.070      862.211
08/15/2014  00:13:00      -54.977      -72.330        5.821       44.758       59.786       24.510     2003.297     3574.339      600.757        0.723        0.309       90.852       24.413        0.072      344.311       21.038      862.208
08/15/2014  00:14:00      -33.187      -85.014        6.826       46.849       42.109       28.168     2194.799     1773.153      793.410        0.657        0.238       91.262       11.006        0.015      344.326       21.065      862.228
08/15/2014  00:15:00     -143.651      -92.121        4.774       94.872       57.714       35.652     9000.723     3330.897     1271.073        2.137        0.680      170.651       44.405        0.068      344.275       20.974      862.260
08/15/2014  00:16:00      -61.015      -76.477        2.334       79.822       77.127       37.965     6371.584     5948.550     1441.374        1.167        0.688       97.834       34.371        0.123      344.279       20.984      862.278
08/15/2014  00:17:00     -179.425     -217.186        8.727      179.823      124.169       67.478    32336.187    15417.860     4553.233        6.586        2.615      281.714       78.676        0.078      344.319       21.052      862.267
08/15/2014  00:18:00      -94.539     -127.038       -2.926      151.025       88.076       45.539    22808.608     7757.411     2073.827        2.886        1.632      158.355       36.195        0.052      344.306       21.027      862.295
08/15/2014  00:19:00     -120.622      -24.344       -6.137       65.364       39.007       32.710     4272.387     1521.558     1069.962        1.102        0.343      123.054       34.514        0.079      344.291       21.005      862.308
08/15/2014  00:20:00     -112.067      -31.139      -15.384       96.453       68.289       34.903     9303.166     4663.346     1218.206        1.447        0.759      116.313       17.299        0.022      344.358       21.119      862.313
08/15/2014  00:21:00       12.361      -44.089       17.585       43.963       41.971       36.989     1932.754     1761.544     1368.157        0.373        0.253       45.789       30.039        0.430      344.330       21.072      862.304
08/15/2014  00:22:00      -53.361      -95.440        1.653       49.815       43.426       19.369     2481.549     1885.849      375.147        0.835        0.237      109.345       17.324        0.025      344.317       21.050      862.330
08/15/2014  00:23:00     -129.273      -47.379       -4.103       80.611       70.907       31.873     6498.069     5027.773     1015.880        1.575        0.627      137.681       29.508        0.046      344.325       21.061      862.331
08/15/2014  00:24:00      -48.450      -99.527        8.726       50.639       52.193       25.838     2564.310     2724.156      667.601        0.914        0.298      110.693       21.523        0.038      344.280       20.986      862.347
08/15/2014  00:25:00      -78.148      -65.035        2.922       74.555       53.974       34.910     5558.465     2913.171     1218.674        1.002        0.485      101.669       35.503        0.122      344.269       20.967      862.365
08/15/2014  00:26:00      -94.722      -28.663       -1.364       32.450       35.556       19.293     1052.987     1264.247      372.204        0.624        0.134       98.964       11.464        0.013      344.231       20.903      862.371
08/15/2014  00:27:00     -132.182     -106.593      -10.248       86.088       59.596       32.646     7411.159     3551.693     1065.743        2.048        0.601      169.806       37.658        0.049      344.325       21.062      862.359
08/15/2014  00:28:00     -187.070       -6.945      -13.308       87.421       96.080       35.180     7642.382     9231.337     1237.658        2.666        0.906      187.199       31.683        0.029      344.273       20.972      862.367
08/15/2014  00:29:00     -105.031     -168.206       11.830      119.480       86.544       61.016    14275.487     7489.799     3722.947        3.247        1.274      198.305       63.927        0.104      344.275       20.977      862.371
08/15/2014  00:30:00     -179.021      -67.417       -3.196      115.168      107.942       54.685    13263.724    11651.460     2990.437        3.225        1.395      191.294       52.004        0.074      344.244       20.922      862.369
08/15/2014  00:31:00      -80.090      -83.488       -2.355       65.053       51.828       37.000     4231.875     2686.178     1369.002        1.084        0.414      115.692       39.938        0.119      344.293       21.010      862.373
08/15/2014  00:32:00      -84.038      -74.306       -7.172       54.805       40.141       27.774     3003.552     1611.286      771.376        0.901        0.269      112.177       19.654        0.031      344.317       21.048      862.385
08/15/2014  00:33:00      -47.177     -118.311        5.579       52.935       40.895       29.350     2802.160     1672.428      861.394        1.079        0.267      127.371       28.135        0.049      344.269       20.971      862.412
08/15/2014  00:34:00     -164.182     -102.686        5.249      135.294       71.518       47.525    18304.359     5114.759     2258.656        3.160        1.284      193.649       47.441        0.060      344.242       20.921      862.439
08/15/2014  00:35:00     -117.802      -66.906       12.170       98.514       60.729       38.239     9705.043     3687.970     1462.249        1.668        0.743      135.476       43.021        0.101      344.161       20.783      862.452
08/15/2014  00:36:00      -46.453      -32.526       11.680       67.604       28.320       22.882     4570.252      802.035      523.578        0.462        0.295       56.708       30.419        0.288      344.109       20.695      862.450
08/15/2014  00:37:00     -135.090      -66.247       -1.120       79.516       45.290       35.309     6322.746     2051.146     1246.702        1.613        0.481      150.459       39.435        0.069      344.103       20.683      862.457
08/15/2014  00:38:00      -55.535      -44.731       -2.695      110.962       84.361       43.005    12312.633     7116.719     1849.450        1.318        1.064       71.309       38.732        0.295      344.133       20.734      862.426
08/15/2014  00:39:00     -169.376      -71.302        2.548      122.454       52.808       52.887    14995.101     2788.674     2796.989        2.718        1.029      183.773       54.172        0.087      344.163       20.786      862.429
08/15/2014  00:40:00      -76.316     -133.380        0.065       54.198       64.391       33.469     2937.451     4146.203     1120.200        1.591        0.410      153.670       30.579        0.040      344.217       20.879      862.428
08/15/2014  00:41:00      -62.137      -93.230       -6.950       55.099       54.908       31.223     3035.848     3014.943      974.861        0.981        0.351      112.039       16.547        0.022      344.214       20.873      862.420
08/15/2014  00:42:00      -66.816      -51.345        2.670       80.589       37.733       34.529     6494.511     1423.753     1192.231        0.811        0.456       84.265       41.495        0.242      344.172       20.803      862.426
08/15/2014  00:43:00     -138.580      -44.839        4.212       44.854       44.060       24.175     2011.842     1941.317      584.449        1.288        0.227      145.653       24.514        0.028      344.132       20.734      862.429
08/15/2014  00:44:00     -171.619      -63.879        0.534       88.913       57.282       42.152     7905.554     3281.276     1776.827        2.325        0.648      183.121       46.528        0.065      344.142       20.749      862.442
08/15/2014  00:45:00      -99.716     -193.388        1.096       71.477       89.614       39.089     5108.991     8030.642     1527.934        3.100        0.733      217.582       36.543        0.028      344.157       20.774      862.460
08/15/2014  00:46:00      -92.729     -126.884       -1.989       82.946       52.475       45.481     6880.095     2753.596     2068.533        1.820        0.585      157.157       36.808        0.055      344.167       20.792      862.464
08/15/2014  00:47:00      -17.245      -77.165        6.303       30.961       50.688       21.587      958.595     2569.240      466.007        0.514        0.200       79.068       16.581        0.044      344.107       20.691      862.453
08/15/2014  00:48:00      -52.581      -83.626      -10.637       56.602       38.621       29.615     3203.783     1491.556      877.040        0.772        0.279       98.783       20.255        0.042      344.123       20.720      862.468
08/15/2014  00:49:00      -22.001      -93.538       10.048       40.923       33.066       19.806     1674.704     1093.389      392.288        0.625        0.158       96.090       19.524        0.041      344.128       20.727      862.485
08/15/2014  00:50:00      -39.638     -107.195       -0.155       26.317       24.665       19.289      692.566      608.357      372.083        0.737        0.084      114.289        8.034        0.005      344.166       20.791      862.491
08/15/2014  00:51:00      -40.549      -64.358        5.843       34.535       27.948       24.482     1192.656      781.104      599.391        0.420        0.129       76.066       20.918        0.076      344.099       20.679      862.489
08/15/2014  00:52:00      -37.900      -29.638       -1.663       33.554       38.347       19.403     1125.902     1470.460      376.479        0.264        0.149       48.113       19.634        0.167      344.072       20.631      862.498
08/15/2014  00:53:00      -33.455       -9.324       -7.431       23.565        9.973       12.595      555.315       99.455      158.631        0.104        0.041       34.730        5.590        0.026      344.110       20.697      862.498
08/15/2014  00:54:00       -0.641        6.495       20.260       28.754       16.934       13.583      826.777      286.756      184.499        0.088        0.065        6.526       18.568        8.094      343.945       20.413      862.482
08/15/2014  00:55:00      -23.466       -1.933        6.143       23.703       25.228       15.137      561.814      636.441      229.141        0.101        0.071       23.546       16.218        0.474      343.992       20.494      862.470
08/15/2014  00:56:00      -27.484       -6.145        4.502       29.693       22.368       17.884      881.652      500.321      319.849        0.126        0.085       28.163       14.084        0.250      344.030       20.560      862.507
08/15/2014  00:57:00      -14.885        1.884       -3.666       16.524       30.394       15.001      273.059      923.787      225.016        0.083        0.071       15.004       11.108        0.548      344.040       20.577      862.516
08/15/2014  00:58:00       27.470       28.119       55.906       41.609       27.552       25.531     1731.286      759.135      651.821        0.391        0.157       39.310       25.821        0.431      343.946       20.417      862.495
08/15/2014  00:59:00       16.295        0.086       33.582       40.919       43.942       35.366     1674.358     1930.941     1250.727        0.312        0.243       16.295       37.439        5.279      343.918       20.369      862.500
08/15/2014  01:00:00        7.836       24.698       55.993       24.716       36.180       28.607      610.884     1308.964      818.341        0.327        0.137       25.911       27.922        1.161      343.954       20.430      862.491
08/15/2014  01:01:00       -5.294      -13.470       33.962       14.393       36.598       21.476      207.147     1339.429      461.231        0.168        0.100       14.474       15.441        1.138      343.885       20.313      862.472
08/15/2014  01:02:00       21.868        8.750       35.852       28.795       54.693       37.358      829.124     2991.325     1395.624        0.353        0.261       23.553       34.926        2.199      343.809       20.180      862.453
08/15/2014  01:03:00       -2.570      -18.582       19.575       40.001       34.943       30.729     1600.096     1220.986      944.247        0.225        0.188       18.759       28.227        2.264      343.927       20.383      862.454
08/15/2014  01:04:00       22.636      -39.098        4.867       45.019       30.118       35.805     2026.726      907.102     1281.975        0.314        0.211       45.178       24.019        0.283      343.872       20.288      862.463
08/15/2014  01:05:00       21.317     -100.682      -22.052       59.071       41.973       25.000     3489.345     1761.769      625.019        0.848        0.294      102.914       27.964        0.074      343.898       20.334      862.478
08/15/2014  01:06:00      -29.880      -45.975      -11.466       29.111       34.295       18.228      847.459     1176.157      332.264        0.275        0.118       54.832       13.198        0.058      343.828       20.215      862.506
08/15/2014  01:07:00      -11.550      -38.494        5.626       27.323       27.048       31.171      746.553      731.569      971.603        0.205        0.122       40.189        8.469        0.044      343.774       20.123      862.488
08/15/2014  01:08:00        3.667      -48.971      -13.950       47.085       30.248       32.811     2217.043      914.969     1076.591        0.341        0.210       49.108       20.103        0.168      343.819       20.199      862.475
08/15/2014  01:09:00        0.543      -74.549      -13.326       32.984       38.950       21.070     1087.943     1517.073      443.962        0.439        0.152       74.551       18.398        0.061      343.867       20.284      862.487
08/15/2014  01:10:00       -3.437      -30.690       10.492       19.896       35.649       19.843      395.864     1270.826      393.735        0.156        0.103       30.881        8.749        0.080      343.774       20.121      862.509
08/15/2014  01:11:00      -15.852      -22.562       12.088       44.219       53.124       30.022     1955.305     2822.204      901.320        0.329        0.284       27.574       27.677        1.008      343.710       20.013      862.496
08/15/2014  01:12:00      -10.424      -23.552       -4.561       29.799        9.361       10.416      887.977       87.635      108.494        0.088        0.054       25.755       10.493        0.166      343.780       20.134      862.504
08/15/2014  01:13:00       29.621       -3.311       15.563       24.085       15.519       15.937      580.080      240.843      253.997        0.110        0.054       29.806        9.731        0.107      343.665       19.935      862.491
08/15/2014  01:14:00        2.684        6.340       26.365       38.750       21.375       16.225     1501.597      456.896      263.242        0.148        0.111        6.885        7.213        1.097      343.602       19.829      862.454
08/15/2014  01:15:00       -8.149      -29.986       -2.498       18.471       20.593       15.614      341.175      424.083      243.800        0.099        0.050       31.074        9.096        0.086      343.729       20.046      862.474
08/15/2014  01:16:00       25.628      -63.236        8.531       20.775       33.596       15.779      431.606     1128.676      248.973        0.327        0.090       68.232       11.894        0.030      343.773       20.121      862.479
08/15/2014  01:17:00      -12.114      -76.506      -11.864       28.095       26.619       21.324      789.307      708.554      454.706        0.405        0.098       77.459       17.145        0.049      343.758       20.097      862.462
08/15/2014  01:18:00      -12.726      -80.841       -0.554       20.309       20.307       14.852      412.439      412.390      220.592        0.387        0.052       81.837        9.761        0.014      343.846       20.246      862.469
08/15/2014  01:19:00      -37.921      -27.190        3.171       31.927       26.934       15.809     1019.345      725.415      249.938        0.209        0.100       46.661       15.388        0.109      343.717       20.025      862.482
08/15/2014  01:20:00      -18.453      -18.330       -1.245       16.000       20.157        9.514      255.998      406.297       90.509        0.072        0.038       26.010        3.779        0.021      343.757       20.092      862.490
08/15/2014  01:21:00       -1.545      -15.943       -1.793       18.824       10.750       11.657      354.356      115.560      135.882        0.043        0.030       16.018        9.367        0.342      343.704       20.005      862.497
08/15/2014  01:22:00       -0.553        5.011        9.941       25.675       21.284       12.905      659.211      453.017      166.530        0.070        0.064        5.042        9.830        3.801      343.619       19.857      862.505
08/15/2014  01:23:00        1.378       39.119        2.410       29.982       17.216       20.256      898.901      296.377      410.320        0.157        0.080       39.144       23.360        0.356      343.632       19.881      862.510
08/15/2014  01:24:00      -17.734       -0.244        8.508       21.514       10.203       13.861      462.869      104.099      192.133        0.057        0.038       17.735       14.408        0.660      343.700       19.997      862.499
08/15/2014  01:25:00        4.477       -1.293       19.933       17.247       17.247       16.713      297.459      297.472      279.330        0.065        0.044        4.660       11.629        6.228      343.662       19.931      862.495
08/15/2014  01:26:00       18.368       40.955       -7.912       18.514       10.578        8.654      342.780      111.901       74.899        0.130        0.026       44.885       10.106        0.051      343.497       19.650      862.523
08/15/2014  01:27:00       16.685       10.074       -1.711       11.012       18.304        8.049      121.260      335.037       64.786        0.045        0.026       19.490        8.002        0.169      343.410       19.499      862.549
08/15/2014  01:28:00       20.223      -14.980       -7.785       11.793       23.184        6.503      139.081      537.518       42.288        0.071        0.036       25.167        4.806        0.036      343.492       19.641      862.578
08/15/2014  01:29:00       31.377       34.901        7.800       10.427       18.242       10.080      108.721      332.779      101.608        0.140        0.027       46.932        9.505        0.041      343.368       19.431      862.576
08/15/2014  01:30:00       30.181       73.146      -13.217        7.611       10.502        7.977       57.924      110.297       63.634        0.333        0.012       79.128        5.339        0.005      343.412       19.507      862.566
08/15/2014  01:31:00       40.743      111.309      -15.880       12.101       13.558        8.297      146.441      183.807       68.843        0.735        0.020      118.531        7.207        0.004      343.286       19.291      862.548
08/15/2014  01:32:00       37.040       54.768      -11.426       13.282       33.133       13.418      176.410     1097.806      180.049        0.298        0.073       66.117       16.244        0.060      343.134       19.032      862.532
08/15/2014  01:33:00       26.573        6.324        1.085       30.711       22.534       14.921      943.195      507.761      222.626        0.121        0.084       27.315       15.072        0.304      343.014       18.828      862.555
08/15/2014  01:34:00       39.434       20.718       11.428       31.220       19.172       15.025      974.676      367.548      225.741        0.184        0.078       44.546       13.534        0.092      343.097       18.967      862.579
08/15/2014  01:35:00        6.741       -9.430       -6.223       11.649       16.461        9.982      135.704      270.951       99.649        0.034        0.025       11.592        5.429        0.219      343.232       19.198      862.603
08/15/2014  01:36:00       16.570        4.837        7.941       16.092       22.241       12.772      258.964      494.650      163.123        0.064        0.046       17.262       13.435        0.606      343.241       19.214      862.613
08/15/2014  01:37:00       65.791       45.481       26.128       12.427        9.593       14.327      154.423       92.029      205.269        0.377        0.023       79.981        7.368        0.008      343.295       19.308      862.597
08/15/2014  01:38:00       59.197       32.171        4.208       11.568       13.876       11.529      133.824      192.545      132.925        0.251        0.023       67.374        4.490        0.004      343.326       19.360      862.589
08/15/2014  01:39:00       39.383        8.936       10.400       12.945       13.875       12.497      167.568      192.503      156.184        0.113        0.026       40.384       10.086        0.062      343.248       19.227      862.589
08/15/2014  01:40:00       24.399       -1.902       12.756       33.641       27.171       16.677     1131.699      738.271      278.136        0.145        0.107       24.473       12.224        0.249      343.281       19.281      862.593
08/15/2014  01:41:00       -1.912      -43.993        5.328       13.492       17.952       11.548      182.022      322.286      133.348        0.130        0.032       44.034        9.451        0.046      343.331       19.367      862.595
08/15/2014  01:42:00       -4.229       -5.423       -0.667       12.066       19.480        9.782      145.593      379.453       95.692        0.033        0.031        6.877        3.375        0.241      343.308       19.328      862.611
08/15/2014  01:43:00       15.921       -4.184       13.482       21.954       14.448       17.865      481.957      208.737      319.173        0.073        0.050       16.462       16.858        1.049      343.195       19.136      862.612
08/15/2014  01:44:00       20.191      -34.230        8.806       21.722       26.247       13.529      471.844      688.931      183.034        0.150        0.067       39.742        6.982        0.031      343.330       19.366      862.623
08/15/2014  01:45:00       12.739       16.975       17.120       21.539       17.343       10.667      463.926      300.780      113.783        0.081        0.044       21.223       11.364        0.287      343.157       19.071      862.613
08/15/2014  01:46:00       17.679       19.135       14.609       21.206       16.898        9.594      449.705      285.527       92.042        0.086        0.041       26.052        8.980        0.119      343.136       19.036      862.607
08/15/2014  01:47:00       32.758        9.780        7.711       11.071        8.024       10.054      122.574       64.391      101.090        0.076        0.014       34.187        1.285        0.001      343.161       19.078      862.611
08/15/2014  01:48:00        2.666       -8.350        7.987        7.956       12.261        9.267       63.296      150.324       85.873        0.022        0.015        8.765        4.134        0.222      343.199       19.141      862.630
08/15/2014  01:49:00       -4.637      -26.974       -9.488       13.482       13.532        9.759      181.773      183.110       95.247        0.065        0.023       27.369        4.797        0.031      343.310       19.331      862.658
08/15/2014  01:50:00      -22.798        1.395        0.949       11.377       11.325        6.812      129.429      128.249       46.399        0.041        0.015       22.841        6.115        0.072      343.240       19.214      862.677
08/15/2014  01:51:00      -22.237       10.066        5.128       13.147        6.297        5.426      172.833       39.656       29.437        0.043        0.012       24.409        2.899        0.014      343.346       19.394      862.681
08/15/2014  01:52:00       -7.344       -9.529        5.324       15.038        8.662        6.601      226.150       75.038       43.573        0.026        0.017       12.031        8.569        0.507      343.271       19.267      862.673
08/15/2014  01:53:00       -7.365       -7.130        1.120        8.137       12.518        7.963       66.206      156.692       63.407        0.020        0.014       10.251        8.415        0.674      343.229       19.195      862.661
08/15/2014  01:54:00        1.253       10.541        8.456       14.449       11.325        8.057      208.773      128.264       64.916        0.029        0.020       10.615       10.978        1.070      343.255       19.239      862.654
08/15/2014  01:55:00       32.350       26.380       24.921       12.683        9.045        8.374      160.853       81.817       70.127        0.134        0.016       41.742        4.106        0.010      343.204       19.149      862.646
08/15/2014  01:56:00       27.465       23.231       26.165       20.001       15.890       10.506      400.055      252.477      110.367        0.137        0.038       35.972        8.946        0.062      343.230       19.196      862.647
08/15/2014  01:57:00       41.443       38.689       30.633       11.665       12.925       10.013      136.082      167.059      100.259        0.228        0.020       56.695        6.048        0.011      343.245       19.221      862.643
08/15/2014  01:58:00       42.300       30.507       12.471       12.131        9.567       11.913      147.157       91.537      141.931        0.163        0.019       52.153        5.745        0.012      343.183       19.115      862.655
08/15/2014  01:59:00       -0.034        8.697        4.656       42.905       11.125        9.603     1840.866      123.765       92.224        0.108        0.103        8.698       13.002        2.235      343.250       19.227      862.668
08/15/2014  02:00:00      -34.558       28.876       -1.197       25.810       10.828       12.062      666.173      117.251      145.480        0.148        0.046       45.034        9.537        0.045      343.056       18.899      862.691
08/15/2014  02:01:00       80.730       45.907       16.712       43.795       21.153       18.082     1918.022      447.442      326.960        0.580        0.135       92.870       13.457        0.021      343.042       18.874      862.687
08/15/2014  02:02:00       88.270       63.303       48.485       50.654       35.940       36.821     2565.826     1291.650     1355.821        0.968        0.261      108.623       28.840        0.070      343.047       18.883      862.676
08/15/2014  02:03:00       24.903       37.475       49.768       35.459       24.623       18.057     1257.376      606.301      326.062        0.335        0.109       44.995       13.614        0.092      342.985       18.778      862.701
08/15/2014  02:04:00       19.842      -10.880       -1.031       15.451       25.038       23.899      238.722      626.880      571.163        0.097        0.072       22.629        6.570        0.084      343.109       18.989      862.713
08/15/2014  02:05:00      -27.136       23.237       -2.397       26.243       32.815       12.377      688.706     1076.811      153.184        0.160        0.096       35.725        9.320        0.068      343.106       18.986      862.720
08/15/2014  02:06:00        1.639      -34.585        6.095       22.698       33.213       13.984      515.219     1103.123      195.544        0.152        0.091       34.624       11.688        0.114      343.067       18.917      862.715
08/15/2014  02:07:00        9.850       18.223       19.088       16.802       32.751       13.714      282.302     1072.634      188.075        0.117        0.077       20.715        6.001        0.084      342.964       18.743      862.712
08/15/2014  02:08:00       -0.432       23.191       22.006        9.061       13.673       10.078       82.109      186.963      101.562        0.070        0.019       23.195        6.406        0.076      342.929       18.684      862.720
08/15/2014  02:09:00       17.067       13.041       12.211       12.121       10.952       10.349      146.929      119.942      107.098        0.049        0.019       21.479        7.680        0.128      342.960       18.734      862.718
08/15/2014  02:10:00       25.467       23.264       28.417       16.248       14.031       16.284      264.004      196.873      265.153        0.136        0.036       34.493       10.884        0.100      342.898       18.630      862.715
08/15/2014  02:11:00       38.507       30.832       18.034       21.101       24.756       14.166      445.268      612.867      200.689        0.201        0.063       49.329        5.252        0.011      342.997       18.797      862.702
08/15/2014  02:12:00       49.470       57.870       52.596       27.256       26.765       16.407      742.864      716.339      269.195        0.515        0.086       76.133       10.773        0.020      343.022       18.842      862.707
08/15/2014  02:13:00      103.676       84.577       57.099       32.504       17.961       30.328     1056.484      322.609      919.816        1.173        0.115      133.798       16.360        0.015      343.127       19.019      862.693
08/15/2014  02:14:00       66.408       35.664       50.244       53.123       35.683       25.501     2822.065     1273.272      650.279        0.648        0.237       75.378       17.859        0.056      343.143       19.046      862.686
08/15/2014  02:15:00       12.632       -4.953       28.317       27.794       30.031       26.913      772.517      901.871      724.314        0.169        0.120       13.569       24.373        3.227      343.177       19.106      862.699
08/15/2014  02:16:00        1.147      -67.642        9.467       18.496       27.397       16.880      342.104      750.602      284.943        0.302        0.069       67.651        6.887        0.010      343.225       19.187      862.709
08/15/2014  02:17:00       34.207      -72.554       -5.428       25.716       28.229       17.451      661.320      796.872      304.541        0.411        0.088       80.213       10.429        0.017      343.196       19.139      862.717
08/15/2014  02:18:00       26.122      -66.536        0.815       23.426       31.777       20.174      548.798     1009.775      406.978        0.354        0.098       71.480       16.865        0.056      343.152       19.063      862.734
08/15/2014  02:19:00      -36.210      -36.968       -9.625       21.272       17.263        9.662      452.516      297.998       93.363        0.181        0.042       51.747        5.145        0.010      343.018       18.835      862.756
08/15/2014  02:20:00      -36.341       -6.799        1.038       27.108       14.406       11.911      734.843      207.524      141.876        0.123        0.054       36.972       14.943        0.163      342.915       18.660      862.764
08/15/2014  02:21:00      -18.276      -24.854        0.860       19.866       17.064       11.785      394.671      291.181      138.885        0.089        0.041       30.850       15.038        0.238      342.900       18.634      862.764
08/15/2014  02:22:00      -28.031      -11.934       -6.174       16.538        8.925        5.972      273.503       79.657       35.661        0.068        0.019       30.466        4.704        0.024      342.919       18.665      862.773
08/15/2014  02:23:00      -37.676        1.477       -5.783       24.350        8.298        5.477      592.908       68.862       29.993        0.107        0.035       37.705        8.851        0.055      342.958       18.733      862.768
08/15/2014  02:24:00      -59.464       14.654       -9.657       38.801        7.689        6.056     1505.554       59.118       36.676        0.272        0.080       61.243        3.407        0.003      343.027       18.848      862.766
08/15/2014  02:25:00       30.875       14.243        3.905       11.400        6.395        8.186      129.971       40.900       67.013        0.070        0.012       34.002        6.270        0.034      343.304       19.321      862.749
08/15/2014  02:26:00      -16.716       -6.796       -4.952       20.349        9.112        8.424      414.070       83.035       70.969        0.046        0.028       18.045       11.382        0.398      343.166       19.086      862.756
08/15/2014  02:27:00       -9.821       -8.051        4.376       17.437       18.138        8.584      304.037      328.991       73.680        0.044        0.035       12.699        7.522        0.351      342.950       18.719      862.770
08/15/2014  02:28:00       23.143       39.745       27.231       31.481       19.411       12.815      991.067      376.785      164.214        0.219        0.077       45.992       17.001        0.137      342.929       18.684      862.779
08/15/2014  02:29:00       49.274       45.804       10.015       21.148       14.657       12.733      447.217      214.824      162.124        0.273        0.041       67.275        5.881        0.008      342.794       18.452      862.773
08/15/2014  02:30:00      -11.731        3.187        8.148       12.132       20.411       14.148      147.187      416.590      200.164        0.049        0.038       12.156       11.788        0.940      342.756       18.388      862.778
08/15/2014  02:31:00      -22.237        9.132       -4.552       21.288       14.913        7.020      453.187      222.384       49.285        0.066        0.036       24.039        7.459        0.096      342.891       18.617      862.785
08/15/2014  02:32:00       34.471       19.445        1.213       15.687       13.608       14.233      246.090      185.180      202.590        0.110        0.032       39.577       10.262        0.067      342.839       18.531      862.770
08/15/2014  02:33:00       29.435       24.368        3.457       16.817       14.431       14.034      282.802      208.260      196.959        0.108        0.034       38.213       10.106        0.070      342.737       18.356      862.782
08/15/2014  02:34:00       48.615       18.736        9.848       22.213       14.548       12.790      493.430      211.646      163.583        0.184        0.043       52.100        8.631        0.027      342.709       18.309      862.785
08/15/2014  02:35:00       66.802       34.013       26.492       29.933       21.410       20.971      895.982      458.401      439.776        0.406        0.090       74.963       13.118        0.031      342.766       18.405      862.781
08/15/2014  02:36:00       35.322       66.149       62.258       40.600       33.851       23.409     1648.369     1145.884      547.996        0.642        0.167       74.989       22.281        0.088      342.822       18.500      862.777
08/15/2014  02:37:00        6.944        5.382       42.532       18.778       18.631       17.825      352.609      347.120      317.739        0.145        0.051        8.786       16.193        3.397      342.756       18.389      862.783
08/15/2014  02:38:00       11.252      -41.788        8.954       23.430       22.507       18.334      548.952      506.580      336.124        0.167        0.070       43.276       15.003        0.120      342.927       18.679      862.788
08/15/2014  02:39:00       -5.856      -24.054        1.592       12.694       25.404        8.268      161.128      645.357       68.353        0.074        0.044       24.756        3.983        0.026      342.875       18.591      862.803
08/15/2014  02:40:00       -5.233      -10.949        4.072        6.178        8.920        6.817       38.171       79.571       46.472        0.016        0.008       12.135        2.421        0.040      342.791       18.448      862.815
08/15/2014  02:41:00       18.718       -3.698        0.669       12.970       13.796       15.276      168.213      190.320      233.349        0.048        0.030       19.079        8.218        0.186      342.845       18.540      862.818
08/15/2014  02:42:00       15.945        5.782        7.848       16.249       14.800       11.039      264.033      219.042      121.871        0.048        0.030       16.961        7.983        0.222      342.796       18.456      862.804
08/15/2014  02:43:00       48.008       18.136        7.804       20.539       23.874       20.605      421.850      569.958      424.577        0.206        0.071       51.320       11.213        0.048      342.729       18.343      862.794
08/15/2014  02:44:00       62.223       39.292       24.390       31.580       23.590       23.062      997.277      556.488      531.842        0.405        0.104       73.590        6.745        0.008      342.757       18.390      862.802
08/15/2014  02:45:00       40.701       58.199       50.258       34.827       24.094       20.974     1212.949      580.529      439.925        0.490        0.112       71.019       15.856        0.050      342.782       18.434      862.830
08/15/2014  02:46:00      115.091       44.835       21.876       43.425       36.897       33.735     1885.687     1361.394     1138.060        1.006        0.219      123.516       29.218        0.056      342.884       18.605      862.844
08/15/2014  02:47:00      139.772       63.251       11.267       45.486       26.902       22.031     2069.000      723.744      485.345        1.347        0.164      153.418       16.655        0.012      342.789       18.445      862.848
08/15/2014  02:48:00      106.835       38.200       33.123       55.776       35.967       39.204     3110.982     1293.650     1536.945        0.995        0.297      113.460       31.414        0.077      342.758       18.392      862.828
08/15/2014  02:49:00      115.283       50.739       20.681       63.173       39.714       30.211     3990.797     1577.230      912.729        1.139        0.324      125.955       18.567        0.022      342.756       18.386      862.814
08/15/2014  02:50:00       32.838        4.283       22.193       48.359       21.358       20.613     2338.619      456.157      424.916        0.240        0.161       33.116       20.063        0.367      342.672       18.247      862.838
08/15/2014  02:51:00       30.164       18.725       12.129       29.711       16.221       10.596      882.768      263.127      112.275        0.133        0.063       35.503        7.034        0.039      342.601       18.123      862.878
08/15/2014  02:52:00       75.439       41.424        5.272       15.715       12.533       13.662      246.971      157.088      186.657        0.401        0.030       86.064        7.596        0.008      342.586       18.101      862.877
08/15/2014  02:53:00       57.220       51.849       42.008       27.912       19.017       27.470      779.071      361.634      754.577        0.481        0.095       77.217       23.062        0.089      342.624       18.164      862.872
08/15/2014  02:54:00       -5.287       22.250       51.233       13.818       24.494       19.356      190.946      599.979      374.669        0.216        0.058       22.870       17.150        0.562      342.697       18.287      862.867
08/15/2014  02:55:00       40.761       45.503       30.696       40.720       15.129       16.088     1658.147      228.890      258.837        0.341        0.107       61.090       17.358        0.081      342.773       18.417      862.874
08/15/2014  02:56:00      108.691       52.560       19.336       13.613       10.484       12.628      185.327      109.906      159.463        0.770        0.023      120.732        6.768        0.003      342.857       18.560      862.890
08/15/2014  02:57:00       99.459       54.954       30.588       25.104       19.014       21.673      630.188      361.539      469.720        0.765        0.073      113.631       18.941        0.028      342.715       18.317      862.884
08/15/2014  02:58:00      105.280       48.280       11.253       37.158       32.467       22.707     1380.738     1054.109      515.629        0.825        0.148      115.823       11.828        0.010      342.781       18.430      862.883
08/15/2014  02:59:00       77.167       32.907        5.681       31.490       22.680       18.257      991.609      514.404      333.321        0.445        0.092       83.891       14.726        0.031      342.781       18.429      862.892
08/15/2014  03:00:00      130.083       78.493       -2.412       22.231       18.868       15.143      494.204      355.987      229.310        1.208        0.054      151.930       10.722        0.005      342.906       18.643      862.889
08/15/2014  03:01:00       76.404       45.588       -3.894       31.469       21.729       17.315      990.278      472.148      299.801        0.485        0.088       88.971        6.715        0.006      342.905       18.641      862.893
08/15/2014  03:02:00       46.186       30.882        3.306       14.970       12.956       11.759      224.097      167.857      138.262        0.181        0.027       55.559        6.534        0.014      342.803       18.468      862.893
08/15/2014  03:03:00       97.287       56.610       15.844       36.778       26.204       22.537     1352.631      686.652      507.923        0.773        0.127      112.559       15.808        0.020      342.819       18.497      862.867
08/15/2014  03:04:00       69.297       70.404       41.632       44.724       27.795       26.475     2000.253      772.544      700.911        0.748        0.174       98.786       16.657        0.028      342.903       18.639      862.852
08/15/2014  03:05:00      -39.258      -37.929       -2.711       29.636       22.708       22.384      878.270      515.646      501.038        0.244        0.095       54.587       18.642        0.117      342.820       18.498      862.886
08/15/2014  03:06:00      -34.940      -18.042       -8.111       22.182       24.717        8.707      492.024      610.935       75.818        0.140        0.059       39.323        9.412        0.057      342.770       18.413      862.915
08/15/2014  03:07:00      -35.185       15.274       -6.315       11.212       10.128        7.659      125.709      102.576       58.665        0.090        0.014       38.357        5.029        0.017      342.660       18.225      862.926
08/15/2014  03:08:00      -16.837        1.038       -0.091       11.084        3.975        5.664      122.857       15.801       32.076        0.023        0.009       16.869        6.384        0.143      342.647       18.204      862.927
08/15/2014  03:09:00       -5.497      -14.957       -4.625       14.149       16.768        7.351      200.204      281.178       54.031        0.041        0.027       15.935        8.397        0.278      342.741       18.363      862.929
08/15/2014  03:10:00       -3.307      -16.644        2.080       11.259       14.994       10.915      126.761      224.833      119.147        0.038        0.024       16.970       11.544        0.463      342.739       18.361      862.931
08/15/2014  03:11:00       87.783       37.710       28.610       46.456       23.611       21.175     2158.115      557.480      448.384        0.655        0.158       95.540       11.492        0.014      342.715       18.318      862.907
08/15/2014  03:12:00       48.585       72.456       71.644       40.067       36.919       27.444     1605.402     1363.043      753.160        0.823        0.186       87.238       26.985        0.096      342.896       18.627      862.893
08/15/2014  03:13:00       15.036       88.859       90.866       26.670       34.560       22.991      711.281     1194.390      528.592        0.941        0.122       90.123       18.900        0.044      342.843       18.536      862.900
08/15/2014  03:14:00        7.771       86.629      104.642       38.292       47.693       17.788     1466.246     2274.615      316.413        1.129        0.203       86.977       16.246        0.035      342.797       18.459      862.909
08/15/2014  03:15:00        3.453       47.384       65.780       23.051       30.546       20.733      531.361      933.036      429.868        0.424        0.095       47.510       16.456        0.120      342.796       18.455      862.939
08/15/2014  03:16:00        2.296       17.512       13.134       21.525       27.348       24.620      463.328      747.905      606.127        0.115        0.091       17.662       22.287        1.592      342.715       18.318      862.980
08/15/2014  03:17:00      -59.194      -23.914       -1.245       20.112       27.514       11.205      404.511      757.019      125.545        0.268        0.064       63.842        7.519        0.014      342.566       18.065      862.998
08/15/2014  03:18:00      -19.471      -57.753      -10.968       24.263       18.204       25.287      588.691      331.397      639.421        0.270        0.078       60.947       15.098        0.061      342.760       18.395      862.998
08/15/2014  03:19:00       21.617      -16.166       13.446       24.458       31.723       18.854      598.183     1006.342      355.457        0.143        0.098       26.994       13.760        0.260      342.709       18.308      862.982
08/15/2014  03:20:00       56.083       29.205       18.506       19.815       22.486       18.640      392.642      505.621      347.464        0.279        0.062       63.232       10.384        0.027      342.631       18.175      862.964
08/15/2014  03:21:00       42.332       23.778        1.596       16.250       12.853       15.317      264.060      165.191      234.602        0.151        0.033       48.553        8.486        0.031      342.541       18.022      862.972
08/15/2014  03:22:00       16.758       -7.202        1.602       20.299       23.629       14.556      412.063      558.353      211.865        0.076        0.059       18.240        9.091        0.248      342.543       18.027      862.997
08/15/2014  03:23:00        9.837      -34.903        2.830       15.875       12.901       10.007      252.011      166.429      100.136        0.092        0.026       36.263        7.942        0.048      342.678       18.256      863.021
08/15/2014  03:24:00       28.815       23.210        9.881       17.835       13.460       12.841      318.084      181.165      164.888        0.107        0.033       37.001        7.916        0.046      342.539       18.018      863.033
08/15/2014  03:25:00       84.934       56.983       17.093       21.440       14.568       19.596      459.653      212.241      384.000        0.590        0.053      102.278       16.757        0.027      342.468       17.898      863.019
08/15/2014  03:26:00       92.088       61.578       22.572       31.299       19.961       20.912      979.621      398.445      437.306        0.730        0.091      110.780       14.866        0.018      342.522       17.991      863.007
08/15/2014  03:27:00       46.730       47.891       39.682       30.099       26.879       31.063      905.975      722.494      964.899        0.432        0.130       66.912       26.301        0.155      342.498       17.949      863.018
08/15/2014  03:28:00       47.416       41.995       30.030       16.178       23.347       23.157      261.724      545.103      536.267        0.313        0.067       63.339       17.565        0.077      342.525       17.997      863.046
08/15/2014  03:29:00       17.766       41.144       45.862       21.762       22.625       14.003      473.591      511.871      196.093        0.265        0.059       44.816        6.508        0.021      342.473       17.906      863.065
08/15/2014  03:30:00       11.853        7.078       35.004       21.338       31.194       22.281      455.302      973.093      496.445        0.167        0.096       13.805       13.938        1.019      342.444       17.857      863.087
08/15/2014  03:31:00        5.264       36.924       58.807       28.617       29.439       21.674      818.938      866.676      469.764        0.350        0.108       37.298       13.594        0.133      342.458       17.881      863.108
08/15/2014  03:32:00       13.340       15.391       49.375       34.764       37.444       30.175     1208.504     1402.050      910.510        0.319        0.176       20.368       23.292        1.308      342.490       17.935      863.113
08/15/2014  03:33:00        3.233       41.036       62.001       22.465       26.054       15.515      504.672      678.817      240.704        0.348        0.071       41.163       14.885        0.131      342.526       17.999      863.096
08/15/2014  03:34:00        4.584       -3.580       18.051       20.780       32.606       20.474      431.799     1063.140      419.181        0.114        0.096        5.817       19.786       11.571      342.502       17.958      863.083
08/15/2014  03:35:00       10.796      -17.991       -6.318       15.739       26.307       13.697      247.709      692.075      187.604        0.080        0.056       20.982       14.265        0.462      342.467       17.898      863.094
08/15/2014  03:36:00        6.278       17.597        8.177       16.886        6.986        6.012      285.146       48.804       36.144        0.039        0.019       18.683        6.640        0.126      342.436       17.844      863.109
08/15/2014  03:37:00       27.915       28.049        2.366       10.182       17.505       10.730      103.681      306.434      115.139        0.105        0.026       39.573        9.052        0.052      342.311       17.631      863.110
08/15/2014  03:38:00       35.793       15.428        1.765       24.413       17.114       10.424      595.990      292.906      108.650        0.126        0.050       38.976        6.738        0.030      342.172       17.397      863.100
08/15/2014  03:39:00       -6.064       -1.453       -0.310       10.810       11.355        8.079      116.865      128.930       65.263        0.017        0.016        6.235        4.362        0.489      342.064       17.214      863.113
08/15/2014  03:40:00      -18.829       21.623       -7.383        7.511        9.042        5.149       56.418       81.758       26.510        0.052        0.008       28.672        4.162        0.021      342.333       17.669      863.133
08/15/2014  03:41:00      -42.236       24.899       -7.176        8.486       10.704        7.042       72.018      114.584       49.590        0.135        0.012       49.029        5.071        0.011      342.289       17.593      863.155
08/15/2014  03:42:00      -54.128        1.558       -6.700       14.376       20.152        8.918      206.679      406.121       79.540        0.183        0.035       54.151        5.938        0.012      342.203       17.450      863.169
08/15/2014  03:43:00      -82.379      -16.475       -3.446       19.352       18.337       10.187      374.490      336.252      103.765        0.394        0.041       84.010        8.455        0.010      342.180       17.409      863.161
08/15/2014  03:44:00      -55.599       28.186       -7.772       13.353       14.760        7.760      178.305      217.871       60.223        0.220        0.023       62.336        4.798        0.006      342.185       17.419      863.134
08/15/2014  03:45:00      -15.458       62.334       -9.843       13.088        8.502        6.737      171.302       72.292       45.391        0.226        0.014       64.222        3.477        0.003      342.535       18.012      863.105
08/15/2014  03:46:00      -34.101       33.398       -8.720       26.251       14.760        6.656      689.140      217.852       44.308        0.165        0.048       47.732        6.273        0.017      342.465       17.892      863.114
08/15/2014  03:47:00      -97.205      -16.343       -7.460       26.106       24.097       20.078      681.536      580.659      403.107        0.572        0.083       98.569       15.573        0.025      342.255       17.538      863.154
08/15/2014  03:48:00     -113.978      -16.096      -10.715       36.151       34.418       29.255     1306.867     1184.598      855.828        0.836        0.167      115.109       18.752        0.027      342.212       17.463      863.169
08/15/2014  03:49:00      -19.623       -2.248        6.500       16.258       12.644        8.836      264.332      159.863       78.076        0.047        0.025       19.752        5.780        0.086      342.189       17.426      863.160
08/15/2014  03:50:00       -6.864      -53.487       -1.379       19.666       35.914       17.027      386.756     1289.800      289.930        0.244        0.098       53.926       11.180        0.043      342.315       17.638      863.153
08/15/2014  03:51:00       -6.199      -54.013       -7.954       23.461       28.952       11.851      550.441      838.223      140.446        0.227        0.076       54.367       10.967        0.041      342.369       17.730      863.153
08/15/2014  03:52:00      -37.654      -29.345       -2.668       28.233       20.965       12.344      797.082      439.550      152.366        0.184        0.069       47.739        9.617        0.041      342.440       17.851      863.156
08/15/2014  03:53:00      -62.220       12.150       -3.784       21.382       19.277       10.199      457.205      371.595      104.027        0.248        0.047       63.395       10.782        0.029      342.212       17.462      863.141
08/15/2014  03:54:00      -63.041       20.803       -4.192       31.407       21.902       15.565      986.376      479.696      242.272        0.307        0.085       66.385       14.934        0.051      342.110       17.290      863.128
08/15/2014  03:55:00      -70.306       -7.364      -11.427       27.206       39.744       13.126      740.179     1579.546      172.302        0.381        0.125       70.691        9.641        0.019      342.079       17.239      863.141
08/15/2014  03:56:00      -62.676      -44.646        3.341       34.451       21.197       15.152     1186.899      449.316      229.591        0.390        0.093       76.951       13.894        0.033      342.067       17.218      863.164
08/15/2014  03:57:00       11.364      -24.429       -4.866       11.709       11.779        7.381      137.108      138.749       54.483        0.054        0.017       26.943        5.428        0.041      342.177       17.405      863.194
08/15/2014  03:58:00      -11.150      -22.322       -9.059       16.884       13.973        6.454      285.078      195.231       41.650        0.061        0.026       24.952        3.936        0.025      342.194       17.434      863.206
08/15/2014  03:59:00      -14.525      -17.934       -4.624       12.038       11.815       10.931      144.911      139.590      119.495        0.048        0.020       23.079        9.708        0.177      342.200       17.445      863.216
08/15/2014  04:00:00       13.816      -50.586       -7.821       27.525       25.121       19.314      757.601      631.051      373.035        0.229        0.088       52.439       17.429        0.110      342.252       17.531      863.222
08/15/2014  04:01:00       21.650      -58.709      -11.580       23.864       23.712       16.288      569.481      562.254      265.288        0.272        0.070       62.574       10.025        0.026      342.265       17.553      863.232
08/15/2014  04:02:00        1.867      -45.238      -11.184       13.716       19.210        9.949      188.124      369.021       98.976        0.142        0.033       45.277        7.983        0.031      342.320       17.645      863.245
08/15/2014  04:03:00      -71.445        9.703       -9.343       21.210        9.500        8.484      449.848       90.258       71.980        0.295        0.031       72.101        8.437        0.014      342.241       17.513      863.250
08/15/2014  04:04:00      -66.154       14.956      -10.830        9.130       10.086        6.481       83.355      101.722       41.999        0.247        0.011       67.823        5.093        0.006      342.244       17.516      863.234
08/15/2014  04:05:00      -52.190       19.920      -10.037        8.015       10.664        5.556       64.235      113.729       30.864        0.172        0.010       55.863        2.638        0.002      342.218       17.473      863.211
08/15/2014  04:06:00      -34.538      -11.085      -14.876       10.150        9.646        7.316      103.030       93.038       53.520        0.089        0.012       36.273        3.233        0.008      342.147       17.353      863.204
08/15/2014  04:07:00      -38.872       -2.886      -14.445        9.087       10.598        7.274       82.572      112.314       52.906        0.099        0.012       38.979        3.732        0.009      342.176       17.402      863.207
08/15/2014  04:08:00      -32.460       31.515       -7.854        4.904       18.256        5.068       24.048      333.275       25.685        0.125        0.019       45.242        2.245        0.002      342.440       17.851      863.211
08/15/2014  04:09:00      -25.286       56.562       -8.761       10.488       11.813        7.011      109.995      139.551       49.161        0.211        0.015       61.957        5.904        0.009      342.471       17.904      863.226
08/15/2014  04:10:00      -15.911       26.533       -3.288       12.290        9.310        7.328      151.046       86.681       53.696        0.063        0.015       30.939        4.514        0.021      342.229       17.492      863.252
08/15/2014  04:11:00        3.749        3.793        4.866        8.929        6.941        5.614       79.727       48.171       31.515        0.011        0.008        5.333        5.235        0.964      342.138       17.340      863.275
08/15/2014  04:12:00       -2.668       -3.161       -3.884        7.506        8.554        5.267       56.334       73.173       27.746        0.009        0.008        4.137        3.886        0.882      342.208       17.457      863.291
08/15/2014  04:13:00       10.650        3.222       -2.475       10.086        6.040        7.458      101.727       36.480       55.621        0.016        0.010       11.126        3.761        0.114      342.187       17.420      863.311
08/15/2014  04:14:00       27.339        9.911        4.465        9.283       10.172        7.494       86.175      103.459       56.164        0.056        0.012       29.080        4.485        0.024      342.144       17.349      863.320
08/15/2014  04:15:00       16.220       16.547        0.026        9.984        7.729        4.145       99.679       59.732       17.180        0.036        0.009       23.171        4.614        0.040      342.164       17.384      863.319
08/15/2014  04:16:00      -11.528       53.752       -7.190       16.172       15.801        6.042      261.531      249.680       36.511        0.181        0.027       54.974        7.492        0.019      342.418       17.813      863.304
08/15/2014  04:17:00      -37.506       45.441       -9.473       16.215       33.992       10.894      262.940     1155.439      118.673        0.255        0.077       58.920       10.731        0.033      342.250       17.527      863.288
08/15/2014  04:18:00      -54.536       38.159      -10.773       15.227       19.080       11.911      231.863      364.058      141.863        0.264        0.037       66.561        9.178        0.019      341.907       16.946      863.273
08/15/2014  04:19:00      -56.210       28.899      -10.293       21.039       17.901       16.943      442.649      320.435      287.063        0.258        0.053       63.204       12.967        0.042      341.784       16.737      863.265
08/15/2014  04:20:00      -47.430       11.822       -1.844       16.216       23.183       14.859      262.946      537.463      220.785        0.171        0.051       48.881       14.976        0.094      341.825       16.806      863.272
08/15/2014  04:21:00      -41.434       10.471       -9.379       15.878       14.667       14.320      252.124      215.125      205.070        0.129        0.034       42.736        9.020        0.045      341.916       16.961      863.273
08/15/2014  04:22:00      -32.832        9.160       -5.253       18.544       19.111       10.138      343.883      365.232      102.778        0.100        0.041       34.086        6.037        0.031      341.934       16.992      863.260
08/15/2014  04:23:00      -70.032       61.151      -15.997       15.374       20.453       12.196      236.359      418.335      148.734        0.485        0.040       92.973       10.450        0.013      342.074       17.230      863.256
08/15/2014  04:24:00      -61.225       12.002       -9.749       18.623       37.689       11.810      346.828     1420.452      139.471        0.295        0.095       62.391       13.439        0.046      341.910       16.951      863.259
08/15/2014  04:25:00      -73.648      -36.776       -7.125       21.330       17.243       12.067      454.978      297.321      145.604        0.386        0.045       82.319        6.819        0.007      341.639       16.492      863.289
08/15/2014  04:26:00      -35.269      -29.553        1.295       32.041       22.999       19.222     1026.596      528.948      369.502        0.202        0.096       46.014       10.406        0.051      341.679       16.558      863.325
08/15/2014  04:27:00       -4.697      -16.858       -1.978       21.994       12.512       13.870      483.722      156.538      192.374        0.057        0.042       17.500       12.340        0.497      341.686       16.572      863.349
08/15/2014  04:28:00       55.763       12.684        8.727       21.894        8.752       11.833      479.366       76.593      140.028        0.202        0.035       57.187        9.293        0.026      342.052       17.192      863.364
08/15/2014  04:29:00       39.747       23.220       -6.775       19.070       26.533       11.099      363.666      703.975      123.192        0.168        0.060       46.032       11.587        0.063      342.366       17.725      863.374
08/15/2014  04:30:00       20.664       -1.508       -5.826       14.318       14.181       11.048      204.992      201.092      122.053        0.050        0.026       20.719        3.318        0.026      342.160       17.376      863.389
08/15/2014  04:31:00      -27.497      -12.581       -7.366       25.107       16.583       10.817      630.385      275.012      117.005        0.100        0.051       30.238        4.127        0.019      341.897       16.930      863.395
08/15/2014  04:32:00      -87.126       22.794      -13.614       45.598       30.407       20.465     2079.218      924.604      418.834        0.586        0.171       90.058       24.459        0.074      341.581       16.392      863.406
08/15/2014  04:33:00     -142.076       34.967       -8.729       50.029       33.086       20.070     2502.933     1094.672      402.811        1.274        0.200      146.315       12.393        0.007      341.736       16.655      863.417
08/15/2014  04:34:00      -75.568       -2.366      -11.111       14.114       24.929       12.368      199.217      621.456      152.968        0.341        0.049       75.605       11.642        0.024      341.675       16.552      863.427
08/15/2014  04:35:00      -59.241       -9.906       -8.635       16.379       19.614       12.861      268.286      384.726      165.413        0.225        0.041       60.064        8.491        0.020      341.653       16.514      863.440
08/15/2014  04:36:00      -28.420       -6.676      -10.538       18.388       16.896       13.589      338.115      285.471      184.649        0.089        0.040       29.193       10.414        0.127      341.711       16.613      863.444
08/15/2014  04:37:00      -14.591       14.814       -7.311       22.726       21.204        7.536      516.481      449.621       56.792        0.075        0.051       20.793        8.870        0.182      341.843       16.837      863.450
08/15/2014  04:38:00       -6.410       37.993       -9.356       22.517       19.838        8.609      507.016      393.532       74.107        0.127        0.049       38.530        9.552        0.061      342.157       17.371      863.456
08/15/2014  04:39:00       18.116       21.519        3.637       14.013       16.373       11.700      196.355      268.072      136.896        0.070        0.030       28.130        9.351        0.111      342.180       17.409      863.468
08/15/2014  04:40:00        6.070       28.339       -4.451       11.572       19.688        7.873      133.910      387.598       61.986        0.072        0.029       28.982        4.212        0.021      342.222       17.479      863.468
08/15/2014  04:41:00       -5.697       35.146       -3.238       24.450       17.461        8.880      597.794      304.893       78.846        0.113        0.049       35.605        7.027        0.039      342.343       17.686      863.471
08/15/2014  04:42:00       14.906       20.592        1.166       14.174       11.974        7.380      200.891      143.372       54.462        0.052        0.020       25.421        8.207        0.104      342.228       17.491      863.465
08/15/2014  04:43:00      -27.587      -10.650       -1.914       14.805       18.930       14.041      219.174      358.360      197.160        0.083        0.039       29.571       13.366        0.204      341.910       16.951      863.460
08/15/2014  04:44:00      -53.805      -38.213      -13.388       11.912       10.664        8.139      141.901      113.724       66.242        0.243        0.016       65.994        3.834        0.003      341.687       16.574      863.465
08/15/2014  04:45:00      -81.926      -31.044      -17.489       13.791        9.479        6.950      190.196       89.852       48.309        0.415        0.016       87.610        3.440        0.002      341.591       16.411      863.478
08/15/2014  04:46:00      -87.772      -17.151      -11.878       16.198       15.198        9.092      262.386      230.970       82.672        0.436        0.029       89.432        5.314        0.004      341.589       16.408      863.491
08/15/2014  04:47:00      -74.322       -1.621      -14.247       18.138        6.416        8.877      328.980       41.165       78.806        0.309        0.022       74.339        8.608        0.013      341.620       16.459      863.498
08/15/2014  04:48:00       -7.115       -4.219       -4.069       17.911        9.222        7.431      320.803       85.038       55.225        0.027        0.023        8.272        7.052        0.727      341.953       17.024      863.490
08/15/2014  04:49:00       10.646       -1.632        0.688        8.572       12.601        8.683       73.484      158.783       75.394        0.021        0.015       10.771        8.667        0.648      341.903       16.939      863.488
08/15/2014  04:50:00      -27.293      -22.416        0.007       22.643       10.122        8.093      512.705      102.448       65.496        0.096        0.034       35.318        9.059        0.066      341.999       17.101      863.499
08/15/2014  04:51:00      -16.773       -6.247       -1.433       19.128       11.445        5.810      365.872      130.985       33.753        0.043        0.027       17.898        5.024        0.079      342.028       17.152      863.492
08/15/2014  04:52:00       90.957       28.738        9.647       33.338       16.936       13.664     1111.443      286.821      186.696        0.539        0.079       95.389        8.537        0.008      342.384       17.754      863.457
08/15/2014  04:53:00      109.075       34.609       18.533       29.238       27.411       25.533      854.865      751.337      651.938        0.785        0.113      114.434       20.622        0.032      342.099       17.272      863.421
08/15/2014  04:54:00      -16.132       10.784       25.272       42.311       31.706       30.815     1790.256     1005.276      949.575        0.238        0.187       19.405       28.218        2.115      341.946       17.011      863.432
08/15/2014  04:55:00     -173.984       36.112      -23.575       66.667       42.252       28.794     4444.466     1785.219      829.103        1.959        0.353      177.693       24.523        0.019      341.453       16.173      863.442
08/15/2014  04:56:00     -217.216       40.661      -17.543       57.978       41.984       31.933     3361.495     1762.693     1019.708        2.764        0.307      220.989       30.796        0.019      341.466       16.194      863.431
08/15/2014  04:57:00     -120.510       33.442       -6.455       59.646       43.604       29.597     3557.641     1901.339      875.968        1.101        0.317      125.064       24.517        0.038      341.484       16.229      863.427
08/15/2014  04:58:00      -54.398       79.406      -18.253       57.937       31.849       18.052     3356.712     1014.388      325.873        0.715        0.235       96.251       18.534        0.037      341.985       17.079      863.424
08/15/2014  04:59:00       45.142       82.558       -3.960       25.653       34.001       21.745      658.087     1156.051      472.827        0.558        0.114       94.093       18.345        0.038      342.276       17.573      863.417
08/15/2014  05:00:00       32.839       27.401       -0.220       16.206       13.507       14.344      262.620      182.446      205.763        0.124        0.033       42.769        7.807        0.033      342.098       17.269      863.430
08/15/2014  05:01:00       14.893        0.036       -5.219       18.699        7.824        7.248      349.654       61.209       52.537        0.036        0.023       14.893        5.159        0.120      342.129       17.321      863.439
08/15/2014  05:02:00      -39.359      -15.783       -3.834       22.898       12.839        8.201      524.309      164.834       67.258        0.128        0.038       42.406       10.261        0.059      341.995       17.093      863.447
08/15/2014  05:03:00      -57.776      -11.407       -4.227       11.640       11.812       11.113      135.492      139.516      123.507        0.194        0.020       58.891        9.206        0.024      341.670       16.546      863.448
08/15/2014  05:04:00     -111.580        8.807      -13.761       34.787       12.966       10.238     1210.117      168.128      104.816        0.710        0.074      111.927       11.922        0.011      341.686       16.570      863.453
08/15/2014  05:05:00     -108.395       -4.117       -9.950       37.441       19.703       19.360     1401.841      388.228      374.813        0.701        0.108      108.473       17.067        0.025      341.636       16.486      863.446
08/15/2014  05:06:00      -63.419       -6.104       -3.721       28.114       29.747       15.229      790.410      884.907      231.931        0.299        0.095       63.712       10.117        0.025      341.613       16.446      863.438
08/15/2014  05:07:00      -74.067      -24.786       -5.490       16.458       16.934        9.167      270.878      286.756       84.025        0.339        0.032       78.105        6.601        0.007      341.777       16.725      863.429
08/15/2014  05:08:00      -59.433      -17.113       -6.189       12.613       15.815       10.125      159.078      250.104      102.514        0.219        0.026       61.848        7.980        0.017      341.774       16.721      863.430
08/15/2014  05:09:00      -64.812      -32.012       -0.833       21.877       17.082       12.027      478.597      291.797      144.653        0.307        0.046       72.287        8.248        0.013      341.672       16.546      863.417
08/15/2014  05:10:00      -80.357       -2.353       -6.732       37.384       22.002       16.795     1397.576      484.100      282.082        0.434        0.108       80.391       17.140        0.045      341.509       16.270      863.413
08/15/2014  05:11:00      -42.245       -7.074        0.804       25.349       19.963       15.012      642.578      398.517      225.365        0.155        0.063       42.833       14.102        0.108      341.574       16.383      863.406
08/15/2014  05:12:00        2.136        2.854       -1.055       11.179       10.979        9.309      124.967      120.542       86.650        0.017        0.017        3.565        6.347        3.169      341.605       16.433      863.396
08/15/2014  05:13:00       -5.735       -9.266       -3.481       17.770       16.932       10.552      315.790      286.676      111.351        0.042        0.036       10.897        7.542        0.479      341.920       16.968      863.401
08/15/2014  05:14:00       -7.316      -51.326       -7.935       27.263       13.360       10.700      743.283      178.492      114.500        0.189        0.052       51.845        7.526        0.021      341.847       16.843      863.415
08/15/2014  05:15:00      -64.143      -45.354        0.497       20.696       13.014       10.678      428.309      169.370      114.011        0.344        0.036       78.558        7.882        0.010      341.749       16.680      863.436
08/15/2014  05:16:00      -90.287      -44.909       -1.487       26.841       22.797       14.451      720.431      519.687      208.845        0.581        0.072      100.839       10.544        0.011      341.731       16.647      863.459
08/15/2014  05:17:00      -87.827      -51.940       -3.819       27.092       18.984       18.314      733.970      360.393      335.403        0.593        0.071      102.036       15.170        0.022      341.544       16.329      863.467
08/15/2014  05:18:00      -68.334      -39.323       -3.599       21.956       25.593       15.333      482.079      654.993      235.112        0.380        0.069       78.841       10.017        0.016      341.517       16.282      863.480
08/15/2014  05:19:00      -90.635      -16.847       -9.294       25.308       19.965       14.640      640.477      398.609      214.339        0.492        0.063       92.188       13.210        0.021      341.510       16.273      863.478
08/15/2014  05:20:00     -105.721      -18.831       -0.919       42.646       26.117       21.320     1818.651      682.108      454.546        0.724        0.148      107.385       16.623        0.024      341.353       16.006      863.465
08/15/2014  05:21:00     -112.616       -2.312       -7.270       45.676       33.215       17.500     2086.257     1103.235      306.267        0.812        0.175      112.640       17.038        0.023      341.346       15.995      863.453
08/15/2014  05:22:00      -68.420       10.326       -7.680       23.406       22.590       18.741      547.839      510.286      351.219        0.313        0.070       69.195       12.107        0.031      341.576       16.385      863.440
08/15/2014  05:23:00      -29.322        1.949       -7.542       27.747       14.123       10.201      769.912      199.466      104.067        0.100        0.054       29.387        7.275        0.061      341.845       16.842      863.435
08/15/2014  05:24:00       -0.153        1.937       -3.376       15.120        9.054        7.077      228.603       81.969       50.089        0.019        0.018        1.943        6.890       12.569      341.933       16.990      863.440
08/15/2014  05:25:00      -75.209      -28.149       -6.290       39.904       27.551       13.540     1592.337      759.042      183.329        0.451        0.127       80.304        8.904        0.012      341.770       16.712      863.453
08/15/2014  05:26:00     -113.673      -50.174       -5.147       24.327       15.523       11.103      591.785      240.971      123.276        0.821        0.048      124.253        8.262        0.004      341.525       16.297      863.460
08/15/2014  05:27:00     -120.903      -39.932       -9.923       18.941       22.076       10.238      358.778      487.328      104.817        0.863        0.048      127.326        9.057        0.005      341.452       16.174      863.456
08/15/2014  05:28:00     -111.989      -61.562       -3.297       27.692       22.994       17.813      766.852      528.720      317.316        0.898        0.081      127.794       10.597        0.007      341.414       16.109      863.459
08/15/2014  05:29:00      -95.182      -47.515        5.870       42.976       30.301       20.908     1846.895      918.143      437.162        0.728        0.160      106.383       17.574        0.027      341.377       16.046      863.460
08/15/2014  05:30:00      -80.819      -34.428       -4.920       17.676       14.345       10.999      312.439      205.772      120.975        0.419        0.032       87.846        8.591        0.010      341.541       16.325      863.458
08/15/2014  05:31:00      -63.091        2.813       -3.906       10.196       13.207        9.039      103.950      174.421       81.699        0.218        0.018       63.154        7.016        0.012      341.695       16.586      863.450
08/15/2014  05:32:00      -77.193        3.397      -10.896       11.771        9.057        6.374      138.549       82.023       40.624        0.318        0.013       77.267        2.689        0.001      341.749       16.679      863.447
08/15/2014  05:33:00      -78.508      -30.525       -9.278       18.455       15.144       10.658      340.603      229.350      113.586        0.393        0.034       84.233        8.641        0.011      341.718       16.627      863.456
08/15/2014  05:34:00      -83.721      -50.311       -2.458       31.763       19.124       13.417     1008.893      365.709      180.005        0.555        0.078       97.675        5.700        0.003      341.608       16.438      863.470
08/15/2014  05:35:00      -72.810      -58.267       -6.139       39.604       23.801       16.786     1568.454      566.467      281.758        0.557        0.121       93.254        7.776        0.007      341.545       16.332      863.481
08/15/2014  05:36:00      -66.076      -44.133        1.307       29.720       23.618       14.478      883.302      557.826      209.622        0.398        0.083       79.459       14.180        0.032      341.449       16.169      863.477
08/15/2014  05:37:00      -72.193      -13.888       -3.221       20.205       23.705       11.474      408.249      561.934      131.660        0.326        0.055       73.516       10.057        0.019      341.387       16.064      863.455
08/15/2014  05:38:00      -69.113       31.445       -9.870       27.097       31.913       19.132      734.237     1018.447      366.018        0.399        0.106       75.931       16.584        0.048      341.480       16.223      863.422
08/15/2014  05:39:00      -66.252       65.740      -13.552       20.879       20.333       13.931      435.945      413.415      194.086        0.497        0.052       93.333       11.912        0.016      341.730       16.645      863.391
08/15/2014  05:40:00      -24.773        2.684       -5.870       15.067       23.566       10.913      227.025      555.335      119.098        0.078        0.045       24.918       12.563        0.254      341.682       16.565      863.401
08/15/2014  05:41:00      -23.763      -28.009        7.086       26.997       26.572       26.300      728.836      706.087      691.708        0.176        0.106       36.731       25.977        0.500      341.523       16.293      863.430
08/15/2014  05:42:00        3.033      -36.342       -2.435       18.280       26.244       12.989      334.176      688.773      168.719        0.126        0.060       36.468       10.905        0.089      341.498       16.251      863.461
08/15/2014  05:43:00       18.194       -5.847       22.081       13.476       11.743       13.327      181.598      137.889      177.608        0.067        0.025       19.111        7.978        0.174      341.448       16.167      863.467
08/15/2014  05:44:00      -15.332      -30.573        2.903       20.142       11.543       11.290      405.687      133.239      127.454        0.092        0.033       34.202        9.277        0.074      341.468       16.201      863.477
08/15/2014  05:45:00      -60.127      -33.172       -3.517       23.101       17.355       12.643      533.670      301.180      159.847        0.286        0.050       68.670        9.524        0.019      341.417       16.114      863.472
08/15/2014  05:46:00      -66.039      -25.541       -6.865       17.469       17.515       10.526      305.164      306.772      110.805        0.289        0.036       70.806        5.890        0.007      341.340       15.983      863.476
08/15/2014  05:47:00      -36.456       57.012       -8.905       15.359       50.437       12.896      235.889     2543.846      166.311        0.380        0.147       67.671       19.817        0.086      341.316       15.946      863.476
08/15/2014  05:48:00        5.883       39.989       -1.844       40.382       28.234       18.169     1630.708      797.131      330.097        0.220        0.138       40.419       15.081        0.139      341.144       15.655      863.485
08/15/2014  05:49:00       18.314       30.688       -7.218       17.075       21.376       13.842      291.552      456.938      191.609        0.113        0.047       35.738       11.742        0.108      341.084       15.552      863.508
08/15/2014  05:50:00       -8.268       28.516       -7.781        7.595       20.888        5.039       57.680      436.323       25.388        0.073        0.026       29.691        3.840        0.017      341.396       16.080      863.545
08/15/2014  05:51:00      -62.537      -18.451       -9.773       32.107       16.634        9.688     1030.850      276.687       93.859        0.287        0.070       65.202        7.673        0.014      341.306       15.928      863.562
08/15/2014  05:52:00     -101.611      -20.701       -3.520       33.820       25.556       18.005     1143.761      653.127      324.167        0.644        0.106      103.698       17.447        0.028      341.063       15.518      863.566
08/15/2014  05:53:00      -93.388        6.254       -8.315       34.158       33.114       21.232     1166.735     1096.557      450.798        0.577        0.136       93.597       20.108        0.046      341.011       15.426      863.560
08/15/2014  05:54:00      -77.078       11.808       -6.532       25.806       14.812       10.739      665.946      219.409      115.331        0.356        0.050       77.977        4.622        0.004      341.151       15.665      863.563
08/15/2014  05:55:00      -26.690       -5.539       -8.033       12.672       11.249        8.324      160.583      126.538       69.294        0.058        0.018       27.259        1.412        0.003      341.327       15.962      863.588
08/15/2014  05:56:00       -8.697      -22.530       -5.653        7.315        6.797        7.528       53.510       46.198       56.677        0.039        0.008       24.150        3.997        0.027      341.460       16.188      863.596
08/15/2014  05:57:00      -44.934      -19.975       -3.674       23.872        8.938        9.254      569.870       79.886       85.634        0.158        0.037       49.173       13.398        0.074      341.445       16.162      863.604
08/15/2014  05:58:00      -76.775      -20.711      -12.840        7.753        9.921        7.616       60.116       98.420       58.003        0.335        0.011       79.519        2.451        0.001      341.360       16.021      863.604
08/15/2014  05:59:00      -67.585      -28.248       -8.495        7.042        5.349        5.233       49.594       28.608       27.386        0.277        0.005       73.250        2.476        0.001      341.382       16.056      863.604
08/15/2014  06:00:00      -51.729      -25.463       -7.914       10.119        7.390        5.661      102.396       54.618       32.050        0.179        0.009       57.656        4.510        0.006      341.497       16.251      863.612
08/15/2014  06:01:00      -29.817      -22.991       -6.354       11.033        5.815        5.958      121.720       33.819       35.497        0.082        0.010       37.651        2.740        0.005      341.554       16.347      863.608
08/15/2014  06:02:00       -2.423      -12.718       -0.799        4.702        9.135        3.499       22.107       83.453       12.241        0.014        0.006       12.947        1.728        0.018      341.545       16.330      863.602
08/15/2014  06:03:00      -15.116       -8.881       -5.106       13.317        8.424        2.918      177.339       70.969        8.516        0.030        0.013       17.532        3.953        0.051      341.582       16.394      863.599
08/15/2014  06:04:00      -64.782       -5.735       -6.726       26.426       16.019       12.142      698.319      256.593      147.423        0.269        0.055       65.035       13.113        0.041      341.342       15.988      863.602
08/15/2014  06:05:00      -62.482       -2.257       -1.755       23.274       14.677       12.937      541.669      215.427      167.355        0.242        0.046       62.523       13.522        0.047      341.191       15.733      863.605
08/15/2014  06:06:00      -69.374       -6.403      -10.881       22.451       14.420       11.986      504.067      207.933      143.669        0.291        0.043       69.669        9.553        0.019      341.285       15.893      863.615
08/15/2014  06:07:00      -30.976      -25.022       -6.139       13.233       11.799        8.767      175.113      139.217       76.865        0.101        0.020       39.820        4.359        0.012      341.325       15.961      863.616
08/15/2014  06:08:00      -18.784       -7.117       -1.971        5.857        8.321        4.000       34.300       69.238       15.999        0.026        0.006       20.087        2.246        0.013      341.328       15.964      863.620
08/15/2014  06:09:00       -6.647       -1.495       -0.281        4.525        4.162        2.100       20.479       17.320        4.408        0.004        0.002        6.814        0.937        0.019      341.329       15.965      863.630
08/15/2014  06:10:00        7.743       14.010        3.934       12.274        8.442        6.985      150.642       71.273       48.786        0.027        0.014       16.007        6.902        0.186      341.205       15.756      863.646
08/15/2014  06:11:00      -17.267       12.603       -6.974       15.690       11.734        5.863      246.189      137.690       34.377        0.046        0.021       21.377        5.246        0.060      341.240       15.815      863.666
08/15/2014  06:12:00       -6.987      -20.805       -3.384        4.348       20.073        6.325       18.905      402.933       40.002        0.048        0.023       21.947        3.386        0.024      341.280       15.880      863.695
08/15/2014  06:13:00       -9.026      -45.327       -8.808        8.207       11.696        6.630       67.362      136.793       43.956        0.123        0.012       46.217        3.335        0.005      341.371       16.036      863.718
08/15/2014  06:14:00       -2.118      -33.692       -2.686       16.869       14.223       12.217      284.556      202.292      149.245        0.089        0.032       33.759       10.175        0.091      341.397       16.081      863.731
08/15/2014  06:15:00      -19.966      -18.438        6.314       24.696       16.332       14.589      609.899      266.731      212.836        0.093        0.054       27.177       12.449        0.210      341.282       15.887      863.748
08/15/2014  06:16:00      -29.955      -28.379        4.112       21.256       22.825       11.698      451.821      520.969      136.851        0.141        0.055       41.263        9.940        0.058      341.252       15.837      863.757
08/15/2014  06:17:00      -14.464      -24.694        3.929       21.696       13.920       13.420      470.697      193.774      180.092        0.084        0.042       28.618       14.226        0.247      341.245       15.825      863.769
08/15/2014  06:18:00      -10.217      -11.762        7.986       21.542       17.218       15.110      464.076      296.458      228.309        0.065        0.049       15.580       13.519        0.753      341.263       15.854      863.787
08/15/2014  06:19:00      -57.673      -55.920        3.729       42.972       21.979       21.404     1846.620      483.055      458.135        0.463        0.139       80.332       20.307        0.064      341.266       15.859      863.806
08/15/2014  06:20:00     -104.081      -86.659        2.108       32.939       30.353       18.650     1085.008      921.278      347.824        1.035        0.118      135.435       16.865        0.016      341.256       15.843      863.821
08/15/2014  06:21:00     -109.327      -58.228       -7.525       46.126       26.001       15.557     2127.598      676.072      242.021        0.922        0.152      123.866       15.211        0.015      341.208       15.763      863.827
08/15/2014  06:22:00      -66.979      -40.216       -2.634       17.302       21.621       12.156      299.369      467.483      147.779        0.351        0.046       78.125        4.414        0.003      341.141       15.648      863.825
08/15/2014  06:23:00      -64.182      -12.340       -3.623       14.254       15.188       10.090      203.186      230.670      101.809        0.241        0.027       65.357        7.284        0.012      341.021       15.444      863.830
08/15/2014  06:24:00      -46.744      -27.236        2.570       17.185       15.208        8.451      295.326      231.281       71.415        0.177        0.030       54.100        8.069        0.022      341.139       15.644      863.838
08/15/2014  06:25:00      -10.965      -71.587       -8.210       15.269       14.951       16.438      233.149      223.529      270.192        0.302        0.036       72.422       10.981        0.023      341.354       16.008      863.859
08/15/2014  06:26:00      -31.228      -55.475       -2.271       18.016       26.491       14.045      324.589      701.763      197.276        0.264        0.061       63.660        3.573        0.003      341.341       15.987      863.873
08/15/2014  06:27:00       -2.929      -52.327        0.306       11.267       18.028        9.431      126.937      325.014       88.947        0.164        0.027       52.409        5.550        0.011      341.380       16.052      863.892
08/15/2014  06:28:00      -45.907      -59.080       -1.507       37.585       21.529       11.187     1412.607      463.482      125.147        0.380        0.100       74.819       10.885        0.021      341.451       16.172      863.897
08/15/2014  06:29:00      -24.550      -34.708        9.168       21.844       15.300       15.150      477.180      234.102      229.508        0.142        0.047       42.513        9.544        0.050      341.406       16.096      863.901
08/15/2014  06:30:00      -37.309      -21.363        3.389       24.941       16.836       10.648      622.068      283.464      113.375        0.144        0.051       42.993       10.354        0.058      341.234       15.805      863.904
08/15/2014  06:31:00      -62.800      -27.459       -3.643       15.731       17.959        8.349      247.480      322.534       69.700        0.268        0.032       68.540        4.874        0.005      341.223       15.786      863.894
08/15/2014  06:32:00     -102.501      -45.874       -6.462       49.983       40.939       15.961     2498.257     1675.998      254.738        0.854        0.221      112.298       16.834        0.022      341.068       15.524      863.893
08/15/2014  06:33:00     -148.704      -42.847       -4.282       47.766       26.646       18.883     2281.624      710.013      356.584        1.366        0.167      154.753        6.224        0.002      340.847       15.149      863.896
08/15/2014  06:34:00      -64.497       -8.035       -1.184       25.496       22.866       15.446      650.053      522.864      238.569        0.282        0.071       64.996       13.878        0.046      340.858       15.170      863.901
08/15/2014  06:35:00      -45.760       -6.300       -2.255       23.676       16.354       14.160      560.557      267.461      200.493        0.158        0.051       46.192       13.412        0.084      340.878       15.202      863.915
08/15/2014  06:36:00      -74.773      -15.142       -1.689       20.327       14.718       11.239      413.192      216.607      126.326        0.329        0.038       76.291        9.058        0.014      341.020       15.442      863.924
08/15/2014  06:37:00      -70.254      -11.647       -3.878       13.891       15.960       10.072      192.973      254.709      101.437        0.282        0.027       71.213        8.787        0.015      341.060       15.512      863.931
08/15/2014  06:38:00      -62.309      -32.728       -7.461       10.022       14.444        8.381      100.447      208.630       70.234        0.269        0.019       70.381        6.836        0.009      341.184       15.722      863.937
08/15/2014  06:39:00      -29.032       -7.410        0.458       11.807       11.093        8.630      139.408      123.061       74.476        0.062        0.017       29.963        5.543        0.034      341.162       15.685      863.946
08/15/2014  06:40:00      -56.217      -20.451       -5.746       18.874       10.425        9.403      356.229      108.674       88.409        0.208        0.028       59.822        8.900        0.022      341.192       15.735      863.955
08/15/2014  06:41:00      -69.370      -12.578       -7.643       13.807       13.124       11.229      190.637      172.236      126.086        0.276        0.024       70.502        8.021        0.013      341.079       15.544      863.965
08/15/2014  06:42:00      -72.351      -21.405       -6.368       13.137       14.938       12.046      172.579      223.134      145.106        0.314        0.027       75.451        8.614        0.013      341.022       15.445      863.964
08/15/2014  06:43:00      -70.373      -13.221       -2.380       16.874       18.609       10.659      284.740      346.309      113.611        0.294        0.037       71.604        7.665        0.011      340.978       15.371      863.957
08/15/2014  06:44:00      -50.179        0.909       -6.914        9.394       11.612        8.430       88.244      134.832       71.058        0.143        0.015       50.187        5.843        0.014      340.934       15.299      863.951
08/15/2014  06:45:00      -39.815        1.113       -8.847       16.861       10.494       10.723      284.285      110.117      114.987        0.109        0.025       39.830        9.127        0.053      341.066       15.522      863.956
08/15/2014  06:46:00      -43.195      -11.509      -10.253       16.439       19.109       12.179      270.238      365.136      148.329        0.144        0.039       44.703        5.119        0.013      341.186       15.725      863.986
08/15/2014  06:47:00       -4.811      -12.354        0.706       14.632       15.501       17.774      214.106      240.290      315.933        0.047        0.039       13.258       12.934        0.952      341.237       15.811      864.023
08/15/2014  06:48:00      -50.117      -33.747        3.792       44.091       28.280       18.231     1944.057      799.783      332.385        0.337        0.154       60.421       17.587        0.085      341.143       15.652      864.072
08/15/2014  06:49:00      -40.385      -33.696        3.047       37.029       24.008       18.084     1371.172      576.400      327.041        0.252        0.114       52.597       19.579        0.139      341.128       15.625      864.118
08/15/2014  06:50:00      -64.376      -37.738        0.219       26.999       27.460       18.146      728.948      754.042      329.262        0.369        0.091       74.622       11.447        0.024      341.223       15.787      864.131
08/15/2014  06:51:00      -59.108      -44.769       -0.137       24.879       26.913       16.765      618.952      724.324      281.079        0.356        0.081       74.148       12.294        0.027      341.250       15.834      864.132
08/15/2014  06:52:00      -77.676      -15.707       -5.450       13.417       13.491       10.440      180.010      181.998      108.994        0.339        0.024       79.248        7.561        0.009      341.337       15.980      864.133
08/15/2014  06:53:00      -95.901        8.560       -6.256       12.419       15.734       10.573      154.240      247.568      111.781        0.491        0.026       96.283        7.648        0.006      341.315       15.941      864.119
08/15/2014  06:54:00      -84.493       17.500       -3.382       16.636       15.515       10.672      276.751      240.729      113.893        0.404        0.032       86.287        7.672        0.008      341.359       16.017      864.114
08/15/2014  06:55:00      -69.219      -10.460       -4.830       13.557       13.476       10.480      183.804      181.599      109.828        0.270        0.024       70.005        7.759        0.012      341.340       15.982      864.113
08/15/2014  06:56:00      -45.056       -0.205        1.818       16.407       15.155       11.709      269.174      229.660      137.104        0.133        0.032       45.056       10.516        0.054      341.336       15.978      864.106
08/15/2014  06:57:00      -44.121       10.211       -5.935        7.749        8.308        5.953       60.050       69.016       35.439        0.113        0.008       45.287        3.026        0.004      341.484       16.229      864.102
08/15/2014  06:58:00      -38.329        0.567       -3.258        8.970       14.927        5.757       80.455      222.826       33.145        0.091        0.017       38.333        2.890        0.006      341.576       16.386      864.105
08/15/2014  06:59:00      -21.642      -19.407       -5.259       11.037        8.310        7.225      121.813       69.061       52.194        0.056        0.012       29.069        3.947        0.018      341.575       16.382      864.115
08/15/2014  07:00:00       -5.868      -22.057       -1.081        7.136        7.544        7.241       50.920       56.915       52.437        0.034        0.008       22.825        4.984        0.048      341.645       16.501      864.128
08/15/2014  07:01:00      -12.679      -13.853        4.263       12.555        8.798        6.882      157.635       77.398       47.363        0.033        0.014       18.779        5.503        0.086      341.713       16.618      864.146
08/15/2014  07:02:00      -20.398        1.151        0.571        8.656        7.403        5.331       74.926       54.810       28.417        0.029        0.008       20.430        4.316        0.045      341.676       16.554      864.148
08/15/2014  07:03:00      -28.155      -11.833       -2.558        6.423        9.474        6.061       41.251       89.759       36.730        0.055        0.008       30.541        4.175        0.019      341.770       16.713      864.166
08/15/2014  07:04:00      -10.817      -13.904        0.346        8.012       12.849        6.230       64.187      165.085       38.809        0.029        0.013       17.616        3.297        0.035      341.873       16.889      864.170
08/15/2014  07:05:00      -12.532      -10.479       15.278       24.507       14.633       13.707      600.609      214.126      187.882        0.075        0.050       16.335       16.145        0.977      341.967       17.049      864.187
08/15/2014  07:06:00      -28.513      -32.016        3.322       29.421       17.042       14.753      865.569      290.420      217.651        0.161        0.069       42.873        9.857        0.053      341.645       16.501      864.192
08/15/2014  07:07:00      -41.459      -37.115        3.612       20.607       25.000       13.970      424.656      625.017      195.166        0.218        0.062       55.645       14.483        0.068      341.816       16.792      864.199
08/15/2014  07:08:00      -44.524      -34.038        1.345       16.682       13.731        7.711      278.289      188.552       59.456        0.183        0.026       56.044        7.936        0.020      341.845       16.839      864.192
08/15/2014  07:09:00      -34.165       -0.041       -1.644        8.961        9.205        4.795       80.303       84.737       22.990        0.068        0.009       34.165        3.971        0.014      341.893       16.920      864.172
08/15/2014  07:10:00      -29.709       22.950        2.486        7.609        9.856       10.431       57.891       97.132      108.812        0.084        0.013       37.541        6.701        0.032      342.089       17.254      864.169
08/15/2014  07:11:00      -31.309       31.317       -6.468        9.271        9.270        8.310       85.957       85.932       69.050        0.112        0.012       44.283        6.014        0.018      342.001       17.104      864.161
08/15/2014  07:12:00      -40.238       15.799       -9.837        8.187        7.446        5.585       67.034       55.444       31.195        0.106        0.008       43.229        4.753        0.012      341.960       17.036      864.172
08/15/2014  07:13:00      -39.982       22.073       -8.448       10.713        9.909        9.348      114.777       98.193       87.380        0.123        0.015       45.670        4.975        0.012      342.036       17.165      864.164
08/15/2014  07:14:00      -10.753       10.654       -0.047        7.980       12.581        8.485       63.675      158.277       71.995        0.026        0.015       15.137        8.056        0.283      342.257       17.539      864.172
08/15/2014  07:15:00        4.150        1.781       10.579       16.819       11.382       10.791      282.868      129.553      116.447        0.033        0.026        4.516        6.703        2.203      342.548       18.035      864.168
08/15/2014  07:16:00       24.331       15.579        6.602       15.316       13.117       15.577      234.574      172.065      242.638        0.076        0.032       28.891        8.421        0.085      342.379       17.747      864.184
08/15/2014  07:17:00       28.957       33.974       13.915       11.377       16.446       17.998      129.437      270.469      323.928        0.145        0.036       44.640        9.368        0.044      342.305       17.621      864.184
08/15/2014  07:18:00       35.890       31.352       17.616       18.503       13.657       15.078      342.345      186.505      227.342        0.167        0.038       47.655        8.039        0.028      342.350       17.698      864.191
08/15/2014  07:19:00       27.064       26.414       17.588       19.573       16.148       16.939      383.102      260.745      286.915        0.133        0.047       37.817       12.418        0.108      342.341       17.683      864.209
08/15/2014  07:20:00       14.658        8.108        7.631       16.641       10.769       14.151      276.912      115.980      200.237        0.047        0.030       16.751        5.634        0.113      342.645       18.200      864.218
08/15/2014  07:21:00      -15.730       19.492        1.494       20.450       12.234       12.086      418.184      149.663      146.070        0.067        0.036       25.048        3.587        0.021      342.398       17.782      864.230
08/15/2014  07:22:00      -24.208        5.248        0.980        9.190        6.827        5.763       84.458       46.606       33.215        0.039        0.008       24.770        5.791        0.055      342.234       17.500      864.234
08/15/2014  07:23:00        0.860       13.227       21.041       18.297       14.721       12.340      334.778      216.705      152.281        0.066        0.035       13.255        4.884        0.136      342.993       18.794      864.228
08/15/2014  07:24:00       35.108       43.355       10.816       18.921       11.260       14.860      358.000      126.797      220.833        0.197        0.035       55.787        9.281        0.028      342.318       17.645      864.212
08/15/2014  07:25:00       12.220       30.562       34.712       17.988       17.122       12.850      323.565      293.171      165.133        0.153        0.039       32.914       11.308        0.118      342.689       18.274      864.213
08/15/2014  07:26:00       -2.580        4.555       25.619        9.276       12.197       12.850       86.038      148.761      165.112        0.054        0.020        5.235       10.983        4.402      343.140       19.043      864.224
08/15/2014  07:27:00      -31.203      -22.592       -4.219       20.128       14.791        7.997      405.122      218.775       63.949        0.109        0.034       38.522        6.621        0.030      342.296       17.606      864.236
08/15/2014  07:28:00      -29.956      -22.208       -2.052       25.918       19.453       10.388      671.752      378.437      107.920        0.128        0.058       37.291        7.859        0.044      342.380       17.750      864.255
08/15/2014  07:29:00      -11.134      -11.342        9.559       15.494       15.314       15.233      240.073      234.510      232.051        0.053        0.035       15.894       10.280        0.418      342.655       18.217      864.260
08/15/2014  07:30:00      -10.859      -37.889        2.826       17.464       17.888       13.210      305.008      319.988      174.492        0.118        0.040       39.414        9.072        0.053      342.426       17.827      864.265
08/15/2014  07:31:00      -26.710      -26.650       -1.498        5.990       13.809        3.733       35.885      190.675       13.935        0.083        0.012       37.732        2.260        0.004      342.438       17.848      864.261
08/15/2014  07:32:00      -19.221       -6.446        3.452        7.477        8.929        6.998       55.911       79.724       48.972        0.030        0.009       20.273        2.602        0.016      342.602       18.127      864.255
08/15/2014  07:33:00       -5.420        3.698       24.217       23.807       28.765       20.557      566.771      827.429      422.587        0.122        0.091        6.561       16.091        6.015      343.118       19.005      864.261
08/15/2014  07:34:00        3.206      -18.994       40.108       21.504       48.898       30.690      462.438     2391.030      941.895        0.289        0.190       19.263       31.473        2.670      343.042       18.876      864.267
08/15/2014  07:35:00        6.815      -48.832       25.480       23.643       41.266       26.395      559.007     1702.897      696.677        0.302        0.148       49.306        7.826        0.025      342.947       18.715      864.279
08/15/2014  07:36:00       19.773      -33.533       19.294       22.673       48.941       24.330      514.085     2395.244      591.934        0.269        0.175       38.928       26.817        0.475      343.029       18.853      864.293
08/15/2014  07:37:00       -8.243       30.892       52.354       15.009       25.957       12.776      225.256      673.757      163.225        0.241        0.053       31.973       13.599        0.181      343.317       19.344      864.305
08/15/2014  07:38:00       -3.051       20.477       47.294       23.529       20.638       13.420      553.627      425.934      180.090        0.191        0.058       20.703        9.769        0.223      343.482       19.625      864.310
08/15/2014  07:39:00        3.793       22.778       52.266       23.279       29.277       23.883      541.903      857.171      570.409        0.262        0.098       23.091       23.977        1.078      343.168       19.089      864.323
08/15/2014  07:40:00       -0.736       10.608       31.034       13.365       27.373       25.114      178.636      749.276      630.695        0.132        0.078       10.633       17.259        2.635      343.346       19.392      864.342
08/15/2014  07:41:00        1.441      -25.106       26.713       29.177       32.546       29.452      851.289     1059.222      867.423        0.206        0.139       25.148       21.662        0.742      343.161       19.078      864.363
08/15/2014  07:42:00       -4.216      -31.546       12.030       23.508       35.987       20.607      552.643     1295.038      424.649        0.171        0.114       31.826       19.735        0.385      342.908       18.646      864.374
08/15/2014  07:43:00      -45.089       -5.777       16.487       26.940       22.803       26.026      725.766      519.976      677.336        0.213        0.096       45.458       21.487        0.223      342.784       18.435      864.385
08/15/2014  07:44:00        1.392       -1.301        8.325       20.937       12.566       16.745      438.371      157.913      280.396        0.047        0.044        1.905       10.110       28.152      343.171       19.096      864.386
08/15/2014  07:45:00      -23.899       10.149        2.173       16.276       18.647       15.657      264.900      347.692      245.140        0.077        0.043       25.964       11.718        0.204      343.039       18.870      864.392
08/15/2014  07:46:00      -27.085        5.153       -1.512       27.083       23.026       20.438      733.489      530.211      417.700        0.122        0.084       27.570       15.362        0.310      343.051       18.892      864.400
08/15/2014  07:47:00      -32.354        7.582       -7.021        9.867        8.347       14.139       97.366       69.676      199.905        0.076        0.018       33.231        6.671        0.040      342.860       18.564      864.394
08/15/2014  07:48:00      -34.935        1.899        1.629       14.098       11.678        8.563      198.764      136.372       73.331        0.082        0.020       34.987        2.305        0.004      342.741       18.362      864.411
08/15/2014  07:49:00      -23.742        4.867       13.993       20.377       14.428       16.835      415.232      208.162      283.428        0.084        0.045       24.235       12.149        0.251      343.417       19.514      864.414
08/15/2014  07:50:00      -12.979        3.354       16.485       17.380       12.346       16.376      302.078      152.415      268.173        0.059        0.036       13.405       13.494        1.013      343.560       19.759      864.427
08/15/2014  07:51:00      -37.761      -20.304        8.867       22.375       37.218       21.406      500.622     1385.166      458.198        0.213        0.117       42.874       15.180        0.125      342.873       18.587      864.442
08/15/2014  07:52:00       -4.905      -20.141       24.669       21.852       31.658       17.132      477.520     1002.221      293.515        0.141        0.089       20.729       18.247        0.775      343.349       19.398      864.442
08/15/2014  07:53:00       -7.036        4.876       27.532       24.117       23.731       28.240      581.617      563.179      797.501        0.139        0.097        8.560       11.355        1.760      343.751       20.084      864.448
08/15/2014  07:54:00        8.604        5.596       28.148       23.490       45.237       29.434      551.765     2046.377      866.346        0.218        0.173       10.264       20.795        4.105      343.521       19.691      864.455
08/15/2014  07:55:00        3.725        9.640       46.651       28.573       39.871       22.564      816.417     1589.698      509.140        0.260        0.146       10.334       18.913        3.349      343.773       20.120      864.470
08/15/2014  07:56:00       15.366        4.770       38.942       29.472       42.149       36.699      868.572     1776.569     1346.811        0.288        0.200       16.090       29.021        3.253      343.537       19.719      864.479
08/15/2014  07:57:00       26.750      -12.446       32.714       29.396       57.442       37.131      864.097     3299.608     1378.734        0.374        0.277       29.503       44.403        2.265      343.357       19.412      864.489
08/15/2014  07:58:00        5.614       10.018       49.709       30.747       53.804       31.216      945.367     2894.870      974.466        0.371        0.241       11.484       34.922        9.248      343.541       19.727      864.495
08/15/2014  07:59:00       10.896       14.089       34.496       33.082       40.342       23.061     1094.404     1627.492      531.803        0.238        0.163       17.810       18.428        1.071      343.491       19.641      864.505
08/15/2014  08:00:00      -16.067       -2.275       18.587       25.998       17.400       16.819      675.893      302.771      282.874        0.093        0.063       16.227       17.127        1.114      343.296       19.307      864.523
08/15/2014  08:01:00      -35.110      -15.418       -9.070       19.140       16.205       10.057      366.345      262.611      101.151        0.114        0.037       38.346        7.846        0.042      342.976       18.763      864.531
08/15/2014  08:02:00       -2.260        7.415       14.786       28.713       11.047       14.263      824.443      122.026      203.423        0.071        0.057        7.752       15.598        4.049      343.487       19.634      864.551
08/15/2014  08:03:00       -0.661      -33.515        8.364       20.981       29.802       22.157      440.217      888.171      490.943        0.151        0.091       33.521       13.393        0.160      343.503       19.661      864.564
08/15/2014  08:04:00       11.865        0.993       33.193       23.466       25.708       28.800      550.675      660.916      829.457        0.164        0.102       11.907       16.744        1.978      343.913       20.361      864.564
08/15/2014  08:05:00       -8.714       30.845       57.687        8.612       31.266       22.485       74.162      977.576      505.570        0.296        0.078       32.053       21.392        0.445      343.827       20.214      864.570
08/15/2014  08:06:00       35.126        9.363       57.462       33.891       51.170       34.056     1148.599     2618.319     1159.823        0.477        0.246       36.352       34.185        0.884      343.552       19.745      864.569
08/15/2014  08:07:00       86.378       60.474       48.794       25.808       30.044       33.189      666.055      902.631     1101.525        0.808        0.134      105.443       21.805        0.043      343.204       19.152      864.576
08/15/2014  08:08:00       51.142       68.478       46.861       27.300       19.483       19.661      745.301      379.602      386.557        0.551        0.076       85.467       13.272        0.024      343.138       19.040      864.572
08/15/2014  08:09:00       41.504       57.019       45.255       19.411       20.377       18.144      376.795      415.236      329.214        0.407        0.056       70.525        9.569        0.018      343.193       19.133      864.567
08/15/2014  08:10:00       51.008       51.165        4.279       17.178       11.398       19.044      295.080      129.911      362.688        0.301        0.039       72.247        8.429        0.014      342.978       18.765      864.558
08/15/2014  08:11:00       10.959       40.341        0.647       20.273       18.055       22.717      410.985      325.982      516.053        0.150        0.063       41.803        8.040        0.037      343.229       19.193      864.554
08/15/2014  08:12:00      -10.137       13.453       32.116       20.792       23.533       12.145      432.310      553.780      147.509        0.122        0.057       16.844        9.084        0.291      343.739       20.063      864.553
08/15/2014  08:13:00      -32.232       -9.547        3.586       19.424       20.423       14.705      377.299      417.083      216.235        0.108        0.051       33.616       12.547        0.139      343.372       19.438      864.565
08/15/2014  08:14:00        2.369      -17.884        5.291       14.048       10.352       12.667      197.355      107.159      160.447        0.041        0.023       18.040       10.053        0.311      343.396       19.477      864.565
08/15/2014  08:15:00      -11.768        0.908       27.823       10.638       15.872       23.701      113.176      251.913      561.742        0.092        0.046       11.803       14.235        1.454      344.017       20.540      864.565
08/15/2014  08:16:00      -37.124       12.138       20.609       17.426       11.953       11.856      303.679      142.882      140.558        0.127        0.029       39.058       10.903        0.078      343.504       19.662      864.560
08/15/2014  08:17:00      -25.757       19.816       28.657       14.015       16.462       19.274      196.416      270.989      371.475        0.136        0.042       32.498       12.927        0.158      343.819       20.201      864.563
08/15/2014  08:18:00        9.263       35.487       38.387       27.273       23.140       23.440      743.836      535.448      549.432        0.232        0.091       36.676       18.196        0.246      344.102       20.683      864.570
08/15/2014  08:19:00       66.406       35.518       14.939       36.411       27.015       29.097     1325.746      729.787      846.634        0.440        0.145       75.308       19.398        0.066      343.812       20.188      864.570
08/15/2014  08:20:00       56.910       41.665       13.677       32.282       30.240       23.471     1042.131      914.453      550.908        0.383        0.125       70.532       13.819        0.038      343.595       19.818      864.572
08/15/2014  08:21:00       82.436       46.583        4.737       39.782       33.590       36.813     1582.590     1128.273     1355.165        0.653        0.203       94.687       27.768        0.086      343.737       20.060      864.570
08/15/2014  08:22:00       68.317       59.868       19.277       42.544       36.315       31.372     1810.033     1318.799      984.175        0.637        0.206       90.837       21.091        0.054      343.664       19.935      864.565
08/15/2014  08:23:00      114.717       62.339       14.561       41.950       20.907       29.740     1759.793      437.085      884.470        1.017        0.154      130.561       14.938        0.013      343.344       19.391      864.560
08/15/2014  08:24:00       45.141       77.383       70.769       56.756       43.921       41.226     3221.229     1929.046     1699.580        0.994        0.342       89.587       35.978        0.161      343.861       20.272      864.549
08/15/2014  08:25:00       55.989       84.037       74.320       47.761       35.953       31.620     2281.086     1292.632      999.819        1.015        0.229      100.980       26.298        0.068      343.527       19.701      864.547
08/15/2014  08:26:00       52.652       78.214       69.341       47.474       25.283       18.289     2253.748      639.250      334.475        0.846        0.161       94.285       13.637        0.021      343.519       19.688      864.544
08/15/2014  08:27:00        6.258       58.473       80.404       34.931       33.320       23.889     1220.195     1110.244      570.670        0.641        0.145       58.807       22.846        0.151      343.894       20.329      864.548
08/15/2014  08:28:00       37.289       34.109       18.684       27.601       28.351       33.443      761.806      803.773     1118.464        0.279        0.134       50.536       15.377        0.093      343.570       19.775      864.561
08/15/2014  08:29:00       -0.897       18.057       -3.203       27.962       21.007       16.641      781.862      441.296      276.922        0.092        0.075       18.079        8.979        0.247      343.552       19.745      864.579
08/15/2014  08:30:00       -8.186       -1.960        8.905       16.046       13.932       17.623      257.473      194.106      310.564        0.046        0.038        8.417       11.743        1.946      344.032       20.564      864.592
08/15/2014  08:31:00        9.185       19.579       37.646       16.849       21.401       15.402      283.887      458.020      237.207        0.143        0.049       21.626        8.262        0.146      344.316       21.049      864.592
08/15/2014  08:32:00       63.065       36.532       13.434       34.074       26.449       27.647     1161.038      699.535      764.337        0.406        0.131       72.882       21.998        0.091      343.718       20.027      864.590
08/15/2014  08:33:00       36.610       82.872       59.892       39.688       41.567       31.916     1575.102     1727.809     1018.652        0.806        0.216       90.598       29.744        0.108      343.947       20.418      864.578
08/15/2014  08:34:00       34.190       15.755       25.827       28.052       30.700       27.635      786.899      942.474      763.698        0.229        0.125       37.646       18.026        0.229      343.962       20.443      864.592
08/15/2014  08:35:00       45.385       33.322        7.081       31.397       21.442       22.642      985.741      459.765      512.662        0.259        0.098       56.304       13.638        0.059      343.906       20.348      864.585
08/15/2014  08:36:00       72.294       70.484       -0.074       32.380       32.070       31.778     1048.434     1028.479     1009.810        0.664        0.154      100.967       26.117        0.067      343.726       20.040      864.588
08/15/2014  08:37:00       70.704       61.724        0.599       32.330       24.690       17.697     1045.220      609.612      313.195        0.539        0.098       93.856       15.613        0.028      343.634       19.884      864.591
08/15/2014  08:38:00       41.267       52.779        7.040       31.026       28.618       19.977      962.631      819.008      399.061        0.336        0.109       66.997       10.489        0.025      343.755       20.091      864.589
08/15/2014  08:39:00       36.488       50.885       16.604       30.008       27.673       26.189      900.456      765.803      685.870        0.327        0.118       62.615       21.835        0.122      343.979       20.473      864.593
08/15/2014  08:40:00       39.737       21.581       15.531       38.039       37.118       21.777     1446.955     1377.745      474.236        0.279        0.165       45.219       18.921        0.175      344.162       20.787      864.593
08/15/2014  08:41:00       13.691        9.078       46.794       38.025       47.473       25.221     1445.928     2253.677      636.119        0.340        0.217       16.428       16.105        0.961      344.364       21.130      864.599
08/15/2014  08:42:00        6.687       32.111       52.973       25.426       39.224       27.041      646.461     1538.504      731.217        0.340        0.146       32.800       22.878        0.486      344.205       20.860      864.586
08/15/2014  08:43:00        0.363       14.365       51.930       19.586       45.122       15.623      383.615     2036.039      244.080        0.278        0.133       14.370       16.472        1.314      344.416       21.219      864.581
08/15/2014  08:44:00       94.608       54.934       19.233       75.388       37.402       43.223     5683.296     1398.898     1868.201        1.064        0.448      109.400       45.264        0.171      343.962       20.445      864.586
08/15/2014  08:45:00      114.667       66.063       -2.109       27.111       21.085       21.893      734.992      444.567      479.290        0.959        0.083      132.336       16.287        0.015      343.549       19.740      864.590
08/15/2014  08:46:00       83.039       59.611       11.546       28.283       19.277       22.371      799.951      371.596      500.454        0.613        0.084      102.220       10.277        0.010      343.633       19.883      864.589
08/15/2014  08:47:00       18.939       18.695       26.365       39.654       42.592       34.028     1572.423     1814.057     1157.894        0.297        0.227       26.612       26.031        0.957      344.334       21.079      864.588
08/15/2014  08:48:00       40.663      -43.096       20.962       32.055       44.408       40.220     1027.521     1972.109     1617.682        0.428        0.231       59.251       35.192        0.353      344.235       20.910      864.590
08/15/2014  08:49:00       46.233       43.644       37.078       51.658       40.916       27.622     2668.595     1674.136      762.972        0.526        0.255       63.579       29.854        0.220      344.489       21.345      864.596
08/15/2014  08:50:00       78.977       68.833       11.228       43.475       43.751       31.784     1890.048     1914.127     1010.212        0.796        0.241      104.763       17.686        0.029      343.986       20.486      864.593
08/15/2014  08:51:00       72.255       53.160       16.254       41.509       45.512       26.333     1723.014     2071.333      693.421        0.640        0.224       89.704       19.452        0.047      344.297       21.016      864.590
08/15/2014  08:52:00       40.977       19.035       24.596       45.556       41.555       25.939     2075.374     1726.777      672.848        0.356        0.224       45.182       23.458        0.270      344.473       21.317      864.601
08/15/2014  08:53:00       17.751       -1.484       15.575       62.524       36.969       39.761     3909.279     1366.742     1580.948        0.371        0.343       17.813       34.030        3.650      344.224       20.892      864.607
08/15/2014  08:54:00       31.790       -9.256       39.834       41.691       70.072       31.822     1738.107     4910.110     1012.633        0.517        0.383       33.110       27.187        0.674      344.354       21.113      864.612
08/15/2014  08:55:00       18.717       48.307       17.004       23.131       27.374       32.025      535.053      749.353     1025.608        0.264        0.116       51.806       19.731        0.145      344.274       20.974      864.610
08/15/2014  08:56:00       -0.761        5.202       47.304       19.129       25.354       18.896      365.925      642.846      357.065        0.182        0.068        5.257       10.540        4.019      344.855       21.969      864.620
08/15/2014  08:57:00      -14.502      -15.696       18.939       15.079       18.763       17.880      227.364      352.045      319.694        0.086        0.045       21.370       12.075        0.319      344.619       21.566      864.622
08/15/2014  08:58:00        7.422       12.612       27.806       29.764       41.482       25.785      885.893     1720.777      664.876        0.213        0.164       14.634       18.990        1.684      344.635       21.594      864.627
08/15/2014  08:59:00      -41.465       -5.631        0.967       36.563       24.869       19.016     1336.845      618.458      361.616        0.203        0.116       41.846       17.643        0.178      344.276       20.979      864.621
08/15/2014  09:00:00       26.253      -64.360      -10.986       37.674       35.989       29.268     1419.335     1295.221      856.594        0.426        0.179       69.509       23.528        0.115      344.340       21.090      864.621
08/15/2014  09:01:00        1.883      -35.845       20.309       32.973       57.547       37.028     1087.212     3311.624     1371.059        0.373        0.288       35.894       40.118        1.249      344.355       21.115      864.611
08/15/2014  09:02:00       10.720       36.916       34.081       21.892       27.577       32.600      479.269      760.479     1062.782        0.247        0.115       38.441       22.383        0.339      344.847       21.958      864.593
08/15/2014  09:03:00      -11.701       28.271        9.189       19.249       17.025       18.344      370.523      289.843      336.513        0.101        0.050       30.597       12.845        0.176      344.667       21.648      864.589
08/15/2014  09:04:00      -10.337       21.654       49.957       18.386       27.714       24.539      338.058      768.083      602.173        0.239        0.085       23.995       20.758        0.748      345.048       22.300      864.564
08/15/2014  09:05:00       64.202       32.872       45.838       76.317       41.062       36.788     5824.285     1686.104     1353.344        0.808        0.443       72.128       40.004        0.308      344.808       21.890      864.558
08/15/2014  09:06:00       90.176       45.721       31.063       68.385       41.977       53.452     4676.494     1762.056     2857.141        1.024        0.465      101.105       42.960        0.181      344.582       21.503      864.546
08/15/2014  09:07:00      133.284       96.815       33.796       43.598       30.123       49.677     1900.803      907.374     2467.789        1.678        0.264      164.736       14.825        0.008      344.079       20.642      864.539
08/15/2014  09:08:00      102.549       75.996       19.598       31.499       28.037       32.050      992.201      786.065     1027.194        0.974        0.140      127.639       15.475        0.015      344.223       20.889      864.543
08/15/2014  09:09:00      103.680       89.674       38.513       46.710       35.366       38.116     2181.815     1250.772     1452.855        1.258        0.244      137.081       23.445        0.029      344.310       21.037      864.534
08/15/2014  09:10:00       45.744       86.042       68.379       41.961       34.514       34.451     1760.744     1191.186     1186.901        0.915        0.207       97.446       23.207        0.057      344.333       21.076      864.527
08/15/2014  09:11:00       65.815       79.023       65.651       49.051       37.076       44.234     2405.991     1374.603     1956.681        1.031        0.287      102.841       31.551        0.094      344.287       20.999      864.524
08/15/2014  09:12:00       54.210       57.793       16.913       37.637       34.629       35.473     1416.557     1199.198     1258.320        0.522        0.194       79.238       21.586        0.074      344.279       20.985      864.523
08/15/2014  09:13:00       53.057       45.518        3.994       33.507       23.887       31.374     1122.723      570.608      984.327        0.379        0.134       69.907       17.475        0.062      344.453       21.282      864.521
08/15/2014  09:14:00       39.132        8.495       31.645       41.774       47.834       34.264     1745.027     2288.072     1174.004        0.390        0.260       40.044       31.685        0.626      344.818       21.906      864.516
08/15/2014  09:15:00       30.833       14.314       36.447       36.445       39.553       21.553     1328.235     1564.405      464.537        0.292        0.168       33.993       13.194        0.151      344.871       21.999      864.523
08/15/2014  09:16:00      119.504       33.379       28.138       44.110       32.219       37.978     1945.671     1038.088     1442.302        1.031        0.221      124.078       25.316        0.042      344.490       21.346      864.528
08/15/2014  09:17:00       32.627      -32.487       33.563       44.274      100.287       34.149     1960.166    10057.515     1166.163        0.821        0.659       46.043       23.553        0.262      344.792       21.862      864.516
08/15/2014  09:18:00       86.087      110.763       84.624       65.751       43.539       49.583     4323.133     1895.672     2458.446        1.776        0.434      140.283       47.901        0.117      344.653       21.625      864.515
08/15/2014  09:19:00        4.046       16.687       66.083       22.345       61.742       30.771      499.287     3812.096      946.834        0.496        0.263       17.170       36.388        4.491      344.933       22.104      864.521
08/15/2014  09:20:00       28.021       25.780       51.450       51.869       36.832       25.184     2690.409     1356.593      634.221        0.439        0.234       38.076       22.905        0.362      345.314       22.757      864.533
08/15/2014  09:21:00      104.823       83.824       43.356       50.903       28.664       36.808     2591.123      821.602     1354.809        1.233        0.238      134.218       31.198        0.054      344.547       21.443      864.537
08/15/2014  09:22:00       16.028       37.429       75.629       30.363       60.938       32.749      921.911     3713.444     1072.524        0.654        0.285       40.716       25.004        0.377      345.251       22.649      864.551
08/15/2014  09:23:00       69.899      110.237       93.800       58.919       46.063       45.399     3471.461     2121.759     2061.055        1.674        0.383      130.531       31.449        0.058      344.756       21.799      864.544
08/15/2014  09:24:00      116.625       80.741        7.851       40.376       40.909       27.772     1630.205     1673.547      771.298        1.213        0.204      141.847       30.228        0.045      344.106       20.690      864.557
08/15/2014  09:25:00       65.527       58.374       13.506       44.449       34.949       35.040     1975.673     1221.462     1227.833        0.615        0.221       87.758       12.084        0.019      344.643       21.608      864.543
08/15/2014  09:26:00      109.238       71.045        5.835       32.885       25.030       25.244     1081.408      626.500      637.278        0.968        0.117      130.309       11.346        0.008      344.344       21.097      864.540
08/15/2014  09:27:00       59.972       19.316        7.083       29.577       22.885       26.064      874.790      523.712      679.350        0.305        0.104       63.006       11.882        0.036      344.479       21.329      864.526
08/15/2014  09:28:00       38.300       44.253       -6.109       38.355       38.148       30.551     1471.128     1455.286      933.370        0.366        0.193       58.525       16.092        0.076      344.627       21.582      864.510
08/15/2014  09:29:00        4.214       72.854        0.264       32.035       52.256       29.119     1026.244     2730.735      847.923        0.496        0.230       72.975       30.295        0.172      344.936       22.109      864.494
08/15/2014  09:30:00       40.032       35.266       10.850       30.303       28.284       31.405      918.301      799.966      986.290        0.283        0.135       53.350       21.227        0.158      345.079       22.354      864.484
08/15/2014  09:31:00       58.965       69.547       -2.511       38.497       69.700       34.646     1482.022     4858.100     1200.324        0.793        0.377       91.179       33.731        0.137      344.845       21.952      864.478
08/15/2014  09:32:00      -13.090       34.045       18.156       38.118       31.028       27.932     1452.968      962.751      780.215        0.243        0.160       36.475       20.809        0.325      345.171       22.512      864.478
08/15/2014  09:33:00       -4.891       64.015       -2.876       34.185       45.996       26.622     1168.583     2115.647      708.725        0.406        0.200       64.202       20.720        0.104      345.119       22.423      864.471
08/15/2014  09:34:00       24.733       48.522       11.203       33.176       28.938       36.138     1100.624      837.430     1305.987        0.317        0.162       54.462       25.691        0.223      345.365       22.843      864.473
08/15/2014  09:35:00       21.475       57.528       75.324       46.949       57.276       52.515     2204.221     3280.485     2757.779        0.884        0.412       61.406       45.118        0.540      345.464       23.012      864.462
08/15/2014  09:36:00       46.853       86.462      102.549       68.205       60.612       50.782     4651.925     3673.838     2578.799        1.554        0.545       98.340       52.427        0.284      345.029       22.268      864.474
08/15/2014  09:37:00       37.887       25.973       68.280       43.355       83.634       34.395     1879.644     6994.574     1183.015        0.841        0.503       45.935       38.677        0.709      345.181       22.530      864.473
08/15/2014  09:38:00      139.420       80.974       36.546       64.972       39.582       38.330     4221.313     1566.743     1469.222        1.729        0.363      161.229       33.202        0.042      344.822       21.913      864.475
08/15/2014  09:39:00      106.860       86.425       15.700       43.412       33.030       32.850     1884.567     1090.954     1079.114        1.159        0.203      137.435       21.380        0.024      344.581       21.502      864.477
08/15/2014  09:40:00       48.662       51.119        6.427       28.725       38.941       24.847      825.120     1516.378      617.393        0.399        0.148       70.577       18.245        0.067      344.860       21.977      864.471
08/15/2014  09:41:00        4.807      -21.135        5.604       48.542       45.221       23.827     2356.331     2044.948      567.703        0.273        0.248       21.675       20.417        0.887      345.272       22.683      864.470
08/15/2014  09:42:00      -10.031       -1.903       23.269       22.429       40.774       22.300      503.043     1662.518      497.290        0.165        0.133       10.210        9.540        0.873      345.776       23.549      864.460
08/15/2014  09:43:00       -5.946       18.944       46.349       19.519       29.651       21.359      380.973      879.189      456.218        0.213        0.086       19.855       18.288        0.848      346.153       24.196      864.465
08/15/2014  09:44:00       37.215       52.520       41.122       59.154       38.222       37.095     3499.152     1460.896     1376.015        0.608        0.317       64.368       41.061        0.407      345.673       23.371      864.469
08/15/2014  09:45:00       81.940       78.571       -8.167       52.395       43.448       35.559     2745.234     1887.698     1264.457        0.942        0.295      113.524       22.468        0.039      345.107       22.399      864.465
08/15/2014  09:46:00       30.822       99.161        8.380       38.213       56.802       40.270     1460.232     3226.505     1621.649        0.858        0.315      103.840       34.761        0.112      345.163       22.498      864.465
08/15/2014  09:47:00        0.901        1.918       16.224       35.239       38.772       24.595     1241.773     1503.265      604.902        0.181        0.167        2.119       15.821       55.724      345.653       23.337      864.459
08/15/2014  09:48:00       -9.322        2.523       43.532       43.458       63.401       40.518     1888.598     4019.737     1641.691        0.477        0.378        9.657       21.472        4.944      345.852       23.679      864.455
08/15/2014  09:49:00       65.250       -0.171       28.224       58.682       46.803       41.407     3443.616     2190.494     1714.526        0.620        0.367       65.250       32.745        0.252      345.252       22.650      864.473
08/15/2014  09:50:00       43.335      -95.553      -27.543       33.386       37.848       28.367     1114.655     1432.467      804.692        0.756        0.168      104.921       16.177        0.024      344.770       21.824      864.478
08/15/2014  09:51:00       22.186      -21.547       20.420       54.224       48.530       39.846     2940.270     2355.175     1587.695        0.413        0.344       30.928       37.130        1.441      345.785       23.566      864.475
08/15/2014  09:52:00       -5.019       30.394       22.049       19.220       26.570       20.042      369.409      705.960      401.684        0.146        0.074       30.806       12.843        0.174      345.823       23.630      864.485
08/15/2014  09:53:00        0.182       51.888       44.703       23.170       32.487       21.470      536.863     1055.384      460.979        0.337        0.103       51.888       14.173        0.075      345.629       23.296      864.495
08/15/2014  09:54:00       30.163       33.101       40.251       54.204       66.290       36.846     2938.075     4394.395     1357.615        0.616        0.435       44.783       37.238        0.691      345.528       23.123      864.490
08/15/2014  09:55:00       52.606       79.217       68.923       63.027       51.779       50.837     3972.378     2681.041     2584.404        1.151        0.462       95.093       46.940        0.244      345.188       22.540      864.502
08/15/2014  09:56:00       29.986      -52.413       30.042       50.668       73.692       48.261     2567.223     5430.461     2329.089        0.744        0.516       60.385       55.284        0.838      345.594       23.236      864.503
08/15/2014  09:57:00       29.648      -68.743       14.147       54.737       67.500       40.791     2996.146     4556.294     1663.922        0.751        0.461       74.864       34.710        0.215      345.578       23.210      864.498
08/15/2014  09:58:00       36.303      -92.044       24.743       55.193       65.284       50.434     3046.311     4262.026     2543.600        1.013        0.493       98.945       34.125        0.119      345.532       23.129      864.490
08/15/2014  09:59:00       50.315      -59.398        7.678       51.433      106.127       45.158     2645.386    11262.875     2039.259        1.103        0.797       77.844       45.429        0.341      345.796       23.583      864.490
08/15/2014  10:00:00       50.750       70.083       39.965       45.799       38.946       42.240     2097.591     1516.798     1784.181        0.724        0.270       86.528       19.615        0.051      345.711       23.437      864.498
08/15/2014  10:01:00       77.177       59.444       72.710       68.079       59.710       44.236     4634.709     3565.313     1956.853        1.246        0.508       97.415       43.184        0.197      345.674       23.373      864.500
08/15/2014  10:02:00       -6.470       72.780      104.818       49.759       59.976       60.359     2476.007     3597.093     3643.163        1.302        0.486       73.067       52.816        0.523      345.963       23.870      864.495
08/15/2014  10:03:00      111.721      114.115       76.173       73.528       50.841       65.680     5406.433     2584.799     4313.836        2.180        0.615      159.699       65.681        0.169      344.981       22.185      864.507
08/15/2014  10:04:00       43.502        3.409       18.593       50.845       65.533       32.542     2585.224     4294.544     1058.954        0.509        0.397       43.636       19.360        0.197      345.301       22.734      864.515
08/15/2014  10:05:00       76.026       38.922       45.360       53.847       81.337       44.976     2899.452     6615.631     2022.821        1.044        0.577       85.410       38.266        0.201      345.282       22.701      864.501
08/15/2014  10:06:00      132.280       99.885       35.370       27.180       28.220       26.910      738.740      796.381      724.175        1.549        0.113      165.756       13.141        0.006      344.904       22.054      864.515
08/15/2014  10:07:00       19.728       39.367      -16.852       52.559       47.397       19.864     2762.486     2246.454      394.587        0.381        0.270       44.033       17.212        0.153      345.042       22.290      864.509
08/15/2014  10:08:00        2.846        9.433       12.162       29.446       23.409       26.010      867.061      547.985      676.543        0.117        0.105        9.853       16.064        2.658      345.726       23.464      864.503
08/15/2014  10:09:00       43.906       88.142       -7.709       41.558       67.604       36.731     1727.054     4570.350     1349.168        0.870        0.382       98.473       40.223        0.167      345.420       22.937      864.492
08/15/2014  10:10:00       67.701       59.075        8.615       31.356       28.658       24.732      983.183      821.303      611.669        0.528        0.121       89.851       17.502        0.038      345.648       23.328      864.488
08/15/2014  10:11:00      130.509      124.470       33.324       49.708       47.477       43.881     2470.929     2254.026     1925.542        2.014        0.333      180.348       17.414        0.009      345.379       22.865      864.489
08/15/2014  10:12:00      104.693       50.334        7.371       45.831       44.810       27.144     2100.464     2007.969      736.791        0.920        0.242      116.164       16.592        0.020      345.238       22.626      864.488
08/15/2014  10:13:00      -25.627      -32.186       25.199       31.911       36.935       36.674     1018.299     1364.197     1344.959        0.303        0.186       41.142       22.321        0.294      345.968       23.878      864.495
08/15/2014  10:14:00       37.458        9.161       64.306       45.767       73.780       42.176     2094.622     5443.531     1778.783        0.747        0.466       38.563       46.792        1.472      345.645       23.325      864.488
08/15/2014  10:15:00       40.229       17.668       39.618       36.730       33.833       31.375     1349.112     1144.641      984.391        0.349        0.174       43.937       12.554        0.082      345.695       23.409      864.502
08/15/2014  10:16:00       55.167      -15.163       13.405       32.282       65.063       31.363     1042.141     4233.220      983.620        0.485        0.313       57.213       29.728        0.270      345.610       23.264      864.501
08/15/2014  10:17:00       -3.156       -2.559       29.809       32.806       56.898       38.600     1076.208     3237.359     1489.941        0.335        0.290        4.064       41.214      102.858      345.993       23.921      864.497
08/15/2014  10:18:00       41.025      -86.433       19.818       53.244       57.007       47.307     2834.884     3249.813     2237.959        0.893        0.416       95.675       42.261        0.195      345.787       23.568      864.495
08/15/2014  10:19:00       53.034      -59.269       30.988       54.311       75.527       55.215     2949.661     5704.372     3048.741        0.949        0.585       79.533       59.674        0.563      346.116       24.134      864.495
08/15/2014  10:20:00       76.512       63.794       83.022       42.693       37.077       45.564     1822.701     1374.670     2076.086        1.104        0.264       99.618       27.178        0.074      345.529       23.123      864.510
08/15/2014  10:21:00        9.951       45.978       65.743       27.307       35.921       25.073      745.697     1290.326      628.676        0.460        0.133       47.043       16.221        0.119      346.021       23.969      864.513
08/15/2014  10:22:00        0.043      -11.619       36.020       30.295       57.153       40.223      917.770     3266.431     1617.917        0.362        0.290       11.619       37.123       10.209      346.193       24.265      864.522
08/15/2014  10:23:00      -11.960       -3.618       27.891       26.473       26.485       15.940      700.803      701.434      254.069        0.129        0.083       12.495       15.090        1.458      346.245       24.354      864.522
08/15/2014  10:24:00        2.029      -20.342       33.215       31.940       39.983       43.554     1020.144     1598.641     1896.945        0.302        0.226       20.443       21.387        1.094      346.326       24.493      864.528
08/15/2014  10:25:00       35.429      -62.822       29.731       43.886       51.315       35.396     1925.970     2633.222     1252.900        0.595        0.291       72.124       32.841        0.207      345.950       23.847      864.524
08/15/2014  10:26:00       83.535       56.811       47.478       56.511       45.285       37.270     3193.532     2050.771     1389.056        0.955        0.332      101.023       25.590        0.064      345.921       23.798      864.527
08/15/2014  10:27:00      124.140       91.705       41.823       44.252       27.025       46.959     1958.224      730.354     2205.110        1.523        0.245      154.339       23.446        0.023      345.283       22.703      864.521
08/15/2014  10:28:00      162.032       93.237       -0.280       49.317       34.547       34.050     2432.207     1193.523     1159.402        1.987        0.239      186.943       16.861        0.008      345.424       22.944      864.508
08/15/2014  10:29:00      138.162      108.270        0.719       54.913       39.851       39.492     3015.445     1588.117     1559.651        1.849        0.308      175.531        8.096        0.002      345.592       23.232      864.502
08/15/2014  10:30:00       65.612       95.671        8.282       50.821       56.164       40.376     2582.820     3154.421     1630.215        1.045        0.368      116.009       33.499        0.083      345.615       23.272      864.486
08/15/2014  10:31:00       35.687       51.805       35.639       52.653       58.032       42.145     2772.386     3367.684     1776.184        0.657        0.396       62.907       39.031        0.385      346.476       24.751      864.488
08/15/2014  10:32:00       20.348       75.064       13.229       54.976       43.510       36.794     3022.374     1893.160     1353.818        0.625        0.313       77.773       20.264        0.068      346.245       24.354      864.484
08/15/2014  10:33:00       76.535       90.865        2.695       50.349       35.022       36.165     2534.998     1226.563     1307.942        0.959        0.253      118.802       19.918        0.028      345.797       23.584      864.484
08/15/2014  10:34:00       -2.153       63.018        8.239       30.507       50.011       29.912      930.675     2501.089      894.754        0.418        0.216       63.054       18.073        0.082      346.213       24.300      864.476
08/15/2014  10:35:00      -11.927       -1.517       23.759       26.550       36.977       27.873      704.908     1367.280      776.911        0.178        0.142       12.023       22.148        3.394      346.483       24.764      864.468
08/15/2014  10:36:00      -13.835        3.829       39.810       33.322       20.362       22.503     1110.341      414.626      506.393        0.191        0.102       14.355       23.012        2.570      346.611       24.984      864.475
08/15/2014  10:37:00        1.299       44.216       79.883       39.914       63.136       38.581     1593.096     3986.140     1488.511        0.770        0.353       44.235       37.471        0.718      346.649       25.048      864.461
08/15/2014  10:38:00       32.648       -7.265       49.661       32.762       55.787       43.703     1073.348     3112.183     1909.923        0.484        0.305       33.446       44.708        1.787      346.102       24.108      864.462
08/15/2014  10:39:00        0.792        7.860       38.547       26.840       35.487       43.319      720.382     1259.318     1876.514        0.270        0.193        7.900       30.959       15.357      346.310       24.465      864.450
08/15/2014  10:40:00       -3.289       36.619       81.017       24.688       45.891       43.546      609.514     2106.015     1896.267        0.626        0.231       36.766       27.875        0.575      346.421       24.656      864.454
08/15/2014  10:41:00       14.890       51.178       63.664       45.931       36.506       36.429     2109.660     1332.684     1327.106        0.583        0.238       53.300       27.932        0.275      346.302       24.451      864.450
08/15/2014  10:42:00       12.639       77.731       98.004       33.599       57.532       27.682     1128.921     3309.936      766.289        1.050        0.260       78.752       32.635        0.172      345.978       23.897      864.451
08/15/2014  10:43:00       42.164       54.626       74.700       45.639       47.413       39.354     2082.896     2248.011     1548.698        0.811        0.294       69.006       40.042        0.337      345.788       23.569      864.465
08/15/2014  10:44:00       11.627      -16.440       43.470       54.206       71.495       35.864     2938.338     5111.541     1286.194        0.581        0.467       20.136       29.770        2.186      346.160       24.207      864.455
08/15/2014  10:45:00      -11.729      -99.912       -8.349       34.742       61.296       35.929     1207.016     3757.195     1290.889        0.822        0.313      100.598       23.073        0.053      346.301       24.450      864.461
08/15/2014  10:46:00      -23.866      -88.798       24.237       36.943       64.475       48.951     1364.772     4157.023     2396.220        0.848        0.396       91.949       18.156        0.039      346.311       24.466      864.463
08/15/2014  10:47:00       28.665      -18.108       32.200       53.544       39.765       45.372     2866.972     1581.265     2058.611        0.435        0.325       33.906       28.867        0.725      346.286       24.425      864.481
08/15/2014  10:48:00        6.775      -13.693       24.066       35.171       34.283       26.184     1237.016     1175.291      685.605        0.195        0.155       15.277       22.633        2.195      346.488       24.773      864.489
08/15/2014  10:49:00        9.850      -86.784       -9.894       30.063       29.984       24.968      903.782      899.054      623.419        0.508        0.121       87.341       16.200        0.034      345.854       23.683      864.493
08/15/2014  10:50:00      -11.941      -30.211      -16.395       18.132       30.269       18.766      328.771      916.190      352.172        0.146        0.080       32.485       12.606        0.151      345.878       23.723      864.490
08/15/2014  10:51:00      -46.648       28.648      -20.287       14.634       34.752       12.925      214.142     1207.712      167.048        0.250        0.079       54.743       16.802        0.094      345.861       23.694      864.478
08/15/2014  10:52:00      -16.793      -13.322        9.209       26.417       20.719       22.952      697.853      429.287      526.813        0.110        0.083       21.435       12.465        0.338      346.643       25.040      864.476
08/15/2014  10:53:00      -12.417       30.926       37.715       31.186       24.799       16.777      972.568      614.984      281.465        0.220        0.093       33.325       10.230        0.094      346.950       25.567      864.468
08/15/2014  10:54:00      -15.309       -6.565       15.534       19.631       23.089       20.927      385.364      533.125      437.949        0.094        0.068       16.657       17.896        1.154      346.734       25.195      864.470
08/15/2014  10:55:00        5.368       42.785        2.666       26.600       51.485       26.951      707.537     2650.737      726.376        0.297        0.204       43.120       13.976        0.105      346.902       25.484      864.465
08/15/2014  10:56:00        7.607       73.040        6.903       26.253       37.466       31.904      689.224     1403.696     1017.841        0.427        0.156       73.435       22.777        0.096      346.694       25.126      864.462
08/15/2014  10:57:00       14.823       60.627        9.970       27.116       50.567       38.212      735.269     2557.067     1460.172        0.437        0.238       62.413       34.401        0.304      346.576       24.923      864.464
08/15/2014  10:58:00      -27.003       30.445       -9.944       30.529       47.376       31.168      931.992     2244.503      971.421        0.295        0.207       40.694       24.875        0.374      346.320       24.486      864.450
08/15/2014  10:59:00       -2.625       41.880       -0.922       29.554       36.825       28.595      873.433     1356.094      817.675        0.240        0.152       41.962       17.377        0.171      346.320       24.484      864.441
08/15/2014  11:00:00      -32.531       22.393        8.741       31.531       22.932       22.127      994.214      525.870      489.609        0.182        0.100       39.493       22.182        0.315      346.693       25.126      864.422
08/15/2014  11:01:00      -38.942       28.528        7.947       35.142       27.750       26.191     1234.941      770.077      685.966        0.254        0.135       48.273       24.176        0.251      346.572       24.917      864.421
08/15/2014  11:02:00      -62.170        8.429       -4.612       29.891       21.000       17.002      893.498      441.014      289.059        0.279        0.081       62.739       12.761        0.041      346.264       24.387      864.393
08/15/2014  11:03:00      -41.351      -18.157      -10.806       38.123       20.378       17.790     1453.398      415.281      316.484        0.217        0.109       45.162        7.761        0.030      346.497       24.788      864.376
08/15/2014  11:04:00      -17.823      -60.025        1.872       51.297       68.950       30.785     2631.385     4754.112      947.714        0.613        0.417       62.615       29.517        0.222      346.761       25.243      864.357
08/15/2014  11:05:00       15.128     -132.055      -25.394       59.960       70.721       46.805     3595.201     5001.514     2190.686        1.455        0.539      132.918       36.038        0.074      346.719       25.168      864.336
08/15/2014  11:06:00       32.344      -81.092      -11.443       74.102       57.762       34.790     5491.064     3336.411     1210.322        0.889        0.502       87.304       40.963        0.220      346.371       24.570      864.317
08/15/2014  11:07:00       24.092       50.288       81.846       62.215       80.554       71.268     3870.659     6488.988     5079.172        1.262        0.772       55.761       59.552        1.141      347.098       25.822      864.295
08/15/2014  11:08:00       44.040      108.824      111.401       60.160      102.990       64.186     3619.248    10606.893     4119.866        2.227        0.917      117.398       72.022        0.376      346.253       24.367      864.299
08/15/2014  11:09:00       47.725      -42.209       27.660       57.569       88.794       61.661     3314.178     7884.322     3802.082        0.991        0.750       63.712       69.007        1.173      346.683       25.109      864.289
08/15/2014  11:10:00       41.487       16.228       69.890       48.590       63.223       35.458     2361.019     3997.207     1257.279        0.724        0.381       44.548       34.362        0.595      347.133       25.881      864.274
08/15/2014  11:11:00      -26.894      -60.330       27.354       55.541       71.573       44.722     3084.810     5122.635     2000.078        0.766        0.510       66.053       44.540        0.455      347.071       25.777      864.267
08/15/2014  11:12:00       83.882     -153.945      -30.082       81.652       57.560       42.484     6667.105     3313.143     1804.926        2.171        0.589      175.315       43.870        0.063      346.560       24.894      864.269
08/15/2014  11:13:00       72.384     -110.557      -20.159       61.675       91.175       46.877     3803.861     8312.909     2197.441        1.609        0.716      132.145       42.118        0.102      346.692       25.121      864.258
08/15/2014  11:14:00       11.173      -56.257      -16.020       30.748       32.146       30.610      945.438     1033.341      936.965        0.323        0.146       57.356       16.940        0.087      346.434       24.679      864.277
08/15/2014  11:15:00      -45.976      -24.494        0.383       32.434       42.195       30.390     1051.940     1780.397      923.549        0.323        0.188       52.094       20.305        0.152      346.575       24.922      864.252
08/15/2014  11:16:00      -60.178        8.438        5.476       33.222       24.006       16.575     1103.704      576.265      274.743        0.284        0.098       60.767        6.831        0.013      346.370       24.569      864.251
08/15/2014  11:17:00       20.825       -0.705       63.864       59.281       67.679       47.731     3514.292     4580.413     2278.248        0.744        0.519       20.837       34.144        2.685      347.319       26.202      864.234
08/15/2014  11:18:00       67.439      -65.655       17.225       61.533      107.728       70.430     3786.283    11605.291     4960.453        1.475        1.018       94.120       70.402        0.560      346.790       25.292      864.228
08/15/2014  11:19:00       19.778      -44.360       59.773       72.398      105.349       60.480     5241.418    11098.481     3657.803        1.296        1.000       48.569       64.164        1.745      346.952       25.570      864.208
08/15/2014  11:20:00       14.175       11.908       80.657       57.849      106.842       66.655     3346.484    11415.124     4442.844        1.302        0.960       18.513       70.367       14.447      347.205       26.006      864.194
08/15/2014  11:21:00       39.061       12.974       80.113       61.169       96.980       58.122     3741.685     9405.159     3378.126        1.232        0.826       41.159       54.897        1.779      347.246       26.077      864.191
08/15/2014  11:22:00       43.563       -9.516       68.460       69.280      109.643       71.016     4799.729    12021.678     5043.229        1.427        1.093       44.590       72.859        2.670      347.212       26.018      864.179
08/15/2014  11:23:00      103.791      -91.058       24.269       59.371       92.185       54.437     3524.937     8498.102     2963.405        1.732        0.749      138.072       53.506        0.150      346.689       25.118      864.191
08/15/2014  11:24:00       98.592      -51.894       40.687      112.342      125.925       85.478    12620.733    15856.987     7306.567        2.492        1.789      111.415       90.811        0.664      346.935       25.539      864.154
08/15/2014  11:25:00      164.751     -172.822      -34.397       99.978      118.272       52.836     9995.654    13988.373     2791.647        4.248        1.339      238.769       56.152        0.055      346.696       25.127      864.162
08/15/2014  11:26:00      130.232       24.505       59.459      116.208      184.447      107.078    13504.277    34020.859    11465.701        4.003        2.950      132.518      121.850        0.845      346.749       25.218      864.166
08/15/2014  11:27:00       68.863       13.133       88.946       98.122       98.652       63.353     9627.914     9732.131     4013.626        1.810        1.169       70.104       64.537        0.847      346.987       25.629      864.162
08/15/2014  11:28:00       41.230       35.166       73.733       73.784      112.722       61.573     5444.044    12706.284     3791.295        1.515        1.097       54.190       63.424        1.370      347.088       25.804      864.167
08/15/2014  11:29:00       78.055       82.132       83.332       66.484       79.966       58.771     4420.075     6394.627     3454.080        1.702        0.713      113.306       53.493        0.223      346.792       25.293      864.178
08/15/2014  11:30:00        8.634       28.814       82.516       32.967       62.989       38.659     1086.840     3967.646     1494.518        0.713        0.327       30.079       40.440        1.808      347.572       26.638      864.168
08/15/2014  11:31:00       74.845       -0.733       59.383       82.994      109.657       65.907     6888.030    12024.630     4343.739        1.619        1.163       74.848       74.692        0.996      347.380       26.306      864.162
08/15/2014  11:32:00       87.356       13.634       41.339       88.555       92.568       62.825     7841.941     8568.813     3946.957        1.494        1.018       88.414       45.320        0.263      347.035       25.712      864.171
08/15/2014  11:33:00       93.705       85.475       72.051       88.036       70.295       55.624     7750.373     4941.377     3094.035        1.853        0.789      126.833       43.468        0.117      346.982       25.620      864.174
08/15/2014  11:34:00      100.420       83.630       13.040       47.804       32.395       28.386     2285.187     1049.434      805.770        1.069        0.207      130.684       29.766        0.052      346.235       24.337      864.175
08/15/2014  11:35:00       77.234       65.956        1.574       43.977       33.083       31.442     1933.966     1094.496      988.571        0.717        0.201      101.564       16.002        0.025      346.702       25.141      864.162
08/15/2014  11:36:00       54.224       59.251        7.328       48.494       35.606       42.040     2351.649     1267.788     1767.396        0.594        0.269       80.318       25.735        0.103      347.052       25.744      864.171
08/15/2014  11:37:00       35.701       47.252       18.911       43.640       30.024       33.792     1904.422      901.436     1141.873        0.391        0.197       59.223       10.026        0.029      347.054       25.747      864.173
08/15/2014  11:38:00      -28.029       43.119       -6.160       23.773       38.061       27.219      565.146     1448.621      740.851        0.272        0.138       51.428       20.499        0.159      346.974       25.607      864.179
08/15/2014  11:39:00       47.899     -102.237      -12.138       44.701       42.246       27.842     1998.141     1784.684      775.176        0.873        0.228      112.901       18.910        0.028      346.521       24.828      864.174
08/15/2014  11:40:00       37.322     -105.865      -15.447       49.150       59.103       37.072     2415.743     3493.151     1374.360        1.006        0.364      112.251       35.030        0.097      346.762       25.244      864.167
08/15/2014  11:41:00      -44.945      -74.209       -9.084       70.257       34.275       21.435     4936.092     1174.786      459.462        0.709        0.329       86.758       14.075        0.026      346.822       25.345      864.150
08/15/2014  11:42:00       34.556       30.224       40.881       81.924       65.276       42.777     6711.523     4260.998     1829.868        0.829        0.640       45.908       36.282        0.625      347.357       26.269      864.147
08/15/2014  11:43:00       51.367       47.598       89.141       65.582       54.778       46.795     4301.032     3000.652     2189.730        1.117        0.475       70.029       35.564        0.258      347.849       27.116      864.135
08/15/2014  11:44:00       34.201       -8.827       28.683       62.891       68.706       42.008     3955.274     4720.536     1764.694        0.625        0.522       35.322       15.022        0.181      347.477       26.476      864.134
08/15/2014  11:45:00       26.085       61.932       54.537       63.289       62.234       42.544     4005.436     3873.012     1809.995        0.859        0.484       67.201       16.900        0.063      347.690       26.843      864.133
08/15/2014  11:46:00       55.085       86.584       92.525       66.682       66.537       57.353     4446.429     4427.219     3289.415        1.563        0.608      102.621       55.751        0.295      346.911       25.500      864.139
08/15/2014  11:47:00       93.769       97.744       38.432       77.136       49.859       55.800     5950.014     2485.923     3113.667        1.568        0.577      135.449       41.330        0.093      347.162       25.932      864.119
08/15/2014  11:48:00       41.359       53.310       59.959       66.287       62.228       62.403     4393.999     3872.356     3894.089        1.015        0.608       67.473       38.544        0.326      347.432       26.396      864.105
08/15/2014  11:49:00       86.919       56.159       56.938       65.286       60.434       53.197     4262.285     3652.209     2829.930        1.235        0.537      103.484       45.402        0.192      347.060       25.756      864.109
08/15/2014  11:50:00       98.768      -57.609       40.372       82.588      114.214       67.295     6820.790    13044.741     4528.649        1.954        1.220      114.341       85.109        0.554      347.176       25.954      864.102
08/15/2014  11:51:00       99.460       48.595       78.595       73.155       58.093       56.381     5351.708     3374.853     3178.832        1.517        0.595      110.696       40.772        0.136      347.097       25.819      864.094
08/15/2014  11:52:00       69.600       87.494      106.495       49.836       70.336       54.585     2483.639     4947.120     2979.514        1.712        0.521      111.800       54.068        0.234      346.774       25.264      864.086
08/15/2014  11:53:00       15.505       57.166       86.917       39.135       54.360       32.261     1531.569     2955.055     1040.770        0.829        0.276       59.232       35.200        0.353      347.341       26.241      864.079
08/15/2014  11:54:00       38.950        0.288       -1.929       33.745       62.102       51.424     1138.741     3856.597     2644.399        0.458        0.382       38.951       40.527        1.083      346.847       25.389      864.063
08/15/2014  11:55:00      -43.577       39.893       -6.465       45.657       37.081       34.048     2084.600     1374.975     1159.254        0.407        0.231       59.080        7.644        0.017      347.022       25.689      864.034
08/15/2014  11:56:00      -49.577        0.769        8.376       40.415       62.367       30.429     1633.382     3889.696      925.954        0.449        0.322       49.583       31.320        0.399      347.286       26.147      864.026
08/15/2014  11:57:00       -9.201      -55.284        5.792       36.641       25.155       20.048     1342.599      632.780      401.922        0.278        0.119       56.044       18.734        0.112      346.929       25.531      864.017
08/15/2014  11:58:00      -26.337      -38.058        4.819       49.008       30.956       19.883     2401.816      958.268      395.343        0.296        0.188       46.282       17.303        0.140      347.102       25.829      863.987
08/15/2014  11:59:00      -61.276      -57.586        2.561       53.692       34.273       23.365     2882.823     1174.646      545.914        0.584        0.230       84.089       26.596        0.100      347.163       25.932      863.988
08/15/2014  12:00:00      -59.284      -22.497       -0.419       23.948       19.619       17.953      573.509      384.913      322.311        0.265        0.064       63.409        6.577        0.011      347.193       25.985      863.983
08/15/2014  12:01:00       32.076        4.376       20.496       39.424       23.250       30.742     1554.246      540.582      945.055        0.225        0.152       32.373       23.644        0.533      347.853       27.122      863.959
08/15/2014  12:02:00      -42.023        0.093       12.167       60.113       32.312       35.726     3613.523     1044.066     1276.372        0.392        0.297       42.023       40.276        0.919      347.468       26.460      863.953
08/15/2014  12:03:00      -13.777       -2.157       -0.439       37.276       43.744       29.854     1389.469     1913.553      891.277        0.219        0.210       13.944       26.133        3.512      347.417       26.372      863.962
08/15/2014  12:04:00       -0.811       13.004       53.875       37.283       66.472       33.648     1390.057     4418.478     1132.169        0.501        0.347       13.029       39.569        9.224      348.240       27.793      863.940
08/15/2014  12:05:00      -58.107      -11.326       -4.191       22.896       32.635       30.997      524.247     1065.027      960.829        0.304        0.128       59.200       14.661        0.061      347.495       26.505      863.945
08/15/2014  12:06:00      -52.682       -1.806        7.855       25.370       48.732       24.179      643.619     2374.825      584.637        0.322        0.180       52.713       22.831        0.188      347.517       26.544      863.937
08/15/2014  12:07:00        8.108       -6.619       30.063       29.352       31.068       25.004      861.540      965.209      625.217        0.173        0.123       10.467       21.920        4.386      347.910       27.221      863.918
08/15/2014  12:08:00      -17.665       -4.430       41.379       16.022       45.715       22.617      256.709     2089.876      511.548        0.245        0.143       18.212       20.577        1.277      348.280       27.862      863.915
08/15/2014  12:09:00      -38.836      -16.824       16.567       39.266       38.340       21.402     1541.857     1469.945      458.032        0.277        0.173       42.324       17.839        0.178      347.889       27.186      863.890
08/15/2014  12:10:00      -36.861      -18.823        9.257       39.455       42.225       25.143     1556.729     1782.978      632.164        0.288        0.199       41.389       25.748        0.387      347.697       26.857      863.887
08/15/2014  12:11:00      -53.821      -70.566        9.183       50.022       66.273       30.766     2502.200     4392.047      946.570        0.790        0.392       88.748       35.517        0.160      347.503       26.520      863.869
08/15/2014  12:12:00      -84.331      -46.996        1.910       67.519       37.288       30.377     4558.871     1390.403      922.764        0.810        0.344       96.542       36.025        0.139      347.334       26.229      863.851
08/15/2014  12:13:00      -84.589      -70.242       10.592       57.029       48.313       30.745     3252.321     2334.146      945.252        0.937        0.327      109.951       18.547        0.028      347.402       26.346      863.822
08/15/2014  12:14:00      -58.678      -62.280        5.795       71.542       44.908       40.759     5118.291     2016.759     1661.297        0.807        0.440       85.568       29.461        0.119      347.495       26.507      863.814
08/15/2014  12:15:00       23.322       23.267       78.383       50.424       76.438       43.204     2542.545     5842.708     1866.546        0.874        0.513       32.943       36.904        1.255      348.044       27.454      863.803
08/15/2014  12:16:00       57.698       24.696       67.345       55.288       60.092       40.600     3056.775     3611.037     1648.326        0.839        0.416       62.761       36.966        0.347      347.699       26.858      863.793
08/15/2014  12:17:00       23.583       -4.815       40.279       82.503       63.139       36.522     6806.736     3986.567     1333.857        0.716        0.606       24.069       34.958        2.109      348.220       27.757      863.771
08/15/2014  12:18:00       91.682     -150.064       -4.598       59.239       90.491       36.505     3509.252     8188.567     1332.650        2.199        0.652      175.854       43.577        0.061      347.634       26.744      863.754
08/15/2014  12:19:00       35.270       33.036       29.131       54.474       44.879       29.591     2967.444     2014.142      875.635        0.452        0.293       48.325       16.451        0.116      348.398       28.065      863.747
08/15/2014  12:20:00       62.759       42.344       39.209       67.201       61.078       50.187     4515.938     3730.582     2518.716        0.902        0.538       75.708       31.773        0.176      348.231       27.777      863.740
08/15/2014  12:21:00       95.050       98.188      124.195      130.329       81.007       65.522    16985.529     6562.115     4293.153        3.096        1.392      136.658       63.215        0.214      347.941       27.273      863.742
08/15/2014  12:22:00      106.453       34.099       76.893       85.394       74.865       64.277     7292.206     5604.702     4131.531        1.771        0.851      111.780       48.473        0.188      347.742       26.929      863.763
08/15/2014  12:23:00       44.761      -94.101        6.742       66.012       81.122       43.118     4357.575     6580.743     1859.133        1.185        0.640      104.205       40.237        0.149      347.207       26.010      863.762
08/15/2014  12:24:00       32.752       35.359       26.987       76.402       54.847       37.732     5837.221     3008.141     1423.696        0.666        0.513       48.197       21.226        0.194      347.654       26.779      863.745
08/15/2014  12:25:00       75.770       42.305       18.895       44.885       58.661       41.041     2014.651     3441.168     1684.347        0.751        0.357       86.780       19.884        0.052      347.695       26.850      863.734
08/15/2014  12:26:00       71.093       58.597       50.190       68.049       52.788       47.333     4630.621     2786.585     2240.382        1.033        0.483       92.129       25.153        0.075      347.589       26.668      863.719
08/15/2014  12:27:00      158.900       66.473       42.724      103.322       79.828       72.309    10675.501     6372.510     5228.641        2.688        1.114      172.244       57.744        0.112      347.840       27.099      863.701
08/15/2014  12:28:00      238.287      110.270       79.183      134.125      112.210       87.832    17989.553    12591.038     7714.539        5.675        1.915      262.565       79.260        0.091      347.382       26.307      863.686
08/15/2014  12:29:00      128.635      124.513      102.851      109.233       87.538       90.319    11931.785     7662.949     8157.587        3.518        1.388      179.026       84.673        0.224      347.577       26.644      863.688
08/15/2014  12:30:00      123.287      124.349      123.683      104.599       89.567       68.967    10941.015     8022.209     4756.419        3.483        1.186      175.106       67.203        0.147      347.295       26.158      863.683
08/15/2014  12:31:00       66.198       82.766       72.996       49.923       35.852       38.353     2492.267     1285.369     1470.947        1.090        0.262      105.983       24.429        0.053      347.291       26.155      863.685
08/15/2014  12:32:00      144.756      166.598      151.836      107.968       77.422       82.887    11657.172     5994.222     6870.225        4.814        1.226      220.702       69.579        0.099      347.360       26.268      863.649
08/15/2014  12:33:00      162.292      118.673      116.295      122.418      100.925       71.577    14986.158    10185.847     5123.337        4.211        1.515      201.052       61.931        0.095      347.499       26.508      863.625
08/15/2014  12:34:00      220.553      193.024       71.602      101.973       90.708       83.092    10398.567     8227.939     6904.286        5.827        1.277      293.090       42.076        0.021      347.235       26.054      863.628
08/15/2014  12:35:00      113.528       68.579       84.152       90.128       74.283       59.606     8123.017     5517.971     3552.928        2.093        0.860      132.634       40.015        0.091      347.752       26.946      863.622
08/15/2014  12:36:00       34.999        1.797       32.396       39.356       60.485       38.705     1548.876     3658.380     1498.066        0.449        0.335       35.045       33.716        0.926      347.672       26.812      863.618
08/15/2014  12:37:00      124.100       78.670       26.276       59.890       55.034       53.871     3586.871     3028.795     2902.071        1.590        0.476      146.935       25.558        0.030      347.868       27.149      863.600
08/15/2014  12:38:00       74.670       11.403       28.661       61.349       55.512       49.742     3763.719     3081.585     2474.250        0.792        0.466       75.535       38.360        0.258      348.105       27.558      863.580
08/15/2014  12:39:00       66.260       74.971       63.444       61.231       49.280       51.112     3749.284     2428.525     2612.447        1.141        0.440      100.055       24.357        0.059      348.088       27.529      863.563
08/15/2014  12:40:00      157.314      100.925       13.956       81.849       82.639       46.586     6699.292     6829.135     2170.290        2.541        0.785      186.905       22.574        0.015      347.819       27.062      863.569
08/15/2014  12:41:00       58.044       26.409       31.957       60.022       41.903       34.453     3602.680     1755.838     1187.034        0.582        0.327       63.769       30.324        0.226      348.442       28.141      863.560
08/15/2014  12:42:00       36.353      -32.108       53.483       60.810      108.787       64.882     3697.871    11834.675     4209.697        1.247        0.987       48.502       71.697        2.185      348.333       27.952      863.530
08/15/2014  12:43:00       88.523      -67.737       53.285       80.192      132.826       65.544     6430.801    17642.727     4296.058        2.181        1.418      111.466       72.940        0.428      347.995       27.366      863.517
08/15/2014  12:44:00       57.646      -28.674       40.916       85.367      115.326       53.855     7287.593    13299.983     2900.340        1.465        1.174       64.383       58.355        0.822      348.004       27.382      863.510
08/15/2014  12:45:00       92.035       59.407       78.390       59.140       84.953       63.347     3497.584     7217.089     4012.872        1.643        0.736      109.543       52.438        0.229      347.867       27.147      863.512
08/15/2014  12:46:00       82.628       73.028       88.458       82.667       77.328       58.165     6833.793     5979.638     3383.194        1.809        0.810      110.274       57.057        0.268      348.051       27.466      863.500
08/15/2014  12:47:00       44.552        4.905       40.710       64.123       78.510       44.693     4111.784     6163.838     1997.423        0.797        0.614       44.821       29.989        0.448      348.068       27.496      863.495
08/15/2014  12:48:00       33.673       72.602       77.271       64.504       58.995       42.431     4160.775     3480.461     1800.350        1.091        0.472       80.031       38.255        0.228      348.282       27.865      863.489
08/15/2014  12:49:00       23.911       20.210       70.235       38.140       82.694       42.901     1454.647     6838.326     1840.533        0.802        0.507       31.308       50.301        2.581      348.034       27.436      863.480
08/15/2014  12:50:00       66.678      -36.214       27.626       76.868      112.941       56.044     5908.738    12755.634     3140.921        1.416        1.090       75.878       64.828        0.730      348.168       27.666      863.477
08/15/2014  12:51:00       66.941     -137.626       10.902       67.424      113.409       75.062     4545.988    12861.568     5634.300        2.329        1.152      153.043       64.804        0.179      348.213       27.743      863.452
08/15/2014  12:52:00      182.068     -170.827      -15.698      145.582      163.036       87.813    21194.166    26580.826     7711.197        5.902        2.774      249.661      101.422        0.165      347.688       26.836      863.424
08/15/2014  12:53:00      229.213     -226.409      -26.005      130.302      179.239       91.157    16978.508    32126.675     8309.586        8.093        2.871      322.179      112.389        0.122      347.565       26.623      863.415
08/15/2014  12:54:00      169.512      108.205      151.977      121.429      129.710       91.558    14744.963    16824.558     8382.802        5.174        1.998      201.103       97.567        0.235      347.759       26.958      863.422
08/15/2014  12:55:00      138.094       54.485       86.379      118.849      125.899      106.771    14125.203    15850.673    11400.021        3.543        2.069      148.454      111.341        0.563      347.745       26.936      863.405
08/15/2014  12:56:00       31.612       10.738       13.739       53.859       73.642       39.734     2900.833     5423.115     1578.808        0.560        0.495       33.386       17.245        0.267      348.024       27.419      863.432
08/15/2014  12:57:00       33.679      -98.693       40.063       52.400      111.318       55.795     2745.738    12391.630     3113.066        1.536        0.913      104.282       58.682        0.317      347.878       27.167      863.421
08/15/2014  12:58:00       42.871       96.829      106.902       66.464       73.321       65.196     4417.463     5375.913     4250.502        1.834        0.702      105.896       62.577        0.349      347.776       26.990      863.407
08/15/2014  12:59:00       52.812       35.365       71.943       59.903       63.579       68.005     3588.336     4042.348     4624.686        1.073        0.613       63.559       56.978        0.804      347.622       26.725      863.394
08/15/2014  13:00:00       30.164      -11.703        9.801       24.432       21.394       23.126      596.899      457.705      534.823        0.137        0.079       32.355       13.838        0.183      347.800       27.032      863.362
08/15/2014  13:01:00        6.791      -47.180       13.817       20.431       45.864       28.341      417.409     2103.495      803.203        0.289        0.166       47.666       25.777        0.292      348.032       27.433      863.332
08/15/2014  13:02:00       25.413       30.407       93.150       65.509      115.873       73.124     4291.412    13426.564     5347.062        1.665        1.153       39.628       85.213        4.624      348.270       27.843      863.309
08/15/2014  13:03:00       88.476       18.163       46.192       62.848       49.117       46.570     3949.874     2412.515     2168.796        0.941        0.427       90.321       25.531        0.080      347.866       27.147      863.297
08/15/2014  13:04:00       87.984      -24.510       37.362       58.741       63.298       44.506     3450.472     4006.656     1980.755        0.959        0.472       91.334       40.031        0.192      347.686       26.834      863.292
08/15/2014  13:05:00       56.331        6.832        2.398       49.243       51.992       40.177     2424.844     2703.217     1614.212        0.498        0.337       56.744       38.606        0.463      347.746       26.940      863.270
08/15/2014  13:06:00       53.851       45.084       53.621       53.157       55.626       42.997     2825.625     3094.277     1848.705        0.779        0.388       70.232       39.834        0.322      348.234       27.782      863.265
08/15/2014  13:07:00      105.669     -151.218       -1.473       63.402       91.722       49.948     4019.756     8412.916     2494.791        2.448        0.746      184.480       53.448        0.084      347.846       27.109      863.278
08/15/2014  13:08:00       22.600     -103.432      -25.654       67.999       62.540       27.635     4623.797     3911.234      763.697        1.058        0.465      105.872       26.758        0.064      347.561       26.618      863.311
08/15/2014  13:09:00     -115.412       38.206       -5.836       66.016       35.648       39.529     4358.061     1270.776     1562.565        1.100        0.360      121.572       37.122        0.093      347.817       27.063      863.301
08/15/2014  13:10:00      -18.732      -43.150       -8.920       32.550       53.063       22.245     1059.486     2815.728      494.843        0.333        0.219       47.040       23.008        0.239      348.013       27.400      863.314
08/15/2014  13:11:00       17.926      -30.556       17.575       30.267       54.900       27.441      916.089     3014.007      753.003        0.312        0.234       35.426       26.830        0.574      348.423       28.109      863.313
08/15/2014  13:12:00       48.933      -63.444       22.927       60.020       82.528       40.592     3602.444     6810.885     1647.726        0.950        0.603       80.122       50.293        0.394      348.288       27.876      863.315
08/15/2014  13:13:00       23.865        5.077       51.930       72.533       90.925       56.648     5261.107     8267.344     3209.021        1.001        0.837       24.399       49.080        4.046      348.426       28.112      863.316
08/15/2014  13:14:00       84.634        3.540       75.843       68.087       73.694       62.162     4635.825     5430.866     3864.166        1.343        0.697       84.708       50.608        0.357      348.160       27.653      863.335
08/15/2014  13:15:00       92.985       37.355       78.971       80.180       74.027       57.045     6428.791     5479.933     3254.188        1.572        0.758      100.208       55.132        0.303      347.931       27.259      863.317
08/15/2014  13:16:00       61.572     -144.898        5.367       69.313       92.461       52.862     4804.359     8549.103     2794.351        2.048        0.807      157.438       42.232        0.072      347.764       26.969      863.317
08/15/2014  13:17:00      135.782     -198.884      -21.234       70.987       74.149       37.075     5039.157     5498.080     1374.555        3.517        0.596      240.814       30.430        0.016      347.852       27.118      863.274
08/15/2014  13:18:00      -68.012     -141.298      -22.840       89.757       91.496       63.909     8056.254     8371.532     4084.329        2.281        1.026      156.814       53.832        0.118      348.377       28.027      863.234
08/15/2014  13:19:00       16.462      -74.025       40.948       77.426      106.149       68.045     5994.759    11267.658     4630.179        1.466        1.095       75.833       55.071        0.527      348.653       28.506      863.216
08/15/2014  13:20:00       14.868     -144.057      -19.003       85.418       80.812       45.765     7296.312     6530.656     2094.415        1.862        0.796      144.822       40.337        0.078      348.272       27.845      863.232
08/15/2014  13:21:00       34.645     -149.260      -12.860       42.024       67.683       34.494     1765.991     4580.980     1189.834        1.559        0.377      153.228       29.061        0.036      348.119       27.580      863.225
08/15/2014  13:22:00       25.355      -79.221        8.185       40.653       44.893       42.948     1652.645     2015.362     1844.488        0.625        0.276       83.179       33.561        0.163      348.382       28.037      863.190
08/15/2014  13:23:00      -13.468      -61.754       -5.183       45.853       53.779       26.147     2102.466     2892.206      683.648        0.485        0.284       63.206       34.544        0.299      348.323       27.936      863.194
08/15/2014  13:24:00        9.906      -49.459        5.702       36.668       33.392       28.199     1344.518     1115.010      795.202        0.292        0.163       50.442       16.032        0.101      348.562       28.349      863.169
08/15/2014  13:25:00      -52.717      -47.615       12.455       54.342       52.056       36.923     2953.003     2709.823     1363.294        0.611        0.351       71.037       27.974        0.155      348.357       27.994      863.146
08/15/2014  13:26:00        7.724      -24.470       29.597       44.399       47.187       38.951     1971.257     2226.579     1517.175        0.362        0.286       25.660       30.391        1.403      349.006       29.118      863.136
08/15/2014  13:27:00       -1.766       18.300       19.962       32.022       35.965       41.900     1025.428     1293.500     1755.647        0.240        0.204       18.385       24.736        1.810      348.872       28.886      863.135
08/15/2014  13:28:00       38.961        4.115        6.103       26.771       33.387       24.283      716.678     1114.677      589.665        0.200        0.121       39.178       13.758        0.123      348.652       28.506      863.132
08/15/2014  13:29:00      -25.349      -46.081      -18.193       50.850       43.519       24.953     2585.701     1893.884      622.657        0.410        0.255       52.593        9.637        0.034      348.284       27.869      863.123
08/15/2014  13:30:00      -58.424       25.795        1.871       25.802       22.279       21.237      665.764      496.358      451.006        0.285        0.081       63.865       14.090        0.049      348.523       28.280      863.113
08/15/2014  13:31:00      -41.079       14.998       -1.369       29.579       32.443       24.552      874.906     1052.531      602.812        0.222        0.127       43.732       17.658        0.163      349.002       29.110      863.102
08/15/2014  13:32:00      -66.304      -42.028       12.735       36.938       39.864       27.226     1364.449     1589.164      741.232        0.501        0.185       78.502       21.713        0.077      348.733       28.645      863.084
08/15/2014  13:33:00      -72.818      -32.861       11.762       84.334       55.821       40.124     7112.213     3116.004     1609.920        0.918        0.592       79.889       39.946        0.250      348.997       29.103      863.086
08/15/2014  13:34:00      -94.487        8.705       -3.268       45.952       43.936       37.443     2111.551     1930.360     1401.968        0.723        0.272       94.887       23.364        0.061      348.766       28.704      863.079
08/15/2014  13:35:00      -18.665      -16.647        6.157       65.601       47.440       27.217     4303.539     2250.515      740.760        0.398        0.365       25.010       25.353        1.028      349.208       29.468      863.080
08/15/2014  13:36:00      -93.615      -93.404        6.840      120.684       60.245       47.335    14564.613     3629.400     2240.576        1.898        1.022      132.242       59.734        0.204      348.697       28.580      863.073
08/15/2014  13:37:00     -132.293      -28.906        8.590      117.787      105.736       58.361    13873.858    11180.074     3405.973        2.343        1.423      135.414       56.463        0.174      348.831       28.813      863.059
08/15/2014  13:38:00     -145.244       47.904        5.144       90.297       92.465       40.599     8153.497     8549.699     1648.298        2.088        0.918      152.939       40.329        0.070      349.012       29.126      863.076
08/15/2014  13:39:00      -19.790      167.681      -19.391       83.172       68.426       35.269     6917.629     4682.107     1243.875        2.086        0.642      168.845       30.128        0.032      348.544       28.314      863.101
08/15/2014  13:40:00       60.715      113.927        1.483       48.695       66.749       42.200     2371.179     4455.425     1780.847        1.264        0.430      129.096       42.482        0.108      348.533       28.298      863.097
08/15/2014  13:41:00       95.250       50.758       11.141       81.321       60.445       55.261     6613.140     3653.654     3053.799        1.254        0.666      107.930       36.799        0.116      348.868       28.877      863.079
08/15/2014  13:42:00       53.763      138.462       -1.210      105.766      105.899       62.691    11186.539    11214.676     3930.165        2.419        1.317      148.533       59.706        0.162      348.411       28.085      863.084
08/15/2014  13:43:00      127.434       56.120       13.592       54.028       42.896       35.823     2919.049     1840.076     1283.315        1.281        0.302      139.244       19.830        0.020      348.203       27.728      863.065
08/15/2014  13:44:00      139.726       75.315        1.866       65.677       50.526       37.100     4313.407     2552.905     1376.382        1.672        0.412      158.732       24.559        0.024      348.364       28.004      863.045
08/15/2014  13:45:00      101.969      165.029      -13.603       67.896       79.789       46.625     4609.815     6366.253     2173.866        2.548        0.657      193.990       43.057        0.049      348.549       28.324      863.020
08/15/2014  13:46:00       47.657      211.654        2.922      102.820      112.569       66.022    10572.030    12671.828     4358.950        3.733        1.380      216.953       56.917        0.069      348.717       28.614      863.013
08/15/2014  13:47:00       -0.352      252.736        3.754       75.439      138.909       63.899     5691.058    19295.716     4083.100        4.647        1.453      252.736       70.734        0.078      348.781       28.725      863.008
08/15/2014  13:48:00     -187.596      219.915      -44.014       76.762       94.219       65.496     5892.373     8877.288     4289.718        5.227        0.953      289.058       60.287        0.043      348.482       28.208      863.017
08/15/2014  13:49:00      -23.269      206.770      -24.849       63.274       95.237       35.576     4003.573     9069.992     1265.665        2.912        0.717      208.075       37.343        0.032      348.450       28.153      863.025
08/15/2014  13:50:00      -16.956      122.987        3.916       31.923       59.224       34.831     1019.090     3507.540     1213.224        1.058        0.287      124.151       27.284        0.048      348.674       28.542      863.013
08/15/2014  13:51:00       45.747       51.900        9.462       42.560       49.069       28.888     1811.334     2407.773      834.543        0.496        0.253       69.184       21.008        0.092      348.669       28.533      863.004
08/15/2014  13:52:00       59.697       74.692       -3.958       51.231       52.220       29.638     2624.656     2726.961      878.395        0.769        0.312       95.617       27.509        0.083      348.713       28.609      863.015
08/15/2014  13:53:00       -2.796      -88.251       10.136       68.503       60.425       48.625     4692.630     3651.158     2364.430        0.930        0.535       88.296       27.531        0.097      348.635       28.475      863.025
08/15/2014  13:54:00     -118.994     -121.576        2.978       68.331       97.828       40.851     4669.160     9570.335     1668.814        2.243        0.795      170.119       42.761        0.063      348.498       28.237      863.010
08/15/2014  13:55:00     -100.710      -44.615       17.060      117.676       61.693       38.443    13847.582     3805.974     1477.896        1.577        0.957      110.150       45.368        0.170      348.770       28.708      862.960
08/15/2014  13:56:00      -21.300     -122.132       13.118       74.952      114.750       51.592     5617.738    13167.534     2661.711        1.849        1.072      123.975       41.500        0.112      348.877       28.894      862.930
08/15/2014  13:57:00       48.556     -202.972      -17.134       92.834      100.324       81.118     8618.154    10064.985     6580.061        3.455        1.263      208.700       74.971        0.129      348.518       28.268      862.915
08/15/2014  13:58:00      121.063     -251.083      -46.563       55.360       63.699       48.407     3064.686     4057.581     2343.281        4.466        0.473      278.745       31.341        0.013      348.284       27.862      862.899
08/15/2014  13:59:00      -13.191     -191.756      -15.881       79.222       62.650       37.677     6276.123     3924.983     1419.541        2.441        0.581      192.209       23.189        0.015      348.214       27.745      862.891
08/15/2014  14:00:00       -9.585      -24.091       32.449       49.499       41.717       44.238     2450.199     1740.287     1956.970        0.394        0.307       25.928       34.413        1.762      348.993       29.095      862.837
08/15/2014  14:01:00       -2.110        6.132       51.359       25.421       70.348       55.030      646.224     4948.801     3028.249        0.565        0.431        6.485       55.854       74.181      348.872       28.884      862.816
08/15/2014  14:02:00      -39.147      -82.242      -18.067       66.554       48.049       32.967     4429.420     2308.724     1086.790        0.822        0.391       91.084       27.493        0.091      348.528       28.291      862.804
08/15/2014  14:03:00      -75.617     -103.835      -14.200       68.179       74.405       33.804     4648.331     5536.090     1142.688        1.401        0.566      128.451       36.233        0.080      348.254       27.814      862.799
08/15/2014  14:04:00     -136.239     -150.463        4.736       96.059       86.125       50.276     9227.400     7417.529     2527.697        3.019        0.959      202.978       50.594        0.062      348.499       28.235      862.802
08/15/2014  14:05:00      -88.522     -165.469        2.762       64.471       60.172       39.336     4156.471     3620.673     1547.294        2.227        0.466      187.660       32.878        0.031      348.343       27.967      862.827
08/15/2014  14:06:00     -199.624     -193.904      -10.307      116.240       92.701       52.857    13511.764     8593.434     2793.899        5.122        1.245      278.296       47.386        0.029      348.391       28.050      862.817
08/15/2014  14:07:00     -189.420     -128.635      -11.813       80.755       72.860       47.193     6521.310     5308.645     2227.214        3.331        0.703      228.969       47.961        0.044      348.227       27.766      862.847
08/15/2014  14:08:00     -285.415     -111.036      -17.306       63.662       82.349       37.976     4052.811     6781.418     1442.160        5.318        0.614      306.252       23.565        0.006      348.263       27.826      862.832
08/15/2014  14:09:00     -209.186      -81.618       -7.897       97.522       57.526       38.863     9510.589     3309.264     1510.314        3.240        0.717      224.545       40.812        0.033      348.462       28.172      862.817
08/15/2014  14:10:00      -83.880      -82.615       -2.334       82.011       52.675       33.138     6725.793     2774.642     1098.150        1.223        0.530      117.733       27.535        0.055      348.501       28.241      862.836
08/15/2014  14:11:00      -96.392      -56.721       11.720      133.963       66.338       43.174    17945.953     4400.687     1863.984        1.842        1.211      111.842       60.629        0.294      348.780       28.724      862.821
08/15/2014  14:12:00     -319.798      -65.699       -3.110      166.752      100.640       64.650    27806.152    10128.475     4179.634        7.435        2.106      326.477       68.593        0.044      348.669       28.530      862.785
08/15/2014  14:13:00     -457.364      -70.050      -20.419      165.177       98.941       71.293    27283.536     9789.224     5082.695       12.832        2.108      462.697       82.305        0.032      348.660       28.514      862.745
08/15/2014  14:14:00     -244.119     -134.436       11.557      113.485      132.082       64.492    12878.757    17445.630     4159.261        5.614        1.724      278.688       53.737        0.037      348.804       28.764      862.753
08/15/2014  14:15:00     -199.780     -206.431       15.562      128.116      118.723       61.717    16413.789    14095.253     3809.046        5.854        1.716      287.274       73.583        0.066      348.693       28.573      862.731
08/15/2014  14:16:00     -174.164     -180.917       12.682      123.704      152.369       67.272    15302.681    23216.394     4525.460        5.313        2.152      251.125       64.522        0.066      348.769       28.702      862.713
08/15/2014  14:17:00     -363.169      -45.546       -5.376      195.439      131.763       70.181    38196.468    17361.419     4925.436        9.723        3.024      366.014       85.034        0.054      349.007       29.116      862.725
08/15/2014  14:18:00     -388.480     -119.192      -14.983      125.613      106.137       59.825    15778.698    11265.036     3579.021        9.798        1.531      406.354       55.699        0.019      348.847       28.837      862.726
08/15/2014  14:19:00     -364.978      -12.798      -24.659      116.268      117.626       64.111    13518.256    13835.920     4110.207        8.272        1.573      365.203       55.538        0.023      348.698       28.580      862.725
08/15/2014  14:20:00     -139.701      -21.313      -11.851       87.693       70.642       44.642     7689.982     4990.344     1992.930        1.739        0.734      141.318       32.847        0.054      348.917       28.961      862.704
08/15/2014  14:21:00     -300.231      -46.781      -29.166      154.412      119.267       66.977    23842.979    14224.636     4485.882        6.786        2.128      303.853       65.197        0.046      348.876       28.888      862.665
08/15/2014  14:22:00     -244.171     -123.986       -4.499      167.239      104.695       69.968    27968.790    10961.046     4895.531        5.941        2.191      273.846       78.326        0.082      349.032       29.159      862.666
08/15/2014  14:23:00     -234.270      -96.901       12.636      145.491       96.455       57.737    21167.727     9303.659     3333.548        4.911        1.690      253.519       65.790        0.067      348.776       28.715      862.679
08/15/2014  14:24:00     -109.530       37.683       -4.242       67.176       63.596       34.039     4512.578     4044.467     1158.683        1.157        0.486      115.831       35.732        0.095      349.267       29.569      862.644
08/15/2014  14:25:00     -183.935     -109.509        4.480      124.244      102.453       55.875    15436.686    10496.645     3121.981        3.744        1.453      214.066       69.512        0.105      348.993       29.092      862.612
08/15/2014  14:26:00     -250.144     -108.296       -5.249      131.006       86.796       50.350    17162.545     7533.569     2535.149        5.077        1.362      272.580       48.437        0.032      349.170       29.398      862.616
08/15/2014  14:27:00     -334.053      -95.343      -33.498      136.522      103.040       64.788    18638.143    10617.340     4197.436        7.762        1.673      347.393       50.817        0.021      349.207       29.463      862.627
08/15/2014  14:28:00     -240.547      -45.025       -6.547      116.902       97.723       54.054    13666.166     9549.822     2921.818        4.303        1.307      244.725       58.350        0.057      349.291       29.609      862.639
08/15/2014  14:29:00     -211.044       38.862      -25.863      199.391      112.063       69.603    39756.765    12558.141     4844.624        5.193        2.858      214.592       93.872        0.191      349.075       29.235      862.632
08/15/2014  14:30:00     -283.669       64.378      -47.037       62.112      101.221       56.089     3857.920    10245.597     3145.976        5.203        0.862      290.883       45.383        0.024      348.685       28.558      862.606
08/15/2014  14:31:00     -153.453       21.445      -16.387       65.310       53.697       49.294     4265.414     2883.397     2429.916        1.693        0.479      154.945       41.844        0.073      348.996       29.099      862.596
08/15/2014  14:32:00     -119.835       22.798       11.563      161.585       78.327       49.670    26109.642     6135.093     2467.060        2.486        1.736      121.984       72.000        0.348      349.315       29.650      862.582
08/15/2014  14:33:00     -255.564      -32.701       -2.790      125.294      139.799       50.956    15698.623    19543.649     2596.500        5.211        1.892      257.648       47.876        0.035      349.267       29.566      862.571
08/15/2014  14:34:00     -290.769      -53.855       -8.571      111.968       96.371       50.456    12536.939     9287.359     2545.818        5.594        1.219      295.714       50.767        0.029      348.960       29.033      862.582
08/15/2014  14:35:00     -240.242       15.967      -20.896       62.744       78.460       43.123     3936.811     6156.023     1859.584        3.518        0.598      240.772       34.835        0.021      348.981       29.068      862.565
08/15/2014  14:36:00     -167.986       17.944      -14.492       49.236       51.068       34.471     2424.204     2607.959     1188.238        1.748        0.311      168.941       18.603        0.012      349.086       29.256      862.563
08/15/2014  14:37:00      -16.444       -9.921        9.659       80.919       45.358       36.313     6547.929     2057.381     1318.669        0.519        0.496       19.204       20.529        1.143      349.583       30.118      862.564
08/15/2014  14:38:00     -111.091        1.485      -17.533      108.776       74.882       47.365    11832.115     5607.281     2243.443        1.616        0.984      111.101       41.368        0.139      349.228       29.502      862.552
08/15/2014  14:39:00     -305.282      -44.773      -17.023      102.524      101.890       49.215    10511.244    10381.603     2422.131        5.940        1.166      308.547       51.505        0.028      349.123       29.316      862.538
08/15/2014  14:40:00     -245.072       22.682      -19.779       56.918       56.745       38.893     3239.711     3219.944     1512.627        3.447        0.399      246.119       34.651        0.020      348.914       28.953      862.515
08/15/2014  14:41:00      -90.983       20.108       -7.197       59.940       87.372       36.768     3592.747     7633.941     1351.859        1.065        0.629       93.179       35.428        0.145      349.438       29.865      862.498
08/15/2014  14:42:00     -174.068       -0.290      -24.353      105.709       74.017       40.485    11174.449     5478.496     1639.012        2.459        0.915      174.068       43.171        0.062      349.026       29.149      862.485
08/15/2014  14:43:00      -81.055       75.557       -1.373       51.044       51.095       42.567     2605.530     2610.715     1811.909        0.965        0.351      110.809       40.791        0.136      349.354       29.719      862.477
08/15/2014  14:44:00     -135.280      124.698      -20.683      106.938       95.805       58.316    11435.826     9178.544     3400.803        2.914        1.201      183.985       52.511        0.081      349.221       29.489      862.473
08/15/2014  14:45:00     -203.326       22.524      -16.774      166.329      141.101       79.835    27665.344    19909.605     6373.640        4.803        2.697      204.570       95.214        0.217      349.192       29.437      862.456
08/15/2014  14:46:00     -312.587      -76.584      -28.715      169.842      118.094       80.622    28846.384    13946.162     6499.870        7.684        2.465      321.831       95.015        0.087      349.033       29.161      862.472
08/15/2014  14:47:00     -219.381      -89.179        6.623      132.699      121.145       63.395    17609.059    14676.127     4018.945        4.621        1.815      236.814       59.793        0.064      349.085       29.251      862.458
08/15/2014  14:48:00     -167.725      -69.896        1.390      173.061      101.700       64.057    29950.134    10342.959     4103.287        3.870        2.220      181.706       82.423        0.206      349.428       29.846      862.463
08/15/2014  14:49:00     -176.677      -28.012       -2.850      118.895       79.122       39.433    14135.937     6260.340     1554.985        2.698        1.098      178.884       46.681        0.068      349.351       29.714      862.471
08/15/2014  14:50:00     -181.263     -269.897        6.469      147.285      129.900       67.062    21692.764    16874.004     4497.263        7.439        2.153      325.116       62.100        0.036      348.858       28.858      862.470
08/15/2014  14:51:00     -152.671     -194.821        1.330      172.462      122.527       64.955    29743.168    15012.848     4219.165        5.511        2.449      247.515       78.797        0.101      348.994       29.095      862.452
08/15/2014  14:52:00     -215.153     -262.633       -1.928      161.632      132.675       68.601    26124.951    17602.525     4706.076        8.184        2.422      339.510       64.088        0.036      348.897       28.925      862.444
08/15/2014  14:53:00     -122.852     -253.168       -7.703       94.980      112.645       52.067     9021.138    12688.949     2710.928        5.183        1.221      281.401       48.323        0.029      348.823       28.796      862.427
08/15/2014  14:54:00     -229.203     -144.185      -12.150      106.131       69.798       40.138    11263.864     4871.784     1611.089        4.561        0.887      270.783       43.839        0.026      348.974       29.058      862.420
08/15/2014  14:55:00     -228.268      -69.383      -12.112      105.192       77.913       50.180    11065.455     6070.489     2518.030        3.836        0.983      238.580       57.019        0.057      349.255       29.544      862.433
08/15/2014  14:56:00     -108.223      -14.738        1.374       92.765       70.119       51.756     8605.382     4916.615     2678.730        1.406        0.810      109.222       55.613        0.259      349.641       30.216      862.410
08/15/2014  14:57:00     -198.593     -155.250       -6.567      149.808       85.854       62.081    22442.310     7370.886     3854.008        4.862        1.683      252.075       58.294        0.053      349.110       29.295      862.411
08/15/2014  14:58:00     -193.705     -169.938      -16.794       76.314       93.642       51.580     5823.872     8768.869     2660.452        4.196        0.863      257.683       35.964        0.019      349.153       29.368      862.407
08/15/2014  14:59:00     -371.253     -267.300      -14.578      252.668      169.299       77.954    63841.022    28662.255     6076.894       15.402        4.929      457.469      104.208        0.052      349.042       29.176      862.380
08/15/2014  15:00:00     -299.346     -252.682       11.876      159.398      144.572       88.302    25407.816    20900.993     7797.273       10.384        2.705      391.734      101.293        0.067      348.941       29.002      862.390
08/15/2014  15:01:00     -221.816      -97.562        8.299      129.187      101.422       61.870    16689.231    10286.452     3827.888        4.479        1.540      242.323       68.792        0.081      349.017       29.133      862.399
08/15/2014  15:02:00     -128.561     -153.191        0.106       97.679      110.584       51.910     9541.127    12228.874     2694.665        3.223        1.223      199.988       47.002        0.055      348.998       29.101      862.373
08/15/2014  15:03:00     -271.726     -144.613       -6.432      136.425      103.722       59.240    18611.807    10758.317     3509.397        6.383        1.644      307.811       64.670        0.044      349.136       29.338      862.357
08/15/2014  15:04:00     -263.637     -132.091       -3.162      135.369      169.331       66.355    18324.857    28672.936     4402.983        6.917        2.570      294.877       75.951        0.066      349.240       29.521      862.358
08/15/2014  15:05:00     -282.311     -106.757       -4.529      144.722      122.350       72.725    20944.361    14969.404     5288.889        6.615        2.060      301.822       83.328        0.076      349.211       29.470      862.366
08/15/2014  15:06:00     -108.164     -112.823        6.840       94.680       96.299       48.319     8964.261     9273.443     2334.719        2.252        1.029      156.296       51.664        0.109      349.274       29.581      862.346
08/15/2014  15:07:00      -29.636       17.439       20.976       88.971       59.395       52.670     7915.847     3527.816     2774.169        0.792        0.711       34.386       26.254        0.583      349.593       30.134      862.322
08/15/2014  15:08:00     -141.121        6.259      -15.173       90.295       62.346       34.110     8153.252     3887.004     1163.485        1.669        0.660      141.260       36.627        0.067      349.213       29.475      862.317
08/15/2014  15:09:00     -149.554     -109.362       16.300      121.249       95.251       61.813    14701.425     9072.687     3820.881        3.109        1.380      185.273       69.888        0.142      349.291       29.609      862.320
08/15/2014  15:10:00     -182.212      -57.824      -15.038      120.710       61.232       47.136    14570.955     3749.386     2221.805        2.865        1.027      191.167       57.204        0.090      349.212       29.471      862.313
08/15/2014  15:11:00      -82.040       27.381       17.100       96.995       82.933       49.992     9407.998     6877.944     2499.161        1.328        0.939       86.488       46.544        0.290      349.676       30.278      862.320
08/15/2014  15:12:00     -124.981      129.708      -20.700       85.830      110.910       61.675     7366.824    12301.005     3803.842        2.817        1.174      180.123       51.030        0.080      349.318       29.657      862.315
08/15/2014  15:13:00      -78.538       89.955      -14.194       87.544       93.789       56.183     7663.870     8796.305     3156.478        1.704        0.981      119.415       52.002        0.190      349.441       29.872      862.286
08/15/2014  15:14:00      -94.093       41.058        0.758       97.121       64.666       53.339     9432.514     4181.714     2845.038        1.350        0.823      102.661       57.590        0.315      349.488       29.951      862.276
08/15/2014  15:15:00     -208.552       -7.266      -33.420      116.521      138.576       63.780    13577.106    19203.370     4067.939        4.075        1.842      208.679       63.073        0.091      349.322       29.664      862.240
08/15/2014  15:16:00     -236.804       63.926      -16.747      173.274       93.792       53.640    30023.861     8796.970     2877.263        5.106        2.085      245.281       61.285        0.062      349.636       30.206      862.227
08/15/2014  15:17:00     -246.001       78.501      -41.272      146.443       98.426       50.644    21445.512     9687.604     2564.830        5.103        1.685      258.223       51.978        0.041      349.185       29.424      862.255
08/15/2014  15:18:00     -153.414        0.338       -1.363      135.575      105.303       57.870    18380.616    11088.646     3348.975        2.817        1.641      153.414       66.053        0.185      349.395       29.789      862.215
08/15/2014  15:19:00      -72.432      144.623       -1.837       80.042      114.893       58.783     6406.724    13200.432     3455.463        2.461        1.153      161.748       62.102        0.147      349.576       30.104      862.214
08/15/2014  15:20:00      -35.140      311.566      -38.927       50.426       79.988       39.998     2542.808     6398.016     1599.819        5.518        0.527      313.541       30.276        0.009      349.114       29.298      862.219
08/15/2014  15:21:00      -73.508      151.019      -15.032       73.431      106.790       38.748     5392.039    11404.162     1501.382        2.336        0.915      167.959       36.536        0.047      349.521       30.008      862.217
08/15/2014  15:22:00     -148.168       42.307      -10.621       89.488      114.042       54.974     8008.072    13005.479     3022.148        2.394        1.202      154.090       56.371        0.134      349.613       30.167      862.229
08/15/2014  15:23:00     -153.694       58.612      -16.698      138.875       79.557       63.835    19286.349     6329.351     4074.945        2.851        1.485      164.491       72.190        0.193      349.378       29.760      862.225
08/15/2014  15:24:00      -31.660       25.303       34.606       96.720      138.389       67.253     9354.686    19151.554     4522.952        1.793        1.651       40.529       54.040        1.778      349.637       30.210      862.220
08/15/2014  15:25:00     -179.682     -174.363       10.193      196.570      111.155       58.917    38639.607    12355.340     3471.239        5.862        2.723      250.376       68.407        0.075      349.460       29.901      862.224
08/15/2014  15:26:00     -100.229     -206.631       23.054      137.419      108.822       74.375    18884.046    11842.138     5531.659        4.476        1.813      229.657       88.281        0.148      349.392       29.781      862.222
08/15/2014  15:27:00     -210.438     -121.992      -11.972      104.036       74.557       42.747    10823.496     5558.757     1827.276        3.876        0.910      243.241       42.618        0.031      349.401       29.798      862.224
08/15/2014  15:28:00     -215.029     -179.249       13.264      135.845      127.802       66.067    18453.828    16333.425     4364.899        5.884        1.958      279.942       70.703        0.064      349.455       29.890      862.192
08/15/2014  15:29:00     -335.341      -28.053      -20.419      100.997      118.125       57.970    10200.412    13953.517     3360.513        7.058        1.376      336.512       53.206        0.025      349.605       30.152      862.213
08/15/2014  15:30:00     -557.630        6.358      -34.868      187.456      187.410       82.649    35139.804    35122.513     6830.780       19.464        3.855      557.667       80.357        0.021      349.458       29.897      862.197
08/15/2014  15:31:00     -455.288       14.262      -43.638      134.881      125.452       69.971    18192.961    15738.117     4895.973       12.410        1.941      455.511       68.752        0.023      349.334       29.683      862.223
08/15/2014  15:32:00     -349.420      -14.249      -35.090      109.051      114.156       62.004    11892.187    13031.520     3844.551        7.614        1.438      349.710       47.756        0.019      349.382       29.765      862.213
08/15/2014  15:33:00     -340.319       35.388      -33.531       79.751       67.816       47.569     6360.227     4599.005     2262.802        6.571        0.661      342.154       37.061        0.012      349.137       29.340      862.192
08/15/2014  15:34:00     -158.492       32.265       -8.191       61.807       61.304       39.328     3820.129     3758.190     1546.722        1.767        0.456      161.743       35.346        0.048      349.343       29.699      862.164
08/15/2014  15:35:00      -75.886       80.460      -12.354       68.417       57.052       47.966     4680.886     3254.964     2300.718        1.131        0.512      110.600       36.845        0.111      349.565       30.086      862.156
08/15/2014  15:36:00     -320.215     -100.653      -28.468      108.165      119.149       46.218    11699.722    14196.554     2136.097        7.075        1.402      335.662       12.890        0.001      349.571       30.093      862.129
08/15/2014  15:37:00     -473.023      -40.527      -30.264      194.959      156.773       73.677    38009.052    24577.806     5428.340       14.715        3.401      474.756       70.624        0.022      349.435       29.857      862.101
08/15/2014  15:38:00     -573.458      -89.456      -50.017      188.389      169.828       82.268    35490.500    28841.391     6767.976       20.521        3.555      580.393       88.736        0.023      349.391       29.782      862.121
08/15/2014  15:39:00     -495.310     -115.855      -29.494      202.682      173.484       94.813    41080.137    30096.694     8989.434       16.988        4.008      508.679      105.500        0.043      349.433       29.855      862.123
08/15/2014  15:40:00     -404.535      -92.711      -25.422      162.793       96.617       60.263    26501.471     9334.771     3631.640       10.617        1.973      415.022       68.815        0.027      349.569       30.090      862.162
08/15/2014  15:41:00     -344.835      -72.707      -32.789      117.734      111.452       65.465    13861.408    12421.580     4285.622        7.791        1.528      352.417       56.960        0.026      349.507       29.982      862.155
08/15/2014  15:42:00     -293.064      -71.020      -12.682       91.419      105.509       49.122     8357.484    11132.173     2412.933        5.649        1.095      301.547       41.713        0.019      349.736       30.380      862.170
08/15/2014  15:43:00     -332.759     -164.168       -7.776      155.102      115.803       74.695    24056.711    13410.234     5579.409        9.038        2.152      371.052       73.441        0.039      349.335       29.684      862.151
08/15/2014  15:44:00     -269.957      -57.219      -19.082      149.518      115.053       73.366    22355.581    13237.152     5382.519        5.874        2.049      275.955       62.872        0.052      349.625       30.186      862.135
08/15/2014  15:45:00     -280.858     -139.215        3.859      162.457      125.045       76.833    26392.418    15636.200     5903.272        7.310        2.397      313.468       66.870        0.046      349.674       30.272      862.128
08/15/2014  15:46:00     -282.229     -153.644      -14.750      121.923      111.349       59.297    14865.111    12398.573     3516.118        6.712        1.539      321.340       51.181        0.025      349.294       29.613      862.127
08/15/2014  15:47:00     -158.745     -111.754       -4.586      139.556       83.175       59.499    19475.966     6918.117     3540.080        3.382        1.497      194.136       67.324        0.120      349.345       29.702      862.114
08/15/2014  15:48:00     -251.598        5.360      -21.044       88.818      122.635       52.590     7888.624    15039.278     2765.729        4.473        1.285      251.655       45.888        0.033      349.591       30.128      862.131
08/15/2014  15:49:00     -104.215      -58.087       12.783      147.443       78.986       54.333    21739.507     6238.725     2952.125        2.266        1.547      119.310       54.072        0.205      349.849       30.576      862.130
08/15/2014  15:50:00     -186.368      -32.370        5.219      123.590      111.269       58.318    15274.459    12380.883     3401.017        3.343        1.553      189.158       41.818        0.049      349.746       30.397      862.151
08/15/2014  15:51:00     -368.156       25.934      -29.135      166.586      126.908       67.988    27751.046    16105.704     4622.434        9.276        2.424      369.068       73.584        0.040      349.446       29.876      862.133
08/15/2014  15:52:00     -500.371      -19.949      -44.755      198.821      100.012       64.494    39529.885    10002.365     4159.415       15.322        2.685      500.768       81.453        0.026      349.209       29.465      862.112
08/15/2014  15:53:00     -147.658      -67.481       16.955      177.910      126.020       77.969    31651.891    15881.158     6079.139        4.012        2.681      162.347       97.118        0.358      349.673       30.273      862.084
08/15/2014  15:54:00     -294.315     -189.103      -10.114      114.008      127.148       63.672    12997.845    16166.729     4054.141        7.784        1.661      349.830       55.740        0.025      349.276       29.582      862.073
08/15/2014  15:55:00      -40.002       75.023       -6.693       89.747      101.043       41.647     8054.590    10209.684     1734.467        1.363        1.000       85.022       34.106        0.161      349.616       30.175      862.074
08/15/2014  15:56:00      -66.906      118.778       23.941      103.987      120.739       55.424    10813.347    14577.962     3071.836        2.380        1.423      136.326       60.092        0.194      349.704       30.327      862.051
08/15/2014  15:57:00     -393.843       71.039      -31.756      208.756      133.231       74.342    43579.226    17750.426     5526.796       11.400        3.343      400.199       85.685        0.046      349.545       30.048      862.038
08/15/2014  15:58:00     -276.115      -32.336      -24.360      168.890      136.384       70.587    28523.749    18600.728     4982.568        6.498        2.605      278.002       79.652        0.082      349.578       30.105      862.053
08/15/2014  15:59:00     -158.792       73.267       -6.957      109.898      104.702       52.585    12077.529    10962.565     2765.216        2.821        1.290      174.879       55.528        0.101      349.457       29.896      862.046
08/15/2014  16:00:00     -172.570       95.545      -27.325       74.944       71.218       39.004     5616.569     5072.008     1521.351        2.593        0.610      197.254       37.335        0.036      349.320       29.658      862.029
08/15/2014  16:01:00     -218.444      -32.067      -15.867       81.354       69.745       50.332     6618.446     4864.389     2533.307        3.150        0.701      220.785       37.395        0.029      349.503       29.976      861.988
08/15/2014  16:02:00     -328.392       64.482      -37.633      113.081      151.221       67.803    12787.206    22867.798     4597.297        7.683        2.013      334.663       62.638        0.035      349.502       29.973      862.007
08/15/2014  16:03:00     -344.937     -155.233      -24.990      143.601      115.409       66.788    20621.152    13319.319     4460.683        9.104        1.920      378.258       66.703        0.031      349.458       29.897      861.983
08/15/2014  16:04:00     -172.282       75.066        3.298      153.736      102.685       72.808    23634.892    10544.122     5301.071        3.740        1.974      187.925       70.240        0.140      349.459       29.900      861.962
08/15/2014  16:05:00     -183.062       55.099      -16.924       94.678      185.780       67.748     8963.977    34514.346     4589.840        4.244        2.403      191.175       58.532        0.094      349.503       29.975      861.950
08/15/2014  16:06:00     -295.380      -12.138      -19.831      178.929      183.952       89.641    32015.562    33838.493     8035.532        8.083        3.694      295.630       90.760        0.094      349.582       30.113      861.959
08/15/2014  16:07:00     -249.675      105.124      -26.009       96.309       46.222       40.404     9275.420     2136.458     1632.469        4.355        0.652      270.903       32.832        0.015      349.328       29.672      861.949
08/15/2014  16:08:00     -340.789      -61.799      -21.339      199.445      153.700       65.251    39778.207    23623.647     4257.697        9.402        3.383      346.347       44.594        0.017      349.590       30.126      861.949
08/15/2014  16:09:00     -489.670     -190.746      -20.206      197.427      125.363       80.105    38977.507    15715.989     6416.751       16.883        3.056      525.510       70.849        0.018      349.342       29.696      861.926
08/15/2014  16:10:00     -316.025     -143.945      -10.886      142.241      180.410       79.152    20232.571    32547.598     6265.106        8.987        2.952      347.263       74.853        0.046      349.593       30.129      861.937
08/15/2014  16:11:00     -242.866      -91.608      -11.749      207.014      110.147       70.537    42854.685    12132.419     4975.446        6.373        2.998      259.569       80.051        0.095      349.825       30.536      861.941
08/15/2014  16:12:00     -232.674      -89.144       -4.830      197.790      120.398       72.813    39120.780    14495.567     5301.754        6.050        2.946      249.166       88.993        0.128      349.772       30.443      861.953
08/15/2014  16:13:00     -425.139       77.861      -38.126      163.451      164.219       75.238    26716.307    26967.846     5660.786       12.379        2.967      432.210       61.647        0.020      349.434       29.855      861.956
08/15/2014  16:14:00     -370.881        1.173      -39.437      139.320      138.401       74.866    19410.033    19154.894     5604.975        9.163        2.208      370.883       70.998        0.037      349.662       30.250      861.943
08/15/2014  16:15:00     -338.509      -51.645      -25.976      194.217      128.436       68.685    37720.169    16495.925     4717.584        8.842        2.947      342.426       71.438        0.044      349.557       30.069      861.968
08/15/2014  16:16:00     -194.155       -9.232      -29.705      102.839       82.103       43.390    10575.851     6740.916     1882.735        2.893        0.960      194.374       44.317        0.052      349.595       30.135      861.975
08/15/2014  16:17:00     -116.226       72.752      -14.822       78.951       97.950       47.890     6233.246     9594.298     2293.447        1.857        0.906      137.119       38.690        0.080      349.709       30.336      861.945
08/15/2014  16:18:00     -208.566      -69.371      -12.927      115.625      107.348       55.871    13369.043    11523.532     3121.534        3.824        1.401      219.800       28.862        0.017      349.753       30.409      861.923
08/15/2014  16:19:00     -271.359      -36.402        1.414      166.455      109.880       62.256    27707.105    12073.594     3875.778        5.930        2.183      273.789       80.150        0.086      349.758       30.418      861.946
08/15/2014  16:20:00     -170.133      -17.693        9.407      153.575       87.990       60.294    23585.348     7742.282     3635.385        3.215        1.748      171.050       75.071        0.193      349.792       30.479      861.951
08/15/2014  16:21:00     -205.526      -37.908       22.069      187.779      143.587       68.620    35261.107    20617.120     4708.691        5.236        3.029      208.993       80.053        0.147      349.796       30.485      861.959
08/15/2014  16:22:00     -409.926     -134.000       -1.339      197.792      136.021       73.790    39121.670    18501.677     5444.912       12.452        3.153      431.272       80.594        0.035      349.629       30.194      861.955
08/15/2014  16:23:00     -353.625      -69.121      -19.356      134.980      151.681       64.979    18219.724    23007.241     4222.280        8.782        2.272      360.317       60.410        0.028      349.695       30.308      861.985
08/15/2014  16:24:00     -340.610      -93.714       -9.290      146.533      124.523       62.174    21471.974    15506.067     3865.618        8.286        2.042      353.267       74.337        0.044      349.691       30.302      861.998
08/15/2014  16:25:00     -326.002      -39.285       -5.586      161.741      138.917       67.906    26160.211    19297.971     4611.252        7.895        2.503      328.360       75.298        0.053      349.462       29.903      861.998
08/15/2014  16:26:00     -327.571       41.083      -21.930      118.301       87.914       65.790    13995.226     7728.835     4328.324        6.776        1.303      330.137       63.487        0.037      349.471       29.919      861.999
08/15/2014  16:27:00     -206.691        2.210       12.829      162.847      117.348       71.044    26519.044    13770.508     5047.180        4.410        2.267      206.703       89.116        0.186      349.661       30.251      861.996
08/15/2014  16:28:00     -256.528      -36.275      -14.464      123.458       92.665       53.028    15241.933     8586.763     2811.975        4.698        1.332      259.080       40.830        0.025      349.811       30.508      862.005
08/15/2014  16:29:00     -257.587       67.345      -32.748       88.676       86.777       53.650     7863.497     7530.216     2878.357        4.511        0.914      266.245       45.198        0.029      349.490       29.954      862.005
08/15/2014  16:30:00     -247.571      -99.306      -10.445       99.429      100.977       45.607     9886.149    10196.427     2080.019        4.671        1.108      266.746       41.324        0.024      349.682       30.286      862.004
08/15/2014  16:31:00     -187.666      -40.479        1.275      152.950       88.053       63.524    23393.831     7753.351     4035.321        3.601        1.759      191.982       78.471        0.167      349.706       30.328      862.000
08/15/2014  16:32:00     -332.286      -58.278       -4.231      121.299       95.352       58.293    14713.473     9092.038     3398.116        7.051        1.360      337.358       60.758        0.032      349.650       30.230      862.023
08/15/2014  16:33:00     -311.132      -25.880      -10.440      149.547      117.910       65.519    22364.192    13902.821     4292.684        6.906        2.028      312.206       68.422        0.048      349.723       30.356      862.031
08/15/2014  16:34:00     -244.915      -95.941       -9.376      143.693      151.819       70.612    20647.558    23048.865     4986.000        5.897        2.434      263.036       69.486        0.070      349.560       30.076      862.027
08/15/2014  16:35:00     -230.152     -156.733       11.155      207.989      125.497       84.544    43259.282    15749.534     7147.629        7.189        3.308      278.451      103.088        0.137      349.503       29.975      862.006
08/15/2014  16:36:00     -247.375      -66.181      -11.642      127.087      137.730       67.350    16150.984    18969.455     4535.997        5.268        1.983      256.075       67.305        0.069      349.581       30.111      862.020
08/15/2014  16:37:00     -453.584      -70.540      -24.750      154.430      108.283       68.377    23848.604    11725.217     4675.419       12.578        2.012      459.036       76.752        0.028      349.510       29.987      861.998
08/15/2014  16:38:00     -410.426     -195.898      -15.716      139.760      134.000       69.412    19532.831    17956.048     4818.022       12.468        2.115      454.781       61.129        0.018      349.456       29.892      861.989
08/15/2014  16:39:00     -484.368      -80.495      -33.598      133.056      126.422       73.961    17703.948    15982.505     5470.266       14.068        1.958      491.011       60.271        0.015      349.429       29.846      861.980
08/15/2014  16:40:00     -253.872      -89.709        0.933      165.658      127.119       58.436    27442.715    16159.208     3414.789        5.975        2.351      269.255       70.266        0.068      349.745       30.395      861.973
08/15/2014  16:41:00     -255.176       50.868       -8.724      175.249      100.757       62.293    30712.319    10152.051     3880.358        5.625        2.237      260.196       68.138        0.069      349.742       30.391      861.977
08/15/2014  16:42:00     -341.746      -89.139      -41.962      177.254      146.906       73.580    31418.896    21581.318     5414.007        9.244        2.921      353.180       48.950        0.019      349.682       30.288      861.972
08/15/2014  16:43:00     -362.403       -5.690      -38.648      155.471      136.416       63.002    24171.154    18609.316     3969.219        8.980        2.337      362.447       47.013        0.017      349.589       30.124      861.977
08/15/2014  16:44:00     -199.122      154.786      -24.193      116.663      139.099       63.635    13610.355    19348.653     4049.392        5.059        1.850      252.207       60.491        0.058      349.674       30.271      861.967
08/15/2014  16:45:00     -267.557       -3.173      -40.532       92.379       77.804       53.874     8533.950     6053.431     2902.398        4.536        0.874      267.576       28.098        0.011      349.566       30.084      861.943
08/15/2014  16:46:00     -241.878      -21.993      -25.598      116.428      113.874       51.573    13555.499    12967.208     2659.744        4.441        1.459      242.876       61.848        0.065      349.582       30.112      861.932
08/15/2014  16:47:00      -59.640       -2.777        7.471      157.471      123.508       63.442    24797.216    15254.174     4024.852        2.384        2.204       59.705       53.162        0.793      349.780       30.458      861.933
08/15/2014  16:48:00     -340.795      -18.583      -34.230      104.163       94.952       49.541    10849.835     9015.818     2454.269        6.998        1.116      341.301       42.380        0.015      349.506       29.980      861.948
08/15/2014  16:49:00     -252.759     -101.043      -11.410      120.683      121.344       61.398    14564.348    14724.472     3769.765        5.364        1.653      272.208       60.766        0.050      349.654       30.237      861.965
08/15/2014  16:50:00     -163.368      -30.316        7.311      139.954      101.865       57.072    19587.247    10376.505     3257.231        3.043        1.661      166.157       65.474        0.155      349.614       30.170      861.958
08/15/2014  16:51:00     -209.367       40.814      -19.546      107.762      134.403       59.141    11612.665    18064.234     3497.709        3.952        1.659      213.308       63.039        0.087      349.658       30.245      861.969
08/15/2014  16:52:00     -203.796       28.241      -11.335       98.628       81.509       56.586     9727.435     6643.711     3201.975        3.101        0.979      205.744       50.191        0.060      349.747       30.400      861.957
08/15/2014  16:53:00     -187.937       20.092      -19.171       98.163       73.514       53.358     9635.930     5404.236     2847.076        2.699        0.894      189.008       49.749        0.069      349.843       30.565      861.957
08/15/2014  16:54:00     -246.947      -71.206      -28.537      107.898       80.874       41.566    11641.897     6540.683     1727.766        4.338        0.996      257.008       25.983        0.010      349.643       30.218      861.960
08/15/2014  16:55:00     -267.933      -47.952      -12.430      245.778       82.775       64.195    60406.695     6851.672     4121.006        7.280        3.569      272.190      103.226        0.144      349.604       30.153      861.976
08/15/2014  16:56:00     -437.951      -86.722      -67.400      113.604       91.889       64.022    12905.897     8443.673     4098.838       11.465        1.272      446.455       47.232        0.011      349.340       29.691      861.936
08/15/2014  16:57:00     -540.895     -144.942      -37.268      107.530      120.452       58.208    11562.724    14508.798     3388.135       17.221        1.473      559.978       38.327        0.005      349.442       29.868      861.897
08/15/2014  16:58:00     -442.214     -147.096      -11.485      184.385      129.559       74.028    33997.887    16785.517     5480.114       13.678        2.813      466.037       81.397        0.031      349.452       29.887      861.930
08/15/2014  16:59:00     -316.913      -53.594      -15.671      137.822       89.007       64.248    18994.854     7922.270     4127.816        6.729        1.552      321.413       74.919        0.054      349.426       29.840      861.945
08/15/2014  17:00:00     -449.115      -88.417      -43.513      136.194      117.589       65.854    18548.806    13827.147     4336.725       12.406        1.836      457.736       74.689        0.027      349.382       29.766      861.952
08/15/2014  17:01:00     -370.261      -85.708      -22.790      166.408      106.620       76.313    27691.762    11367.779     5823.618        9.491        2.244      380.051       86.232        0.051      349.586       30.120      861.958
08/15/2014  17:02:00     -283.383      -46.046        1.706      132.659       88.037       59.184    17598.310     7750.542     3502.783        5.563        1.443      287.100       63.272        0.049      349.482       29.939      861.935
08/15/2014  17:03:00     -159.668      -10.380       -2.344      106.293       90.061       50.831    11298.152     8110.923     2583.765        2.380        1.100      160.005       52.273        0.107      349.738       30.385      861.916
08/15/2014  17:04:00     -256.859       24.491      -10.437      125.427      116.649       58.396    15731.895    13607.095     3410.098        4.971        1.637      258.024       47.526        0.034      349.646       30.223      861.943
08/15/2014  17:05:00     -368.250       86.968      -56.490      168.324      202.737       82.546    28332.824    41102.475     6813.896       11.129        3.812      378.380       90.691        0.057      349.424       29.838      861.943
08/15/2014  17:06:00     -207.798        1.406       -9.602      106.256      140.320       68.439    11290.242    19689.644     4683.909        3.946        1.783      207.803       37.779        0.033      349.631       30.197      861.920
08/15/2014  17:07:00     -175.582      -14.287       -2.298      118.255       97.824       57.382    13984.216     9569.529     3292.641        2.894        1.342      176.162       40.846        0.054      349.747       30.399      861.935
08/15/2014  17:08:00     -323.909       76.913      -12.317      163.377      137.490       96.097    26692.174    18903.571     9234.701        8.290        2.742      332.916       99.017        0.088      349.544       30.047      861.928
08/15/2014  17:09:00     -298.549     -123.877      -10.308      192.018      166.242       97.608    36871.049    27636.358     9527.343        8.929        3.702      323.229      104.976        0.105      349.672       30.268      861.921
08/15/2014  17:10:00     -283.044      -95.325       -8.066      145.369      116.669       78.489    21132.170    13611.641     6160.533        6.508        2.045      298.665       77.662        0.068      349.627       30.190      861.939
08/15/2014  17:11:00     -356.874     -141.168      -31.442      163.669      127.885       81.222    26787.618    16354.471     6597.079        9.900        2.487      383.781       79.726        0.043      349.570       30.092      861.929
08/15/2014  17:12:00     -230.431     -149.725        3.618      144.846      109.790       77.377    20980.364    12053.942     5987.148        5.727        1.951      274.802       83.561        0.092      349.715       30.342      861.951
08/15/2014  17:13:00     -275.672      -72.396      -14.575      111.164       90.424       62.001    12357.414     8176.432     3844.131        5.291        1.219      285.020       39.014        0.019      349.723       30.358      861.950
08/15/2014  17:14:00     -307.985      -57.868       -2.180      143.843      100.475       59.512    20690.793    10095.281     3541.622        6.626        1.716      313.374       59.979        0.037      349.804       30.497      861.977
08/15/2014  17:15:00     -413.908      -50.969      -35.133      141.560      119.984       67.045    20039.124    14396.262     4494.979       10.703        1.947      417.034       66.227        0.025      349.556       30.067      861.979
08/15/2014  17:16:00     -394.056       86.221      -33.263      126.315      123.831       64.105    15955.446    15334.207     4109.434        9.960        1.770      403.378       60.254        0.022      349.499       29.967      861.977
08/15/2014  17:17:00     -373.797      -55.898      -43.910      124.509      111.347       58.378    15502.484    12398.045     3407.973        8.804        1.565      377.954       57.113        0.023      349.462       29.903      861.971
08/15/2014  17:18:00     -341.968      -59.194      -31.403      101.252      122.617       54.054    10251.945    15034.911     2921.791        7.481        1.410      347.054       37.585        0.012      349.657       30.242      861.949
08/15/2014  17:19:00     -245.773       11.127      -38.350       85.868      100.475       54.601     7373.274    10095.230     2981.312        4.122        1.022      246.024       36.388        0.022      349.697       30.312      861.935
08/15/2014  17:20:00     -288.399     -100.748      -24.697      123.691      133.677       71.060    15299.555    17869.663     5049.501        6.607        1.911      305.490       64.448        0.045      349.625       30.187      861.938
08/15/2014  17:21:00     -321.174     -113.090      -12.028      157.998      125.382       72.225    24963.455    15720.740     5216.460        8.098        2.295      340.503       86.363        0.064      349.448       29.878      861.940
08/15/2014  17:22:00     -388.458      -83.264      -22.200      153.746      134.502       74.493    23637.818    18090.817     5549.166       10.279        2.364      397.281       85.429        0.046      349.495       29.963      861.933
08/15/2014  17:23:00     -459.189     -125.211       -3.597      189.476      147.914       78.444    35901.147    21878.474     6153.492       14.523        3.197      475.954       84.248        0.031      349.524       30.011      861.941
08/15/2014  17:24:00     -308.447      -47.001      -17.035      196.188      142.688       79.653    38489.573    20359.843     6344.593        8.140        3.260      312.007       99.748        0.102      349.589       30.124      861.956
08/15/2014  17:25:00     -231.952     -103.989        6.745      159.766      116.915       75.870    25525.241    13669.120     5756.196        5.480        2.248      254.195       74.851        0.087      349.653       30.237      861.974
08/15/2014  17:26:00     -421.110      -29.423      -30.772      140.268      136.134       62.853    19675.248    18532.589     3950.441       11.064        2.108      422.137       69.810        0.027      349.319       29.657      861.993
08/15/2014  17:27:00     -444.528     -123.849      -22.813      108.632       95.092       55.894    11800.804     9042.577     3124.125       11.871        1.198      461.458       50.147        0.012      349.423       29.838      861.954
08/15/2014  17:28:00     -381.537      -95.095      -29.835      180.556      165.017       83.561    32600.488    27230.460     6982.449       11.115        3.341      393.210       80.103        0.042      349.462       29.904      861.960
08/15/2014  17:29:00     -376.105      -13.091      -22.022      206.890      129.900       70.751    42803.303    16873.991     5005.714       10.338        3.234      376.333       77.554        0.042      349.502       29.974      861.955
08/15/2014  17:30:00     -370.396      -97.768       -2.599      171.012      149.722       83.404    29244.997    22416.771     6956.173       10.268        2.931      383.082       77.980        0.041      349.461       29.900      861.948
08/15/2014  17:31:00     -399.636      -79.581      -17.635      157.597      143.799       83.316    24836.852    20678.172     6941.520       10.939        2.623      407.483       87.980        0.047      349.357       29.722      861.966
08/15/2014  17:32:00     -417.647      -77.560      -24.865      127.742       88.854       59.848    16317.965     7894.980     3581.799       10.442        1.390      424.788       64.152        0.023      349.276       29.580      861.980
08/15/2014  17:33:00     -146.665       21.269        7.192      122.166       84.659       62.874    14924.456     7167.100     3953.159        2.402        1.302      148.200       67.019        0.205      349.449       29.882      861.944
08/15/2014  17:34:00     -330.605      -11.908      -10.839      155.205      113.978       55.476    24088.513    12990.891     3077.533        7.485        2.008      330.820       65.359        0.039      349.425       29.840      861.953
08/15/2014  17:35:00     -350.846      -39.608      -33.756      149.661      109.190       59.765    22398.448    11922.417     3571.821        8.184        1.895      353.075       76.294        0.047      349.413       29.820      861.935
08/15/2014  17:36:00     -471.388       74.310      -46.853      124.172      116.594       64.260    15418.630    13594.262     4129.401       13.153        1.657      477.209       63.435        0.018      349.314       29.648      861.913
08/15/2014  17:37:00     -266.270      -66.352       -9.741      142.634       74.983       68.055    20344.399     5622.434     4631.509        5.299        1.530      274.413       79.425        0.084      349.538       30.035      861.889
08/15/2014  17:38:00     -299.075      -30.663      -15.875      107.269      103.287       58.023    11506.728    10668.266     3366.667        5.808        1.277      300.643       56.410        0.035      349.585       30.117      861.916
08/15/2014  17:39:00     -249.681       38.621      -17.225      141.782      111.468       54.018    20102.164    12425.201     2917.916        4.978        1.772      252.650       50.400        0.040      349.650       30.230      861.903
08/15/2014  17:40:00     -220.402      -89.143       -8.916      125.382      115.820       57.387    15720.699    13414.265     3293.294        4.451        1.621      237.747       60.311        0.064      349.549       30.056      861.892
08/15/2014  17:41:00     -330.420      -84.328      -17.019      124.041      107.823       64.547    15386.236    11625.702     4166.328        7.387        1.559      341.011       53.942        0.025      349.609       30.159      861.880
08/15/2014  17:42:00     -403.118     -113.167      -15.814      159.143      161.827       83.010    25326.397    26188.094     6890.651       11.697        2.920      418.701       77.535        0.034      349.578       30.105      861.885
08/15/2014  17:43:00     -338.730     -127.939       -7.921      236.985      151.898       89.101    56161.715    23073.127     7938.954       10.915        4.359      362.087      107.320        0.088      349.350       29.710      861.864
08/15/2014  17:44:00     -262.826      -52.564       -9.411      144.187      120.145       73.328    20789.959    14434.839     5376.929        5.626        2.030      268.031       65.145        0.059      349.484       29.943      861.858
08/15/2014  17:45:00     -384.122     -110.503       -8.455      197.528      124.001       80.594    39017.203    15376.223     6495.417       11.035        3.044      399.701       92.719        0.054      349.440       29.868      861.862
08/15/2014  17:46:00     -350.581      -78.423      -16.039      155.972      128.486       64.626    24327.356    16508.609     4176.584        8.715        2.251      359.245       70.669        0.039      349.438       29.861      861.862
08/15/2014  17:47:00     -307.693     -116.862       -0.230      168.428      112.744       74.770    28367.994    12711.142     5590.594        7.749        2.333      329.137       81.764        0.062      349.435       29.858      861.872
08/15/2014  17:48:00     -325.225     -168.986      -11.641      154.131      130.371       69.381    23756.497    16996.703     4813.716        9.001        2.278      366.507       73.254        0.040      349.383       29.767      861.870
08/15/2014  17:49:00     -272.631     -201.464       13.193      150.798      101.488       77.946    22739.887    10299.807     6075.555        7.709        1.956      338.991       83.186        0.060      349.270       29.571      861.872
08/15/2014  17:50:00     -317.493     -129.127       -1.586      154.632      114.053       63.083    23911.044    13007.985     3979.422        7.918        2.045      342.747       64.605        0.036      349.217       29.479      861.871
08/15/2014  17:51:00     -162.443     -106.198       -5.033       91.216       78.987       53.197     8320.390     6238.871     2829.911        2.754        0.869      194.077       49.778        0.066      349.309       29.642      861.883
08/15/2014  17:52:00     -126.510      -78.731        5.871       70.160       51.825       39.472     4922.475     2685.791     1558.061        1.570        0.458      149.008       36.255        0.059      349.431       29.853      861.873
08/15/2014  17:53:00     -218.062      -58.301       -6.444       89.123       61.025       43.508     7942.920     3724.043     1892.942        3.227        0.678      225.721       41.191        0.033      349.522       30.009      861.872
08/15/2014  17:54:00     -265.244      -59.181       -7.367      147.023      116.283       58.836    21615.675    13521.685     3461.655        5.625        1.930      271.766       66.385        0.060      349.483       29.943      861.874
08/15/2014  17:55:00     -365.897      -56.026      -19.962      110.514       80.490       49.409    12213.453     6478.573     2441.209        7.927        1.057      370.161       43.867        0.014      349.283       29.593      861.874
08/15/2014  17:56:00     -254.284      -77.239       -9.874      110.237       89.963       53.338    12152.297     8093.359     2844.936        4.690        1.155      265.756       58.784        0.049      349.363       29.734      861.860
08/15/2014  17:57:00     -238.874      -31.807      -39.292       87.012       97.263       55.230     7571.100     9460.017     3050.323        3.984        1.004      240.982       46.074        0.037      349.361       29.729      861.857
08/15/2014  17:58:00     -231.677      -44.486       -6.982      153.298      126.222       62.944    23500.243    15931.953     3961.956        4.954        2.170      235.910       62.898        0.071      349.530       30.023      861.826
08/15/2014  17:59:00     -402.025     -181.519      -10.686      192.493      162.934       91.355    37053.384    26547.603     8345.647       13.330        3.597      441.104       98.518        0.050      349.272       29.574      861.818
08/15/2014  18:00:00     -358.686      -92.770      -20.466      152.330      102.461       66.109    23204.323    10498.169     4370.426        8.787        1.904      370.488       60.010        0.026      349.270       29.571      861.850
08/15/2014  18:01:00     -259.362      -52.811       -7.351      149.999      113.042       60.882    22499.827    12778.456     3706.669        5.454        1.949      264.684       58.690        0.049      349.332       29.679      861.840
08/15/2014  18:02:00     -333.629     -130.498      -18.478      147.113      121.391       67.570    21642.149    14735.870     4565.764        8.480        2.047      358.243       62.892        0.031      349.305       29.632      861.852
08/15/2014  18:03:00     -383.797     -187.699      -20.847      134.859       85.453       49.367    18187.047     7302.234     2437.102       10.544        1.396      427.236       41.161        0.009      349.167       29.392      861.841
08/15/2014  18:04:00     -138.936      -68.028        3.533       97.169       92.638       55.342     9441.903     8581.784     3062.740        2.251        1.054      154.696       54.804        0.126      349.347       29.705      861.849
08/15/2014  18:05:00     -182.813     -101.143       -6.787      142.975       93.636       56.433    20441.731     8767.744     3184.736        3.804        1.620      208.927       53.529        0.066      349.318       29.655      861.835
08/15/2014  18:06:00     -287.719      -88.035      -31.336      179.037       94.890       61.337    32054.321     9004.052     3762.230        6.816        2.241      300.886       77.143        0.066      349.291       29.607      861.823
08/15/2014  18:07:00     -295.088      -85.747       -9.352      135.925       87.911       64.052    18475.470     7728.357     4102.657        6.241        1.515      307.293       73.634        0.057      349.376       29.754      861.832
08/15/2014  18:08:00     -225.052      -46.968        8.832      158.286      122.386       72.026    25054.490    14978.435     5187.696        4.907        2.261      229.901       72.970        0.101      349.328       29.672      861.814
08/15/2014  18:09:00     -325.890      -88.710       -5.856      125.467       96.254       57.861    15741.959     9264.928     3347.875        7.123        1.418      337.748       58.888        0.030      349.290       29.605      861.820
08/15/2014  18:10:00     -195.639      -57.512       -8.999       98.195      102.674       50.461     9642.206    10541.879     2546.356        3.219        1.137      203.918       48.937        0.058      349.397       29.791      861.840
08/15/2014  18:11:00     -283.263     -127.949       -5.892       84.908       67.879       47.612     7209.321     4607.556     2266.907        5.536        0.704      310.819       44.264        0.020      349.178       29.410      861.834
08/15/2014  18:12:00     -178.154      -58.534      -14.746       79.602       92.789       41.568     6336.490     8609.724     1727.921        2.603        0.834      187.524       42.193        0.051      349.290       29.608      861.824
08/15/2014  18:13:00     -259.937      -18.073      -18.698      109.948       85.778       52.190    12088.666     7357.935     2723.796        4.520        1.109      260.565       47.254        0.033      349.383       29.768      861.821
08/15/2014  18:14:00     -321.042      -20.371      -18.262      124.026       96.840       61.080    15382.435     9378.079     3730.797        6.615        1.425      321.688       62.407        0.038      349.359       29.725      861.809
08/15/2014  18:15:00     -522.198       13.969      -54.770      115.016      113.274       66.919    13228.648    12831.003     4478.117       15.321        1.527      522.385       54.072        0.011      349.196       29.442      861.782
08/15/2014  18:16:00     -373.382      -84.632      -22.034      105.136      114.011       65.124    11053.616    12998.442     4241.088        8.767        1.415      382.853       56.412        0.022      349.302       29.626      861.775
08/15/2014  18:17:00     -331.621     -110.116       -7.686      181.306      136.319       84.508    32871.847    18582.814     7141.604        9.037        2.930      349.426       80.958        0.054      349.353       29.716      861.775
08/15/2014  18:18:00     -538.801      -51.550      -31.961      199.828      133.240       91.524    39931.395    17752.855     8376.566       18.001        3.303      541.261      104.080        0.037      349.158       29.377      861.768
08/15/2014  18:19:00     -405.404     -151.505      -16.106      248.749      141.639       87.968    61875.927    20061.736     7738.337       13.860        4.484      432.789      111.557        0.066      349.210       29.468      861.769
08/15/2014  18:20:00     -432.184     -141.090      -23.141      162.018      129.023       79.248    26249.749    16647.047     6280.175       12.819        2.459      454.631       71.854        0.025      349.169       29.396      861.777
08/15/2014  18:21:00     -291.662      -40.348        9.308      160.835      100.059       80.256    25867.897    10011.796     6441.027        6.454        2.116      294.439       78.361        0.071      349.182       29.419      861.792
08/15/2014  18:22:00     -257.549     -108.669       -7.141      151.153      117.801       67.819    22847.327    13876.999     4599.379        5.975        2.066      279.536       69.772        0.062      349.230       29.500      861.796
08/15/2014  18:23:00     -171.945      -78.905       10.094      128.018      125.945       63.987    16388.699    15862.107     4094.324        3.611        1.817      189.185       71.779        0.144      349.203       29.457      861.772
08/15/2014  18:24:00     -107.476      -13.046       14.265       83.442       81.076       45.241     6962.574     6573.366     2046.762        1.375        0.779      108.264       43.180        0.159      349.390       29.782      861.805
08/15/2014  18:25:00     -442.733       21.797      -43.792      224.052      134.412       67.253    50199.118    18066.534     4523.004       13.558        3.639      443.269       77.110        0.030      349.209       29.464      861.817
08/15/2014  18:26:00     -416.263        0.110      -45.193      162.113      103.782       63.291    26280.517    10770.641     4005.714       10.818        2.053      416.263       69.194        0.028      349.139       29.344      861.796
08/15/2014  18:27:00     -346.683      -81.303      -23.556      121.293       88.871       51.443    14711.924     7898.137     2646.371        7.630        1.263      356.089       56.178        0.025      349.181       29.416      861.807
08/15/2014  18:28:00     -352.651       -0.661      -31.538      113.961      111.552       53.847    12987.128    12443.899     2899.485        7.684        1.417      352.652       47.293        0.018      349.228       29.497      861.807
08/15/2014  18:29:00     -320.431       37.701      -20.525      135.215      111.437       54.847    18283.136    12418.192     3008.238        6.911        1.685      322.641       52.443        0.026      349.191       29.434      861.798
08/15/2014  18:30:00     -337.976      -28.963      -29.372      141.267       91.404       55.972    19956.409     8354.681     3132.918        7.368        1.572      339.215       53.197        0.025      349.222       29.487      861.804
08/15/2014  18:31:00     -201.688      -52.255       -3.350      166.629      119.337       64.990    27765.209    14241.230     4223.751        4.482        2.312      208.347       83.892        0.162      349.142       29.348      861.789
08/15/2014  18:32:00     -268.019       41.654       -2.442      181.340      143.864       65.815    32884.129    20696.896     4331.614        6.573        2.896      271.236       82.611        0.093      349.136       29.339      861.788
08/15/2014  18:33:00     -477.531      -70.400      -32.136      126.785      114.906       70.387    16074.423    13203.366     4954.372       13.412        1.712      482.692       64.273        0.018      349.136       29.337      861.786
08/15/2014  18:34:00     -352.811      -59.921        0.820      190.458       97.361       68.547    36274.090     9479.094     4698.672        8.925        2.523      357.863       82.525        0.053      349.146       29.356      861.774
08/15/2014  18:35:00     -292.645      -67.464        2.181      157.328      126.407       71.441    24752.027    15978.814     5103.879        6.801        2.292      300.320       72.290        0.058      349.146       29.354      861.776
08/15/2014  18:36:00     -180.225      -59.784        0.528       85.089       60.303       37.277     7240.066     3636.419     1389.597        2.416        0.613      189.882       31.215        0.027      349.260       29.554      861.789
08/15/2014  18:37:00     -410.449     -112.697      -11.712      173.928      113.762       63.370    30251.101    12941.886     4015.740       11.425        2.360      425.640       76.550        0.032      349.144       29.353      861.798
08/15/2014  18:38:00     -413.548      -80.305        0.155      210.229      143.706       85.428    44196.224    20651.322     7297.899       12.479        3.607      421.273       98.626        0.055      349.070       29.225      861.782
08/15/2014  18:39:00     -355.831      -89.529      -15.517      210.914      144.625       87.549    44484.637    20916.507     7664.827       10.395        3.653      366.921      104.534        0.081      349.056       29.198      861.799
08/15/2014  18:40:00     -229.900      -31.136       -4.908      172.988      117.855       73.252    29924.911    13889.800     5365.821        5.150        2.459      231.999       80.199        0.119      349.095       29.268      861.790
08/15/2014  18:41:00     -423.862      -62.383      -14.698      157.604      165.949       84.449    24838.978    27539.101     7131.666       12.163        2.975      428.428       89.556        0.044      349.007       29.115      861.787
08/15/2014  18:42:00     -350.703     -124.138      -15.635      109.437       93.302       51.710    11976.482     8705.190     2673.913        8.100        1.168      372.026       41.407        0.012      349.026       29.147      861.796
08/15/2014  18:43:00     -343.324     -105.164      -20.583      109.959       85.152       52.853    12090.980     7250.779     2793.473        7.574        1.107      359.069       36.592        0.010      349.070       29.223      861.800
08/15/2014  18:44:00     -339.580      -41.982      -25.667      101.307       92.840       55.894    10263.137     8619.225     3124.184        6.987        1.100      342.166       49.908        0.021      349.050       29.190      861.815
08/15/2014  18:45:00     -319.704      -82.990      -26.028      139.627       99.290       55.948    19495.827     9858.515     3130.179        7.112        1.624      330.300       48.357        0.021      349.055       29.199      861.805
08/15/2014  18:46:00     -305.146      -62.389       -9.542      142.114       98.759       61.315    20196.491     9753.378     3759.485        6.540        1.685      311.459       63.326        0.041      349.006       29.114      861.808
08/15/2014  18:47:00     -273.098      -87.658        2.156      199.096      120.139       70.767    39639.189    14433.427     5007.972        7.066        2.954      286.821       85.349        0.089      349.052       29.193      861.809
08/15/2014  18:48:00     -321.750      -52.412       -8.242      159.976      101.673       68.800    25592.347    10337.389     4733.496        7.349        2.033      325.991       79.617        0.060      348.962       29.039      861.823
08/15/2014  18:49:00     -313.612      -96.865      -25.877      142.853      116.544       68.013    20406.898    13582.608     4625.832        7.350        1.931      328.231       69.893        0.045      348.973       29.057      861.814
08/15/2014  18:50:00     -281.360        5.797      -14.206      125.202      103.663       46.784    15675.610    10745.988     2188.698        5.400        1.431      281.419       43.301        0.024      348.970       29.052      861.827
08/15/2014  18:51:00     -350.706      -84.129      -12.852      113.328      111.972       61.447    12843.246    12537.640     3775.795        7.969        1.458      360.656       54.309        0.023      348.945       29.008      861.840
08/15/2014  18:52:00     -257.411      -42.821      -18.247      108.283      111.047       45.458    11725.295    12331.529     2066.388        4.727        1.306      260.949       51.911        0.040      348.971       29.052      861.854
08/15/2014  18:53:00     -286.122      -21.177      -15.069      133.089       90.529       53.266    17712.691     8195.579     2837.221        5.564        1.437      286.904       58.528        0.042      348.975       29.060      861.860
08/15/2014  18:54:00     -244.001     -100.276       -7.964      100.259       73.940       44.444    10051.858     5467.147     1975.253        4.357        0.875      263.802       42.673        0.026      349.008       29.116      861.867
08/15/2014  18:55:00     -224.945     -115.326       -3.745      105.256       78.167       53.982    11078.723     6110.071     2914.089        4.200        1.005      252.785       45.733        0.033      348.934       28.989      861.870
08/15/2014  18:56:00     -186.795      -91.753        4.103      122.809       82.673       54.222    15082.116     6834.802     2940.007        3.409        1.243      208.113       65.552        0.099      348.947       29.012      861.878
08/15/2014  18:57:00     -237.734     -109.970        4.026      143.657       92.661       66.129    20637.442     8586.153     4373.045        5.111        1.680      261.937       74.260        0.080      348.929       28.980      861.882
08/15/2014  18:58:00     -356.764       31.324      -28.412      160.881      125.487       60.599    25882.586    15746.917     3672.218        8.718        2.265      358.136       60.275        0.028      348.933       28.989      861.908
08/15/2014  18:59:00     -266.468      -89.731       -3.109      167.776      100.036       66.789    28148.689    10007.253     4460.788        6.083        2.131      281.170       83.787        0.089      348.922       28.969      861.908
08/15/2014  19:00:00     -314.744      -80.392       -8.572      105.275       98.995       56.156    11082.728     9800.093     3153.548        6.481        1.202      324.849       58.162        0.032      348.865       28.868      861.914
08/15/2014  19:01:00     -117.049      -61.219        3.839      117.712       79.544       43.314    13856.167     6327.238     1876.103        1.976        1.103      132.092       39.059        0.087      348.879       28.895      861.925
08/15/2014  19:02:00     -334.489        6.708      -22.217      120.815      103.285       58.534    14596.371    10667.742     3426.247        7.055        1.435      334.556       66.491        0.039      348.849       28.841      861.919
08/15/2014  19:03:00     -311.076       15.077      -26.366      103.054       62.547       51.751    10620.137     3912.087     2678.208        5.745        0.861      311.441       45.427        0.021      348.832       28.812      861.916
08/15/2014  19:04:00     -245.378      -34.544       -4.463      121.163      105.127       51.723    14680.578    11051.593     2675.263        4.491        1.420      247.797       60.331        0.059      348.886       28.906      861.912
08/15/2014  19:05:00     -336.422      -61.767       -8.507      110.694      115.173       59.720    12253.064    13264.779     3566.434        7.307        1.454      342.046       55.855        0.027      348.798       28.753      861.933
08/15/2014  19:06:00     -387.894       12.783      -18.686      128.257      127.905       72.987    16449.931    16359.741     5327.138        9.455        1.907      388.105       71.802        0.034      348.745       28.662      861.913
08/15/2014  19:07:00     -317.173      -95.786      -16.373      199.801      142.699       74.731    39920.547    20362.977     5584.777        8.794        3.293      331.322       99.693        0.091      348.735       28.645      861.924
08/15/2014  19:08:00     -452.167      -86.612      -14.642      164.183      145.575       77.296    26956.172    21192.126     5974.734       13.314        2.706      460.387       74.196        0.026      348.721       28.622      861.913
08/15/2014  19:09:00     -258.356      -21.887       -0.139      149.342      136.476       64.525    22303.169    18625.799     4163.522        5.615        2.255      259.282       67.190        0.067      348.693       28.572      861.919
08/15/2014  19:10:00     -321.337       11.393      -27.287      162.982       98.346       57.724    26563.194     9671.948     3332.030        7.184        1.978      321.539       68.301        0.045      348.682       28.554      861.934
08/15/2014  19:11:00     -210.313      -79.122        0.936      141.453      105.696       54.305    20008.938    11171.651     2949.034        4.230        1.706      224.704       64.917        0.083      348.692       28.570      861.945
08/15/2014  19:12:00     -254.266      -83.572       -7.055      147.990      131.617       72.278    21901.075    17322.989     5224.119        5.806        2.222      267.648       65.495        0.060      348.669       28.532      861.943
08/15/2014  19:13:00     -278.461     -100.818        5.450      203.589      145.516       82.929    41448.327    21174.814     6877.173        7.860        3.475      296.150       96.175        0.105      348.659       28.514      861.948
08/15/2014  19:14:00     -397.697      -76.597      -14.757      150.122      116.910       71.490    22536.680    13667.889     5110.888       10.277        2.066      405.006       60.904        0.023      348.610       28.426      861.966
08/15/2014  19:15:00     -290.937      -32.481      -19.121      104.232       84.768       55.557    10864.359     7185.542     3086.594        5.360        1.057      292.745       50.824        0.030      348.610       28.427      861.984
08/15/2014  19:16:00     -243.441      -43.090       -1.584      143.644      124.683       68.601    20633.739    15545.747     4706.150        5.100        2.044      247.225       73.409        0.088      348.586       28.387      861.999
08/15/2014  19:17:00     -252.715     -113.190       -1.749      168.156      155.043       81.400    28276.551    24038.426     6626.032        6.780        2.947      276.906       90.001        0.106      348.610       28.429      862.014
08/15/2014  19:18:00     -163.722      -82.316        3.037      109.025       90.841       70.243    11886.458     8252.022     4934.081        2.933        1.254      183.250       72.176        0.155      348.591       28.395      862.040
08/15/2014  19:19:00     -366.610       34.654      -25.168      192.607      105.372       66.442    37097.630    11103.236     4414.590        9.442        2.631      368.244       72.218        0.038      348.567       28.353      862.051
08/15/2014  19:20:00     -254.479      -69.214        6.888      152.546      105.149       68.905    23270.263    11056.317     4747.924        5.433        1.954      263.723       77.363        0.086      348.532       28.294      862.048
08/15/2014  19:21:00     -225.444     -160.958       -2.579      130.675      112.781       79.920    17076.018    12719.607     6387.282        5.645        1.809      277.006       74.020        0.071      348.549       28.320      862.053
08/15/2014  19:22:00     -198.914      -57.457        1.754      141.169      105.445       61.159    19928.619    11118.553     3740.442        3.882        1.739      207.046       69.533        0.113      348.528       28.286      862.069
08/15/2014  19:23:00     -278.383      -71.717      -21.626      227.937      134.061       80.453    51955.183    17972.349     6472.636        7.974        3.820      287.473       79.920        0.077      348.518       28.270      862.069
08/15/2014  19:24:00     -395.332     -126.987      -38.631      172.665      164.386       68.776    29813.204    27022.795     4730.108       11.772        3.078      415.226       65.557        0.025      348.464       28.175      862.080
08/15/2014  19:25:00     -234.724      -34.442        9.084      149.044      116.814       63.516    22214.222    13645.509     4034.273        4.812        1.995      237.237       65.154        0.075      348.430       28.119      862.091
08/15/2014  19:26:00     -190.372      -58.492        5.246      127.242      130.022       81.832    16190.594    16905.737     6696.507        3.973        1.990      199.156       71.708        0.130      348.420       28.100      862.082
08/15/2014  19:27:00     -385.538     -125.796      -14.146      175.906      178.069       83.126    30942.931    31708.638     6910.000       11.710        3.478      405.542       63.432        0.024      348.410       28.083      862.086
08/15/2014  19:28:00     -358.883     -102.224       -7.833      195.363      121.904       77.204    38166.676    14860.615     5960.504        9.914        2.949      373.158       93.841        0.063      348.407       28.078      862.083
08/15/2014  19:29:00     -317.207      -56.691      -11.139      133.272      137.990       74.580    17761.463    19041.334     5562.178        7.315        2.118      322.233       72.138        0.050      348.371       28.014      862.109
08/15/2014  19:30:00     -255.237      -76.688        1.364      186.043      104.303       62.982    34612.087    10879.060     3966.791        6.023        2.473      266.509       81.840        0.094      348.347       27.973      862.103
08/15/2014  19:31:00     -340.132      -70.642       -8.302      265.224      148.145       86.066    70343.918    21947.039     7407.358       11.020        4.985      347.390      115.449        0.110      348.326       27.935      862.098
08/15/2014  19:32:00     -416.787     -119.864      -23.367      178.957      117.181       72.197    32025.595    13731.375     5212.478       11.979        2.548      433.680       67.635        0.024      348.324       27.934      862.120
08/15/2014  19:33:00     -224.352      -82.930       13.405      186.614      142.489       76.328    34824.815    20303.216     5825.906        5.916        3.048      239.189       89.002        0.138      348.329       27.941      862.120
08/15/2014  19:34:00     -278.778     -166.622       -0.280      208.129      172.062       80.702    43317.709    29605.326     6512.826        9.244        3.972      324.777      102.338        0.099      348.289       27.871      862.138
08/15/2014  19:35:00     -268.970     -107.903       -1.691      161.000      110.370       63.728    25921.039    12181.433     4061.243        6.307        2.108      289.806       69.767        0.058      348.277       27.852      862.143
08/15/2014  19:36:00     -371.020      -41.355       -6.250      171.552      128.833       70.727    29429.924    16598.056     5002.357        9.521        2.552      373.318       84.966        0.052      348.259       27.821      862.144
08/15/2014  19:37:00     -290.618      -46.783       -7.852      138.299       90.153       50.725    19126.700     8127.486     2572.982        5.826        1.491      294.359       64.455        0.048      348.221       27.756      862.163
08/15/2014  19:38:00     -163.137      -70.038        8.504      102.515       97.597       56.620    10509.307     9525.088     3205.871        2.741        1.162      177.536       52.039        0.086      348.238       27.786      862.162
08/15/2014  19:39:00     -160.477      -75.596       18.101      121.513       83.662       62.401    14765.424     6999.350     3893.884        2.872        1.283      177.391       61.346        0.120      348.229       27.769      862.155
08/15/2014  19:40:00     -260.834      -43.378       -9.085      184.330      140.207       64.931    33977.452    19657.954     4215.999        6.391        2.893      264.417       69.609        0.069      348.166       27.662      862.170
08/15/2014  19:41:00     -237.718     -138.417        7.866      139.876      122.035       70.044    19565.259    14892.612     4906.132        5.754        1.968      275.080       64.270        0.055      348.188       27.699      862.166
08/15/2014  19:42:00     -298.481      -61.019      -19.520      122.574      118.458       51.694    15024.353    14032.272     2672.301        6.246        1.586      304.654       45.419        0.022      348.156       27.642      862.171
08/15/2014  19:43:00     -248.174     -204.390       -4.619      175.601      152.990       84.592    30835.863    23405.863     7155.845        8.238        3.070      321.506      100.246        0.097      348.148       27.629      862.165
08/15/2014  19:44:00     -353.594     -104.341      -12.601      170.838      136.434       66.375    29185.731    18614.112     4405.698        9.413        2.610      368.667       63.093        0.029      348.152       27.638      862.158
08/15/2014  19:45:00     -309.328      -95.487       -8.937      224.063      152.507       92.481    50204.080    23258.438     8552.745        9.343        4.101      323.731       94.692        0.086      348.110       27.564      862.151
08/15/2014  19:46:00     -381.168      -69.946      -39.322      148.050      169.925       70.287    21918.707    28874.445     4940.258       10.372        2.787      387.532       60.102        0.024      348.119       27.578      862.181
08/15/2014  19:47:00     -187.357      -93.660        2.936      202.307      114.135       80.028    40928.196    13026.805     6404.489        5.211        3.018      209.464      102.875        0.241      348.096       27.540      862.188
08/15/2014  19:48:00     -282.810      -75.557      -18.141      128.679      110.863       65.038    16558.386    12290.520     4229.992        5.954        1.654      292.729       51.362        0.031      348.074       27.502      862.197
08/15/2014  19:49:00     -364.508      -22.758      -13.450      232.037      133.840       70.197    53841.270    17913.109     4927.561       10.511        3.834      365.217       80.544        0.049      348.048       27.455      862.211
08/15/2014  19:50:00     -393.211      -67.559      -19.538      154.999      142.368       66.855    24024.669    20268.560     4469.580       10.415        2.438      398.973       66.054        0.027      348.017       27.402      862.213
08/15/2014  19:51:00     -263.884      -64.145        7.692      173.940      121.420       86.649    30255.148    14742.792     7508.040        6.315        2.625      271.569       98.879        0.133      348.004       27.379      862.205
08/15/2014  19:52:00     -349.212      -63.490      -23.169      196.029      137.572       73.911    38427.561    18926.039     5462.787        9.465        3.141      354.937       97.383        0.075      347.993       27.360      862.203
08/15/2014  19:53:00     -288.395      -38.483      -11.404       99.866      115.595       67.734     9973.154    13362.232     4587.847        5.635        1.396      290.951       56.151        0.037      347.957       27.302      862.209
08/15/2014  19:54:00     -223.695      -35.997      -14.362       96.008      103.270       61.886     9217.524    10664.663     3829.928        3.762        1.186      226.573       58.715        0.067      347.947       27.283      862.221
08/15/2014  19:55:00     -238.957      -97.030       -0.974      170.240      134.340       75.084    28981.732    18047.257     5637.666        5.958        2.633      257.905       85.594        0.110      347.922       27.239      862.228
08/15/2014  19:56:00     -372.249     -148.425      -13.364      183.793      137.716       78.052    33779.770    18965.783     6092.134       10.980        2.942      400.748       87.853        0.048      347.944       27.277      862.230
08/15/2014  19:57:00     -323.425      -72.782      -12.838      178.376      131.941       63.431    31818.070    17408.544     4023.513        8.165        2.663      331.513       65.011        0.038      347.929       27.251      862.261
08/15/2014  19:58:00     -336.074      -27.638      -21.984      160.241       86.651       68.134    25677.076     7508.365     4642.199        7.600        1.891      337.208       73.306        0.047      347.933       27.259      862.259
08/15/2014  19:59:00     -281.479      -42.005      -18.410      143.133       94.603       68.040    20486.964     8949.818     4629.461        5.769        1.703      284.596       53.741        0.036      347.889       27.181      862.288
08/15/2014  20:00:00     -390.239      -54.318       -7.102      148.101      138.296       69.793    21934.050    19125.920     4871.014       10.060        2.297      394.002       70.467        0.032      347.872       27.152      862.289
08/15/2014  20:01:00     -348.439      -43.599      -18.597      156.499      105.785       59.742    24491.992    11190.420     3569.108        8.145        1.963      351.157       66.206        0.036      347.862       27.134      862.308
08/15/2014  20:02:00     -322.242     -103.189      -24.160      194.737       83.755       72.698    37922.654     7014.968     5285.011        8.264        2.511      338.361       97.660        0.083      347.828       27.076      862.323
08/15/2014  20:03:00     -237.115      -42.639       -4.492      158.060      126.402       60.032    24983.064    15977.545     3603.897        5.130        2.228      240.918       53.634        0.050      347.798       27.026      862.342
08/15/2014  20:04:00     -158.073      -38.551        0.183       94.786       89.709       50.402     8984.462     8047.678     2540.394        2.302        0.979      162.706       47.680        0.086      347.761       26.963      862.344
08/15/2014  20:05:00      -71.171       -9.960       -3.461       61.113       70.423       37.106     3734.849     4959.435     1376.852        0.762        0.504       71.865       25.315        0.124      347.776       26.991      862.335
08/15/2014  20:06:00     -274.743      -81.966      -18.447      127.026       96.749       38.918    16135.722     9360.404     1514.633        5.477        1.351      286.709       42.102        0.022      347.758       26.956      862.349
08/15/2014  20:07:00     -413.285      -86.655      -28.857      232.186      136.785       86.146    53910.281    18710.084     7421.060       12.958        4.002      422.272      119.234        0.080      347.804       27.035      862.352
08/15/2014  20:08:00     -258.658      -62.247        2.100      148.730      104.964       61.973    22120.545    11017.398     3840.679        5.387        1.849      266.043       70.629        0.070      347.750       26.944      862.387
08/15/2014  20:09:00     -196.404     -116.024       15.896      143.819      120.271       68.903    20684.009    14465.063     4747.617        4.608        1.995      228.114       76.258        0.112      347.727       26.903      862.401
08/15/2014  20:10:00     -107.178      -40.116        5.064      119.843       79.544       50.066    14362.367     6327.258     2506.610        1.815        1.160      114.439       55.141        0.232      347.671       26.808      862.416
08/15/2014  20:11:00     -246.189      -53.843       -5.959      125.130       88.111       51.152    15657.473     7763.636     2616.570        4.479        1.302      252.008       52.500        0.043      347.724       26.897      862.422
08/15/2014  20:12:00     -301.454      -31.172      -25.949       89.452      102.101       47.302     8001.581    10424.647     2237.522        5.659        1.033      303.061       40.089        0.017      347.707       26.866      862.437
08/15/2014  20:13:00     -283.066      -87.373       -6.628      100.380       90.133       50.183    10076.152     8123.883     2518.332        5.426        1.036      296.244       53.366        0.032      347.659       26.783      862.449
08/15/2014  20:14:00     -215.078      -93.201        3.978      150.981      115.001       65.457    22795.356    13225.134     4284.590        4.762        2.015      234.404       73.483        0.098      347.594       26.672      862.466
08/15/2014  20:15:00     -257.969      -49.233       -6.672      112.373      112.053       54.772    12627.783    12555.968     3000.004        4.859        1.409      262.625       40.953        0.024      347.592       26.669      862.490
08/15/2014  20:16:00     -354.297     -138.159      -10.668      151.317      133.480       56.052    22896.947    17816.787     3141.796        9.428        2.193      380.282       59.315        0.024      347.655       26.779      862.507
08/15/2014  20:17:00     -277.436      -51.530       -4.378      128.539       92.734       60.515    16522.371     8599.555     3662.111        5.421        1.439      282.181       67.437        0.057      347.628       26.732      862.531
08/15/2014  20:18:00     -178.767      -37.054        3.990       96.990       75.579       49.107     9407.059     5712.240     2411.484        2.544        0.877      182.567       52.660        0.083      347.582       26.654      862.532
08/15/2014  20:19:00     -217.616       -4.164      -21.013       73.459       76.949       40.013     5396.248     5921.072     1601.064        3.036        0.646      217.656       34.812        0.026      347.591       26.669      862.550
08/15/2014  20:20:00     -168.344      -42.318       -7.513       73.048       73.359       42.961     5336.063     5381.482     1845.682        2.137        0.628      173.581       42.544        0.060      347.537       26.577      862.575
08/15/2014  20:21:00     -187.359      -43.907        1.039      125.752       86.885       49.100    15813.679     7549.037     2410.769        3.140        1.289      192.434       63.853        0.110      347.544       26.588      862.595
08/15/2014  20:22:00     -178.466      -19.147       -2.596      115.169       80.953       44.716    13263.784     6553.423     1999.489        2.702        1.091      179.490       55.020        0.094      347.494       26.500      862.615
08/15/2014  20:23:00     -191.708      -10.183      -14.572      126.763       80.500       58.007    16068.810     6480.176     3364.867        3.149        1.296      191.978       63.186        0.108      347.559       26.615      862.617
08/15/2014  20:24:00      -95.904      -53.130       18.312      117.813       78.229       57.629    13879.921     6119.847     3321.061        1.783        1.166      109.638       64.503        0.346      347.459       26.442      862.630
08/15/2014  20:25:00     -230.724       31.453      -17.544      108.693       92.460       54.104    11814.237     8548.813     2927.227        3.891        1.165      232.858       50.483        0.047      347.515       26.537      862.639
08/15/2014  20:26:00     -306.144       -7.541      -23.825      112.532       72.264       44.890    12663.447     5222.110     2015.115        5.712        0.995      306.237       51.912        0.029      347.514       26.535      862.656
08/15/2014  20:27:00     -231.181        9.772      -13.574       92.998       90.485       38.115     8648.714     8187.594     1452.762        3.600        0.914      231.387       35.271        0.023      347.464       26.445      862.674
08/15/2014  20:28:00     -112.714       32.483       -5.954       70.463       66.500       40.514     4965.026     4422.239     1641.348        1.241        0.551      117.301       37.169        0.100      347.384       26.314      862.688
08/15/2014  20:29:00      -81.320       56.759       -5.891       58.254       55.300       34.961     3393.498     3058.091     1222.301        0.877        0.384       99.169       26.393        0.071      347.418       26.374      862.687
08/15/2014  20:30:00     -119.054      155.664      -16.905       83.891       61.256       37.255     7037.634     3752.270     1387.954        2.543        0.609      195.972       25.635        0.017      347.350       26.253      862.684
08/15/2014  20:31:00     -131.659      -14.288       -9.699       37.247       76.714       26.001     1387.332     5885.113      676.040        1.279        0.397      132.432       26.755        0.041      347.417       26.369      862.703
08/15/2014  20:32:00      -91.257      -31.206      -11.179       45.781       46.106       25.066     2095.883     2125.807      628.284        0.714        0.242       96.445       13.010        0.018      347.381       26.309      862.703
08/15/2014  20:33:00     -298.708       27.792      -42.002       83.463       67.117       41.796     6966.100     4504.647     1746.933        5.249        0.661      299.998       38.175        0.016      347.395       26.329      862.711
08/15/2014  20:34:00     -241.949      -68.009      -20.829      104.196       82.461       44.406    10856.896     6799.809     1971.855        4.161        0.981      251.325       38.648        0.024      347.375       26.295      862.734
08/15/2014  20:35:00     -237.858      -60.517      -21.383       72.925       62.143       36.376     5318.033     3861.799     1323.208        3.560        0.525      245.436       37.035        0.023      347.370       26.287      862.754
08/15/2014  20:36:00     -210.026      -63.376      -18.147       77.822       60.758       36.866     6056.208     3691.533     1359.069        2.978        0.555      219.379       41.816        0.036      347.305       26.175      862.765
08/15/2014  20:37:00     -233.034        4.001      -12.220       96.964       93.364       34.441     9402.075     8716.850     1186.175        3.688        0.965      233.069       33.804        0.021      347.290       26.148      862.781
08/15/2014  20:38:00     -178.058       16.214      -22.554       99.818       63.969       31.465     9963.569     4092.050      990.056        2.376        0.752      178.795       40.388        0.051      347.282       26.136      862.809
08/15/2014  20:39:00      -81.689       43.172        3.098       46.226       51.763       39.246     2136.856     2679.442     1540.266        0.745        0.318       92.395       31.127        0.113      347.222       26.034      862.803
08/15/2014  20:40:00      -52.326       81.589       -0.141       68.045       79.494       38.257     4630.122     6319.362     1463.599        1.090        0.621       96.927       21.193        0.048      347.131       25.877      862.816
08/15/2014  20:41:00      -68.729       43.907      -15.088       37.687       77.673       32.241     1420.279     6033.047     1039.512        0.768        0.425       81.557        9.729        0.014      347.168       25.943      862.834
08/15/2014  20:42:00      -86.572       77.735       -1.061       71.422      115.032       36.995     5101.116    13232.301     1368.600        1.662        0.985      116.351       34.346        0.087      347.141       25.894      862.859
08/15/2014  20:43:00     -163.310      -14.318      -26.841       79.769       37.300       34.098     6363.124     1391.274     1162.707        1.825        0.446      163.937       44.514        0.074      347.191       25.981      862.885
08/15/2014  20:44:00     -130.807      -48.254       -1.270       68.736       55.543       32.427     4724.672     3084.994     1051.518        1.415        0.443      139.423       34.440        0.061      347.107       25.836      862.913
08/15/2014  20:45:00     -339.018      -42.701      -41.859       65.994       77.190       42.792     4355.270     5958.296     1831.114        6.532        0.607      341.696       35.680        0.011      347.260       26.096      862.921
08/15/2014  20:46:00     -307.854      -89.608      -11.694      123.023      110.000       48.543    15134.588    12100.055     2356.450        6.626        1.480      320.630       46.430        0.021      347.192       25.982      862.937
08/15/2014  20:47:00     -140.295      -20.635      -18.293       59.946       40.743       25.685     3593.478     1659.993      659.736        1.318        0.296      141.804       13.500        0.009      347.148       25.907      862.947
08/15/2014  20:48:00     -110.644        6.936       -2.383       55.057       33.766       24.818     3031.244     1140.112      615.952        0.854        0.239      110.861       10.538        0.009      347.169       25.942      862.966
08/15/2014  20:49:00     -160.086      -24.740      -19.599       48.294       49.797       27.392     2332.294     2479.771      750.323        1.609        0.278      161.987       26.355        0.026      347.118       25.854      862.971
08/15/2014  20:50:00     -147.839       12.428      -22.769       39.229       48.721       22.098     1538.917     2373.715      488.310        1.346        0.220      148.361       15.121        0.010      347.088       25.805      863.003
08/15/2014  20:51:00      -46.488       23.968        2.984       29.531       68.087       24.171      872.107     4635.792      584.218        0.442        0.305       52.303       19.822        0.144      347.050       25.739      863.000
08/15/2014  20:52:00      -68.139       61.859      -16.059       44.960       39.711       18.747     2021.423     1576.982      351.458        0.634        0.197       92.030       15.801        0.029      347.002       25.656      863.015
08/15/2014  20:53:00     -239.014       14.756      -27.390      141.361       77.396       42.993    19983.020     5990.155     1848.417        4.295        1.391      239.469       43.179        0.033      347.099       25.820      863.027
08/15/2014  20:54:00     -243.449        1.158      -21.595       76.753       57.840       43.681     5890.968     3345.500     1908.041        3.544        0.557      243.452       32.522        0.018      347.089       25.802      863.020
08/15/2014  20:55:00      -50.395       45.290        1.805       67.234       78.038       38.277     4520.346     6089.947     1465.158        0.833        0.604       67.755       36.223        0.286      346.909       25.496      863.028
08/15/2014  20:56:00      -99.465       14.601      -18.401       47.983       50.020       30.667     2302.358     2502.021      940.444        0.809        0.287      100.531       27.898        0.077      346.937       25.544      863.047
08/15/2014  20:57:00      -21.301       77.450      -15.631       43.996       54.685       17.399     1935.625     2990.437      302.728        0.596        0.261       80.325       20.742        0.067      346.966       25.594      863.053
08/15/2014  20:58:00      -15.182       44.892       -6.074       49.765       60.209       25.585     2476.511     3625.148      654.615        0.452        0.338       47.389       20.300        0.183      346.896       25.473      863.080
08/15/2014  20:59:00      -79.967       51.378        6.080       71.845       53.803       51.257     5161.688     2894.724     2627.263        0.988        0.534       95.049       43.687        0.211      346.894       25.470      863.098
08/15/2014  21:00:00      -46.388       78.987        1.888       43.662       54.301       30.005     1906.371     2948.589      900.312        0.707        0.288       91.601       31.161        0.116      346.808       25.322      863.115
08/15/2014  21:01:00      -77.857      113.669       -9.308       56.876       57.570       35.149     3234.929     3314.315     1235.460        1.343        0.389      137.776       25.868        0.035      346.854       25.400      863.141
08/15/2014  21:02:00     -147.445       74.632      -12.159       58.811       57.445       34.836     3458.703     3299.903     1213.562        1.771        0.399      165.257       31.490        0.036      346.894       25.470      863.162
08/15/2014  21:03:00      -82.770      -53.386       -4.073       92.766       86.732       49.242     8605.489     7522.495     2424.811        1.413        0.928       98.494       53.278        0.293      346.810       25.324      863.186
08/15/2014  21:04:00      -50.574        9.368      -11.356       51.360       71.245       29.161     2637.825     5075.866      850.353        0.567        0.428       51.434       19.695        0.147      346.855       25.401      863.226
08/15/2014  21:05:00      -68.637       46.210       -7.722       36.264       61.967       24.518     1315.064     3839.859      601.131        0.633        0.288       82.743       20.361        0.061      346.798       25.304      863.247
08/15/2014  21:06:00     -185.773      -40.491       -3.489       97.871       89.697       44.173     9578.676     8045.612     1951.236        2.787        0.979      190.135       45.020        0.056      346.839       25.373      863.274
08/15/2014  21:07:00     -148.621       24.221      -25.405       61.259       62.001       40.874     3752.706     3844.121     1670.708        1.629        0.463      150.582       20.235        0.018      346.848       25.390      863.289
08/15/2014  21:08:00     -102.655      -14.467      -10.695       45.533       78.521       31.428     2073.227     6165.474      987.720        1.004        0.461      103.669       21.468        0.043      346.816       25.335      863.338
08/15/2014  21:09:00     -321.444      -65.290      -30.410      104.848       76.985       49.987    10993.000     5926.681     2498.718        6.396        0.971      328.007       35.677        0.012      346.930       25.528      863.355
08/15/2014  21:10:00     -170.060        1.199      -14.743       44.256       75.505       29.036     1958.570     5701.025      843.075        1.882        0.425      170.064       21.583        0.016      346.864       25.416      863.380
08/15/2014  21:11:00     -189.287      -43.329      -17.161       51.132       35.590       29.040     2614.485     1266.645      843.301        2.136        0.236      194.183       13.571        0.005      346.840       25.374      863.406
08/15/2014  21:12:00     -119.330       -9.135      -10.390       78.093       95.651       42.177     6098.556     9149.122     1778.908        1.573        0.851      119.679       42.193        0.124      346.797       25.302      863.413
08/15/2014  21:13:00     -230.945        8.649      -16.706       48.958       61.717       34.278     2396.864     3809.039     1174.947        3.053        0.369      231.107       29.000        0.016      346.862       25.411      863.444
08/15/2014  21:14:00     -158.150      -66.877      -10.703       62.366       45.140       31.985     3889.560     2037.603     1023.049        1.827        0.348      171.709       28.902        0.028      346.778       25.271      863.452
08/15/2014  21:15:00     -141.876      -31.259      -24.381       34.530       43.158       24.255     1192.335     1862.621      588.296        1.267        0.182      145.279        4.676        0.001      346.771       25.260      863.470
08/15/2014  21:16:00     -111.933      -16.231      -16.984       49.263       30.135       18.546     2426.889      908.134      343.947        0.838        0.184      113.104       19.328        0.029      346.738       25.204      863.481
08/15/2014  21:17:00     -117.235      -24.941       -9.437       35.108       54.197       24.447     1232.598     2937.319      597.672        0.961        0.238      119.858       22.080        0.034      346.709       25.152      863.488
08/15/2014  21:18:00     -146.862       14.990       -9.204       59.012       58.751       30.940     3482.417     3451.708      957.273        1.488        0.395      147.625       25.367        0.030      346.702       25.138      863.504
08/15/2014  21:19:00     -175.256      -48.988      -12.272       73.794       45.497       31.492     5445.625     2069.972      991.723        2.088        0.425      181.973       33.706        0.034      346.628       25.010      863.500
08/15/2014  21:20:00     -232.287       -5.291      -17.398       67.639       70.597       41.321     4574.984     4983.963     1707.452        3.277        0.563      232.348       37.045        0.025      346.648       25.043      863.521
08/15/2014  21:21:00     -199.491      -22.167       -8.462       79.179       73.661       40.677     6269.322     5425.938     1654.634        2.685        0.667      200.719       31.833        0.025      346.608       24.975      863.524
08/15/2014  21:22:00     -215.621      -56.449      -17.117      110.108       85.167       56.067    12123.691     7253.415     3143.545        3.624        1.126      222.888       41.146        0.034      346.688       25.113      863.514
08/15/2014  21:23:00     -190.870      -40.805       -8.407       68.744       69.172       36.159     4725.743     4784.707     1307.456        2.449        0.541      195.183       31.621        0.026      346.692       25.119      863.537
08/15/2014  21:24:00     -230.842      -15.998      -10.355       95.463       57.188       50.513     9113.205     3270.424     2551.599        3.429        0.747      231.396       55.413        0.057      346.641       25.031      863.546
08/15/2014  21:25:00     -256.584      -52.127      -12.656      128.515       71.865       49.642    16516.126     5164.531     2464.337        4.642        1.207      261.825       52.243        0.040      346.651       25.049      863.570
08/15/2014  21:26:00     -191.070      -12.044       -7.203      147.763       68.675       49.909    21833.820     4716.265     2490.904        3.287        1.452      191.450       66.924        0.122      346.529       24.841      863.575
08/15/2014  21:27:00     -282.395      -82.481       -4.270      107.359       91.817       53.753    11525.968     8430.367     2889.366        5.470        1.142      294.194       57.622        0.038      346.593       24.948      863.576
08/15/2014  21:28:00     -273.763      -91.407      -14.417       76.878       60.584       38.405     5910.151     3670.397     1474.960        4.728        0.553      288.620       28.229        0.010      346.629       25.009      863.579
08/15/2014  21:29:00     -269.033      -71.228      -21.726       91.170       87.032       51.476     8312.034     7574.496     2649.739        4.823        0.927      278.302       45.546        0.027      346.567       24.904      863.564
08/15/2014  21:30:00     -455.010     -118.173      -20.478      151.255      123.381       64.517    22878.072    15222.863     4162.419       13.183        2.113      470.106       71.179        0.023      346.677       25.093      863.562
08/15/2014  21:31:00     -372.410      -92.090       -6.605      134.704      104.625       56.253    18145.251    10946.289     3164.447        8.973        1.613      383.627       64.643        0.028      346.609       24.976      863.563
08/15/2014  21:32:00     -274.404      -79.057       -1.084      126.195      101.079       61.127    15925.248    10216.902     3736.526        5.571        1.494      285.565       59.862        0.044      346.592       24.948      863.560
08/15/2014  21:33:00     -352.284      -91.481      -17.638      120.086      111.738       62.795    14420.631    12485.469     3943.165        8.181        1.542      363.968       62.413        0.029      346.602       24.964      863.572
08/15/2014  21:34:00     -329.752      -58.515      -10.025      154.746      102.504       60.707    23946.413    10507.161     3685.295        7.519        1.907      334.903       64.767        0.037      346.593       24.949      863.555
08/15/2014  21:35:00     -265.390      -47.730        0.682      118.021      114.628       57.952    13928.845    13139.633     3358.481        5.156        1.521      269.648       54.211        0.040      346.543       24.864      863.551
08/15/2014  21:36:00     -398.054      -49.463      -13.998      160.115      119.236       75.423    25636.951    14217.108     5688.651       10.331        2.277      401.115       81.556        0.041      346.545       24.866      863.573
08/15/2014  21:37:00     -333.102      -37.855       -6.389      144.455      105.502       72.060    20867.382    11130.762     5192.617        7.480        1.860      335.246       78.530        0.055      346.532       24.843      863.569
08/15/2014  21:38:00     -389.425      -90.336      -26.039      102.963       92.997       55.557    10601.311     8648.497     3086.586        9.141        1.117      399.766       54.513        0.019      346.588       24.939      863.600
08/15/2014  21:39:00     -215.750       -2.345        4.888      138.710       96.445       64.419    19240.532     9301.593     4149.819        3.963        1.635      215.762       79.051        0.134      346.506       24.799      863.609
08/15/2014  21:40:00     -126.004      -43.939       -0.346       87.416       75.609       43.959     7641.492     5716.749     1932.356        1.655        0.765      133.446       31.787        0.057      346.498       24.787      863.613
08/15/2014  21:41:00     -149.970      -34.693        0.268       83.038       71.037       42.981     6895.287     5046.312     1847.341        1.874        0.689      153.931       38.858        0.064      346.443       24.693      863.630
08/15/2014  21:42:00     -243.955      -37.198      -11.254      159.952      102.512       57.619    25584.662    10508.699     3320.002        5.021        1.971      246.775       70.966        0.083      346.470       24.738      863.633
08/15/2014  21:43:00     -271.001      -86.619       -9.567      131.961      107.061       66.706    17413.667    11462.101     4449.688        5.717        1.666      284.507       69.954        0.060      346.503       24.795      863.603
08/15/2014  21:44:00     -295.057     -112.247      -25.226      139.912      134.978       67.165    19575.360    18218.985     4511.167        7.129        2.115      315.687       53.518        0.029      346.491       24.774      863.591
08/15/2014  21:45:00     -263.264      -53.705        0.921      142.836       97.938       61.985    20402.078     9591.883     3842.175        5.301        1.692      268.686       65.676        0.060      346.429       24.667      863.606
08/15/2014  21:46:00     -263.966      -83.289      -13.204      108.549       89.169       46.610    11782.784     7951.049     2172.453        4.934        1.095      276.795       44.541        0.026      346.442       24.689      863.627
08/15/2014  21:47:00     -360.992      -25.201      -10.566      150.377       80.518       65.861    22613.256     6483.112     4337.638        8.224        1.672      361.870       69.598        0.037      346.501       24.790      863.651
08/15/2014  21:48:00     -200.490      -60.522        3.006      123.560      111.620       54.784    15267.183    12459.115     3001.320        3.729        1.536      209.426       47.662        0.052      346.470       24.738      863.648
08/15/2014  21:49:00     -165.383      -25.476       -0.083      107.533       79.363       60.333    11563.358     6298.539     3640.075        2.475        1.075      167.334       63.883        0.146      346.443       24.691      863.657
08/15/2014  21:50:00     -213.948        8.898       -9.713      104.132       82.739       51.726    10843.511     6845.796     2675.599        3.315        1.018      214.132       49.107        0.053      346.441       24.688      863.637
08/15/2014  21:51:00     -277.170      -10.790       -0.193      184.116      120.889       68.840    33898.525    14614.032     4738.935        6.508        2.663      277.380       74.918        0.073      346.426       24.664      863.620
08/15/2014  21:52:00     -270.679      -77.708       -9.493      111.475       94.892       60.754    12426.632     9004.437     3691.061        5.225        1.256      281.612       63.527        0.051      346.389       24.598      863.614
08/15/2014  21:53:00     -170.158      -29.924        5.404      112.027       70.469       47.476    12550.116     4965.871     2253.996        2.482        0.988      172.769       43.095        0.062      346.358       24.545      863.620
08/15/2014  21:54:00     -274.478      -32.073        1.831      125.286       97.245       68.515    15696.658     9456.628     4694.323        5.310        1.492      276.346       65.203        0.056      346.386       24.593      863.636
08/15/2014  21:55:00     -269.181      -59.597      -10.912      163.841      109.782       59.624    26843.794    12052.030     3555.070        5.928        2.123      275.699       63.485        0.053      346.472       24.742      863.611
08/15/2014  21:56:00     -197.894     -108.262        6.147      160.453      115.066       57.964    25745.305    13240.176     3359.806        4.662        2.117      225.572       72.712        0.104      346.398       24.613      863.622
08/15/2014  21:57:00     -269.944     -175.882      -33.932      172.237      126.752       60.853    29665.589    16066.168     3703.073        7.719        2.472      322.187       59.807        0.034      346.400       24.615      863.636
08/15/2014  21:58:00     -326.420     -181.203      -27.346      133.834      119.350       65.117    17911.587    14244.430     4240.206        8.826        1.820      373.343       60.456        0.026      346.410       24.635      863.647
08/15/2014  21:59:00     -173.534      -70.158       -2.431      149.552       95.137       60.610    22365.919     9050.980     3673.580        3.506        1.755      187.180       79.023        0.178      346.351       24.530      863.669
08/15/2014  22:00:00     -197.509      -59.542       -1.020      124.870       86.365       50.465    15592.557     7458.875     2546.686        3.407        1.280      206.289       51.982        0.063      346.340       24.516      863.673
08/15/2014  22:01:00     -221.782      -67.687      -11.273      124.173       84.586       56.594    15419.021     7154.825     3202.860        3.983        1.289      231.881       54.445        0.055      346.319       24.479      863.672
08/15/2014  22:02:00     -299.032      -59.160       -5.963      115.547      107.674       51.458    13351.111    11593.787     2647.881        6.027        1.380      304.828       49.313        0.026      346.281       24.412      863.700
08/15/2014  22:03:00     -184.340      -45.823       -3.427      102.420      114.001       48.668    10489.945    12996.338     2368.568        3.097        1.293      189.950       47.497        0.063      346.277       24.405      863.709
08/15/2014  22:04:00     -289.456      -57.629       -4.146      133.095      103.191       54.407    17714.249    10648.473     2960.142        5.922        1.566      295.137       61.349        0.043      346.225       24.315      863.724
08/15/2014  22:05:00     -326.135        1.514      -23.314       99.450      102.602       54.674     9890.230    10527.127     2989.224        6.515        1.170      326.139       48.839        0.022      346.254       24.365      863.751
08/15/2014  22:06:00     -195.070      -58.556      -16.462      108.783       67.644       49.246    11833.827     4575.726     2425.203        3.029        0.942      203.669       55.711        0.075      346.200       24.271      863.766
08/15/2014  22:07:00     -161.441      -40.001       -8.102       62.223       61.004       32.754     3871.645     3721.446     1072.826        1.820        0.433      166.322       29.219        0.031      346.138       24.169      863.782
08/15/2014  22:08:00     -181.472      -82.574       -1.915       65.723       79.357       40.878     4319.548     6297.613     1670.984        2.602        0.614      199.376       25.467        0.016      346.140       24.172      863.803
08/15/2014  22:09:00     -230.654       -7.454      -14.768      125.873       96.655       54.033    15844.085     9342.257     2919.595        4.078        1.405      230.775       54.198        0.055      346.201       24.275      863.803
08/15/2014  22:10:00     -253.677      -18.851      -25.258       82.661       68.167       40.745     6832.888     4646.729     1660.153        3.924        0.657      254.377       39.998        0.025      346.220       24.305      863.806
08/15/2014  22:11:00     -198.793      -29.379      -23.715       54.279       62.625       28.416     2946.207     3921.939      807.450        2.431        0.384      200.952       27.940        0.019      346.127       24.148      863.846
08/15/2014  22:12:00     -182.844      -12.842       -6.427       87.095       59.044       38.006     7585.584     3486.240     1444.444        2.307        0.626      183.294       38.235        0.044      346.105       24.111      863.875
08/15/2014  22:13:00     -119.089      -23.175       -7.137       43.770       51.696       29.135     1915.804     2672.452      848.828        1.010        0.272      121.323       26.664        0.048      346.084       24.077      863.885
08/15/2014  22:14:00     -129.018       -6.328      -12.282       52.469       49.891       29.565     2752.976     2489.070      874.066        1.148        0.306      129.173       27.880        0.047      346.152       24.193      863.883
08/15/2014  22:15:00     -109.991       37.071       -0.112       47.200       59.325       30.490     2227.821     3519.418      929.660        1.007        0.334      116.070       22.804        0.039      346.102       24.107      863.881
08/15/2014  22:16:00     -137.602       18.953       -6.432       44.391       49.289       27.161     1970.593     2429.367      737.745        1.224        0.257      138.901       26.314        0.036      346.149       24.189      863.890
08/15/2014  22:17:00      -70.125       18.300       -6.090       42.486       37.020       18.352     1805.068     1370.468      336.791        0.440        0.176       72.474       19.312        0.071      345.973       23.885      863.881
08/15/2014  22:18:00      -72.544       24.630       -9.220       51.389       38.878       18.773     2640.784     1511.479      352.408        0.523        0.225       76.611       25.345        0.109      345.981       23.901      863.899
08/15/2014  22:19:00      -25.431       -5.785       -0.832       45.161       29.314       30.096     2039.535      859.312      905.750        0.224        0.190       26.080       14.510        0.310      345.976       23.892      863.892
08/15/2014  22:20:00     -127.596      -60.120       -7.454       52.672       57.034       25.848     2774.373     3252.892      668.108        1.332        0.335      141.050       20.016        0.020      345.955       23.855      863.889
08/15/2014  22:21:00     -196.321      -58.742      -11.689       86.847       59.551       34.010     7542.322     3546.360     1156.649        2.718        0.612      204.921       29.205        0.020      345.904       23.766      863.888
08/15/2014  22:22:00     -246.739      -60.032      -13.122       91.331       72.288       41.258     8341.412     5225.614     1702.182        3.996        0.763      253.937       33.976        0.018      345.993       23.919      863.874
08/15/2014  22:23:00     -162.680       57.387      -37.283       61.398       77.486       32.453     3769.684     6004.073     1053.165        2.099        0.541      172.505       18.987        0.012      345.933       23.815      863.879
08/15/2014  22:24:00     -200.287       36.581      -25.410      122.997       77.264       40.949    15128.195     5969.798     1676.794        3.243        1.139      203.600       47.169        0.054      345.893       23.748      863.878
08/15/2014  22:25:00     -160.216      -48.556      -11.849       89.589       86.333       38.936     8026.238     7453.424     1516.030        2.258        0.850      167.412       33.872        0.041      345.859       23.689      863.871
08/15/2014  22:26:00      -76.064       36.392      -19.440       65.946       46.393       30.045     4348.920     2152.342      902.725        0.744        0.370       84.322       18.605        0.049      345.882       23.731      863.855
08/15/2014  22:27:00      -33.915      -25.295        8.609       47.448       50.092       29.711     2251.357     2509.163      882.738        0.375        0.282       42.309       31.789        0.565      345.807       23.602      863.839
08/15/2014  22:28:00     -121.826        9.746       -5.303       62.540       59.567       36.519     3911.259     3548.198     1333.671        1.188        0.440      122.215       31.618        0.067      345.850       23.676      863.835
08/15/2014  22:29:00     -178.434       10.609       -7.916       79.067       74.171       39.112     6251.649     5501.300     1529.713        2.265        0.664      178.749       38.996        0.048      345.887       23.739      863.837
08/15/2014  22:30:00      -89.806      -11.451        0.892       63.392       48.439       36.058     4018.593     2346.369     1300.183        0.793        0.383       90.533       31.443        0.121      345.786       23.565      863.838
08/15/2014  22:31:00     -125.260      -47.584       -4.083       78.311       50.596       29.262     6132.574     2559.945      856.243        1.376        0.477      133.993       25.725        0.037      345.796       23.581      863.850
08/15/2014  22:32:00     -161.206      -11.782      -19.446       97.528       82.011       36.958     9511.771     6725.800     1365.860        2.205        0.880      161.636       32.115        0.039      345.769       23.536      863.854
08/15/2014  22:33:00     -223.096      -38.171       -9.813       97.010       79.043       44.595     9410.996     6247.808     1988.675        3.448        0.882      226.338       37.625        0.028      345.753       23.505      863.863
08/15/2014  22:34:00     -268.861      -27.801      -31.951       75.675       78.018       42.009     5726.774     6086.880     1764.716        4.383        0.679      270.294       36.329        0.018      345.817       23.614      863.863
08/15/2014  22:35:00     -190.659      -60.168      -11.154       80.953       71.775       35.505     6553.320     5151.717     1260.606        2.653        0.648      199.928       38.658        0.037      345.748       23.498      863.857
08/15/2014  22:36:00     -185.987      -33.281      -12.267       53.430       38.767       23.697     2854.811     1502.888      561.563        2.038        0.246      188.941       17.059        0.008      345.768       23.535      863.866
08/15/2014  22:37:00     -155.804      -54.795      -17.849       82.989       70.000       45.765     6887.157     4899.937     2094.470        2.074        0.694      165.159       45.427        0.076      345.748       23.498      863.879
08/15/2014  22:38:00     -241.324      -36.944      -11.951      107.900       82.709       46.117    11642.399     6840.796     2126.805        4.017        1.031      244.135       37.767        0.024      345.718       23.445      863.881
08/15/2014  22:39:00     -284.092      -16.240      -31.118       87.744       96.303       45.052     7699.002     9274.307     2029.672        5.047        0.950      284.556       36.922        0.017      345.764       23.524      863.891
08/15/2014  22:40:00     -168.061      -37.556       -6.947       91.602       62.798       43.122     8390.986     3943.555     1859.478        2.195        0.710      172.206       45.673        0.070      345.700       23.416      863.901
08/15/2014  22:41:00     -218.086      -29.608      -21.897       94.260       88.336       48.223     8884.953     7803.176     2325.410        3.396        0.951      220.087       46.948        0.046      345.742       23.487      863.905
08/15/2014  22:42:00     -251.043       -3.043      -35.943       52.578       61.725       39.082     2764.404     3809.973     1527.415        3.621        0.405      251.061       23.017        0.008      345.756       23.510      863.906
08/15/2014  22:43:00     -240.612      -13.332      -18.761       75.212       68.535       36.044     5656.869     4697.002     1299.147        3.504        0.583      240.981       30.502        0.016      345.692       23.400      863.921
08/15/2014  22:44:00     -334.417      -18.139      -42.403      139.969       79.864       47.583    19591.222     6378.315     2264.142        7.109        1.412      334.908       49.996        0.022      345.830       23.638      863.913
08/15/2014  22:45:00     -313.580        2.057      -29.366      156.653      112.444       45.045    24540.227    12643.558     2029.061        6.920        1.961      313.587       41.641        0.018      345.922       23.794      863.908
08/15/2014  22:46:00     -232.224       -1.594      -16.682      159.887       56.762       44.277    25563.948     3221.918     1960.443        4.247        1.537      232.229       64.674        0.078      346.066       24.044      863.913
08/15/2014  22:47:00     -142.651      -88.061        3.189       76.614       71.598       39.107     5869.731     5126.334     1529.384        2.032        0.626      167.643       38.912        0.054      345.940       23.829      863.883
08/15/2014  22:48:00     -197.844      -58.749       -9.376       59.890       59.753       30.217     3586.753     3570.467      913.093        2.537        0.404      206.382       23.233        0.013      345.915       23.783      863.902
08/15/2014  22:49:00     -119.125       59.705       -7.458       45.610       59.756       32.169     2080.233     3570.732     1034.873        1.225        0.334      133.250       27.217        0.042      345.956       23.858      863.894
08/15/2014  22:50:00     -112.908       53.877      -23.662       83.128       55.855       41.541     6910.187     3119.784     1725.671        1.398        0.588      125.104       44.435        0.126      345.945       23.839      863.883
08/15/2014  22:51:00     -181.389      135.441      -38.450       62.444      112.317       35.864     3899.250    12615.167     1286.222        3.526        0.890      226.376       27.114        0.014      346.002       23.933      863.847
08/15/2014  22:52:00     -135.949       58.838      -28.377       66.450       69.072       31.480     4415.659     4770.889      991.007        1.646        0.509      148.135       31.760        0.046      346.119       24.137      863.844
08/15/2014  22:53:00     -135.616      -39.296      -13.398       47.182       43.482       23.107     2226.174     1890.721      533.953        1.238        0.233      141.195       18.529        0.017      346.009       23.948      863.834
08/15/2014  22:54:00     -173.188      -49.676       -9.610       55.888       83.037       28.208     3123.456     6895.064      795.708        2.168        0.541      180.172       19.972        0.012      345.913       23.780      863.836
08/15/2014  22:55:00     -145.328      -12.464      -12.701       57.388       65.806       26.558     3293.350     4330.413      705.347        1.488        0.416      145.861       26.319        0.033      345.895       23.751      863.852
08/15/2014  22:56:00     -169.646      -15.033       -3.654       79.652       67.459       35.178     6344.385     4550.764     1237.493        2.057        0.607      170.311       28.265        0.028      345.820       23.622      863.865
08/15/2014  22:57:00     -319.261     -150.898      -11.800      169.313      137.502       80.577    28666.853    18906.712     6492.615        8.944        2.703      353.126       88.136        0.062      345.940       23.827      863.826
08/15/2014  22:58:00      -88.886       93.104       -4.082       80.629       90.017       50.785     6501.043     8103.066     2579.096        1.688        0.859      128.721       48.615        0.143      345.887       23.737      863.824
08/15/2014  22:59:00     -116.518       39.074      -29.942       51.005       65.902       35.853     2601.521     4343.101     1285.452        1.211        0.412      122.895       18.973        0.024      345.953       23.852      863.828
08/15/2014  23:00:00     -285.931       -5.827      -18.862       88.582       93.110       49.116     7846.834     8669.539     2412.340        5.053        0.946      285.991       48.182        0.028      345.904       23.763      863.829
08/15/2014  23:01:00     -160.025       -5.987      -27.425      101.377       56.209       44.946    10277.217     3159.419     2020.124        2.092        0.773      160.137       39.953        0.062      345.861       23.692      863.834
08/15/2014  23:02:00      -75.996      -16.646       -6.865       56.656       53.275       27.510     3209.880     2838.174      756.815        0.645        0.340       77.797       20.671        0.071      345.773       23.543      863.842
08/15/2014  23:03:00     -107.791        7.636      -21.246       55.408       79.319       34.814     3070.069     6291.505     1212.038        1.135        0.529      108.061       34.547        0.102      345.853       23.679      863.839
08/15/2014  23:04:00     -180.382      -33.178      -40.685       53.405       41.856       24.684     2852.088     1751.949      609.319        2.025        0.261      183.408       15.749        0.007      345.813       23.613      863.847
08/15/2014  23:05:00      -93.502       52.912       -4.358       65.255       97.046       36.469     4258.179     9417.880     1330.016        1.328        0.750      107.435       29.344        0.075      345.751       23.504      863.867
08/15/2014  23:06:00      -97.166       -8.918       -3.587       50.899       54.871       28.859     2590.754     3010.776      832.832        0.798        0.322       97.574       32.946        0.114      345.762       23.526      863.880
08/15/2014  23:07:00      -80.847      -13.853       11.142       51.306       58.042       36.007     2632.277     3368.916     1296.488        0.707        0.365       82.026       38.790        0.224      345.709       23.434      863.884
08/15/2014  23:08:00     -162.931      -57.655      -10.501       97.851       58.606       35.272     9574.874     3434.700     1244.113        2.211        0.713      172.831       45.353        0.069      345.809       23.601      863.886
08/15/2014  23:09:00      -67.766       19.441        0.936       86.682       55.635       30.680     7513.707     3095.273      941.259        0.826        0.578       70.499       38.066        0.292      345.814       23.615      863.883
08/15/2014  23:10:00       -6.045       24.771       -8.249       48.689       41.956       23.726     2370.643     1760.323      562.916        0.271        0.235       25.498       22.200        0.758      345.926       23.807      863.886
08/15/2014  23:11:00        0.887      -25.209        1.318       33.941       42.720       19.443     1152.021     1824.970      378.011        0.200        0.168       25.225       24.695        0.958      345.928       23.808      863.901
08/15/2014  23:12:00      -65.818       27.017       -5.134       25.899       27.722       18.372      670.769      768.534      337.516        0.343        0.089       71.148       13.413        0.036      345.888       23.741      863.934
08/15/2014  23:13:00      -38.146       15.305       -3.377       32.398       17.458       17.410     1049.640      304.790      303.120        0.168        0.083       41.102       18.842        0.210      345.862       23.697      863.965
08/15/2014  23:14:00      -63.106       36.625      -19.644       21.283       25.154       15.060      452.974      632.710      226.805        0.351        0.066       72.964       13.026        0.032      345.925       23.804      863.981
08/15/2014  23:15:00      -22.775       54.951       -7.374       38.405       27.441       20.318     1474.970      753.031      412.812        0.312        0.132       59.483       15.686        0.070      345.803       23.594      863.995
08/15/2014  23:16:00      -24.096       -1.312       -2.213       31.746       34.535       16.984     1007.816     1192.666      288.453        0.154        0.124       24.132        8.760        0.132      345.700       23.418      863.998
08/15/2014  23:17:00      -44.866        7.920        6.827       32.219       26.900       15.555     1038.053      723.608      241.966        0.206        0.100       45.560       17.177        0.142      345.629       23.296      863.985
08/15/2014  23:18:00      -96.352       33.876      -14.227       25.164       18.889       20.679      633.208      356.779      427.641        0.603        0.071      102.134       12.471        0.015      345.650       23.334      863.987
08/15/2014  23:19:00      -10.719       23.851       11.742       33.801       18.118       17.210     1142.523      328.261      296.189        0.129        0.088       26.149       19.995        0.585      345.528       23.121      863.984
08/15/2014  23:20:00       -0.588       20.110       12.253       13.376       16.913       12.825      178.908      286.047      164.469        0.059        0.031       20.118       11.052        0.302      345.464       23.012      863.992
08/15/2014  23:21:00       20.731       62.637       -7.249       19.353       24.094       12.092      374.525      580.536      146.211        0.275        0.055       65.978        4.284        0.004      345.557       23.173      864.004
08/15/2014  23:22:00       10.949       45.556      -11.960       15.549       28.234       11.814      241.778      797.170      139.564        0.176        0.059       46.853        9.173        0.038      345.428       22.952      864.015
08/15/2014  23:23:00       21.366       47.147       -3.796       35.012       33.216       14.472     1225.864     1103.334      209.447        0.262        0.127       51.763       19.686        0.145      345.445       22.982      864.025
08/15/2014  23:24:00       23.473       37.080       -0.347       17.251       27.318       18.792      297.594      746.269      353.140        0.166        0.070       43.885        6.591        0.023      345.308       22.744      864.050
08/15/2014  23:25:00       41.451       28.204        1.004       19.879       19.572       16.665      395.155      383.063      277.724        0.179        0.053       50.137       11.035        0.048      345.269       22.677      864.076
08/15/2014  23:26:00       23.985       35.849       -2.068       21.085       21.427       17.509      444.577      459.116      306.574        0.154        0.061       43.133       12.798        0.088      345.261       22.663      864.093
08/15/2014  23:27:00       27.774       23.579       -5.620       19.493       20.151       15.436      379.985      406.082      238.258        0.119        0.051       36.433        9.177        0.063      345.320       22.765      864.110
08/15/2014  23:28:00       34.421       36.735       -5.934       12.709        9.370        9.071      161.510       87.796       82.283        0.145        0.017       50.341        5.938        0.014      345.356       22.828      864.122
08/15/2014  23:29:00       35.213       33.418       -0.022       29.014       20.427       14.361      841.835      417.264      206.226        0.191        0.073       48.546       11.225        0.053      345.349       22.816      864.129
08/15/2014  23:30:00       -9.165       58.118       -9.160       21.516       23.353       11.812      462.943      545.371      139.522        0.235        0.057       58.836       11.904        0.041      345.391       22.886      864.132
08/15/2014  23:31:00      -77.232       58.897      -18.015       38.296       21.850       12.442     1466.567      477.410      154.801        0.593        0.105       97.127        9.904        0.010      345.376       22.862      864.130
08/15/2014  23:32:00      -50.681       39.198       -9.852       38.680       23.156       16.558     1496.152      536.223      274.162        0.325        0.115       64.071       16.539        0.067      345.344       22.808      864.122
08/15/2014  23:33:00      -57.845      -12.521      -10.382       14.920       18.722        8.798      222.607      350.508       77.413        0.213        0.033       59.184        7.595        0.016      345.187       22.539      864.128
08/15/2014  23:34:00      -71.859      -20.839       -7.613       14.258       24.043       13.390      203.293      578.077      179.304        0.331        0.048       74.820        6.544        0.008      345.323       22.771      864.134
08/15/2014  23:35:00      -62.774      -28.946       -7.538       31.957       20.655       17.187     1021.234      426.623      295.390        0.329        0.087       69.127       19.584        0.080      345.288       22.711      864.129
08/15/2014  23:36:00      -93.609      -46.939       -3.300       32.605       22.897       17.559     1063.093      524.260      308.308        0.644        0.095      104.718       16.002        0.023      345.248       22.644      864.129
08/15/2014  23:37:00      -91.841      -86.405        2.387       54.399       36.134       31.408     2959.210     1305.665      986.444        1.058        0.263      126.098       30.568        0.059      345.219       22.594      864.119
08/15/2014  23:38:00      -54.860      -47.270       13.762       67.791       44.660       35.160     4595.629     1994.479     1236.239        0.663        0.391       72.416       39.481        0.297      345.183       22.531      864.123
08/15/2014  23:39:00      -62.537      -46.253       10.588       54.839       57.759       35.113     3007.363     3336.133     1232.889        0.687        0.379       77.784       30.119        0.150      345.219       22.593      864.133
08/15/2014  23:40:00      -90.402      -47.624        6.954       70.088       45.381       28.850     4912.372     2059.446      832.317        0.914        0.390      102.179       33.222        0.106      345.260       22.662      864.129
08/15/2014  23:41:00      -39.711      -12.618        7.813       53.479       41.024       18.542     2860.024     1682.937      343.805        0.334        0.244       41.667       23.225        0.311      345.212       22.580      864.120
08/15/2014  23:42:00      -77.460      -43.922        0.710       36.385       32.506       24.529     1323.899     1056.659      601.652        0.546        0.149       89.046       21.585        0.059      345.275       22.690      864.121
08/15/2014  23:43:00      -86.354      -41.346        4.309       47.799       46.572       21.654     2284.713     2168.994      468.912        0.705        0.246       95.742       26.216        0.075      345.235       22.622      864.127
08/15/2014  23:44:00     -128.894       10.876       -9.627       37.652       27.143       17.065     1417.676      736.718      291.230        0.963        0.122      129.352       18.318        0.020      345.342       22.805      864.132
08/15/2014  23:45:00     -107.867       37.612       -4.261       30.354       15.709       13.606      921.376      246.767      185.122        0.721        0.068      114.236       14.914        0.017      345.231       22.614      864.125
08/15/2014  23:46:00      -90.909        1.239      -11.145       19.653       27.961       14.177      386.255      781.834      200.994        0.488        0.068       90.918        9.583        0.011      345.291       22.717      864.120
08/15/2014  23:47:00      -77.289       -1.204      -12.107       26.445       38.723       14.204      699.337     1499.466      201.747        0.426        0.120       77.299       11.826        0.023      345.219       22.592      864.127
08/15/2014  23:48:00      -84.145       72.359      -13.624       29.060       36.010       24.542      844.459     1296.746      602.293        0.762        0.137      110.978       20.876        0.035      345.313       22.755      864.112
08/15/2014  23:49:00     -141.396       84.935      -22.960       34.142       44.875       24.188     1165.689     2013.749      585.071        1.575        0.188      164.945       28.465        0.030      345.329       22.781      864.108
08/15/2014  23:50:00      -57.214       48.850       -3.059       32.977       26.864       17.884     1087.503      721.696      319.832        0.390        0.106       75.232       14.564        0.037      345.144       22.465      864.109
08/15/2014  23:51:00      -25.612        7.170        4.674       28.665       29.325       16.725      821.680      859.960      279.710        0.134        0.098       26.596       17.564        0.436      344.925       22.091      864.110
08/15/2014  23:52:00      -62.251       26.319       -9.263       40.106       22.984       17.903     1608.463      528.258      320.504        0.355        0.123       67.586       21.600        0.102      345.046       22.297      864.108
08/15/2014  23:53:00     -124.727      -23.499      -19.777       29.555       35.999       15.039      873.469     1295.916      226.172        0.945        0.120      126.921       11.514        0.008      345.030       22.269      864.128
08/15/2014  23:54:00     -136.967      -16.937       -7.882       31.732       36.306       19.306     1006.891     1318.126      372.727        1.090        0.135      138.010       10.463        0.006      344.905       22.055      864.137
08/15/2014  23:55:00      -75.612       81.504      -13.198       30.752       38.635       18.993      945.661     1492.680      360.746        0.767        0.140      111.175       19.979        0.032      345.013       22.240      864.139
08/15/2014  23:56:00      -10.931       65.755       -5.673       52.622       40.566       21.038     2769.042     1645.567      442.587        0.467        0.243       66.658       26.282        0.155      345.044       22.293      864.160
08/15/2014  23:57:00       19.800       91.733       -8.525       30.504       38.856       19.472      930.474     1509.770      379.158        0.585        0.141       93.846       22.980        0.060      345.114       22.412      864.169
08/15/2014  23:58:00      -14.042       85.611       -9.075       29.760       42.228       17.188      885.662     1783.217      295.441        0.529        0.148       86.755       20.509        0.056      345.071       22.340      864.184
08/15/2014  23:59:00       57.080       27.863       12.488       32.902       28.365       28.042     1082.558      804.554      786.378        0.343        0.134       63.517       16.642        0.069      344.881       22.014      864.202
